     2              OBSERVATION DATA    GPS                 RINEX VERSION / TYPE
TRRINEXO-V2.8.4-LH UCSD 19-MAY-1997                         PGM / RUN BY / DATE
                                                            COMMENT
BIT 2 OF LLI (+4) FLAGS DATA COLLECTED UNDER "AS" CONDITION COMMENT
BIT 2 OF LLI (+4) FLAGS DATA COLLECTED UNDER "AS" CONDITION COMMENT
Original Marker Name: MUNS                                  COMMENT
Campaign Name: Ventura Basin June 1990                      COMMENT
4-Character Station Name: MUNS                              COMMENT
6-Character Antenna Code: TRMSST                            COMMENT
Vertical Measurement Point: BGP                             COMMENT
Vertical Offset to Rinex Ref. Point: 0.0597                 COMMENT
Radial Measurement Point: NGP                               COMMENT
Radial Offset to Rinex Ref. Point: 0.2334                   COMMENT
Antenna Height from Field Measurement: 0.9760 m             COMMENT
Note: This data was collected with the Trimble              COMMENT
4000SST receivers set to "standard" mode as                 COMMENT
opposed to "compact" mode. This means the phase             COMMENT
data WERE NOT sampled at the correct times. Be-             COMMENT
cause Selective Availability (SA) was activated             COMMENT
during this experiment the data CANNOT be pro-              COMMENT
cessed simultaneous with "compact" data due to              COMMENT
this timing mismatch; it MUST be processed separ-           COMMENT
atly. See Feigl et al., A Scheme for reducing the           COMMENT
effect of selective availability on precise geo-            COMMENT
detic measurements from the global positioning              COMMENT
system, GRL 18, 1289-1292 (1991), for a process-            COMMENT
ing scheme.                                                 COMMENT
Original XYZ: -2571831.0701 -4582888.2394 3605931.7485      COMMENT
New XYZ position is based on association with SCEC monument COMMENT
E1E9J9S6+0011. Position of that monument is believed to be  COMMENT
valid to within 1 m horizontally; vertical accuracy         COMMENT
should be no worse than 3-times this value.                 COMMENT
                                                            COMMENT
Revised Rinex header created by UCSD GPS archive for        COMMENT
GSAC on 15-Apr-1999 (1999:105) 00:13:18 GMT                 COMMENT
For assistance contact dagnew@ucsd.edu or hjohnson@ucsd.edu COMMENT
                                                            COMMENT
MUNSON-TPC                                                  MARKER NAME
UNKNOWN OBSERVER CIT                                        OBSERVER / AGENCY
495 TRIMBLE 4000 SST 4.11 / 4.10                            REC # / TYPE / VERS
32 TR 4000SST L1/L2 GEO                                     ANT # / TYPE
 -2571862.0000 -4582901.0000  3605893.0000                  APPROX POSITION XYZ
        0.8880        0.0000        0.0000                  ANTENNA: DELTA H/E/N
     1     2     0                                          WAVELENGTH FACT L1/2
     5    C1    L1    L2    S1    S2                        # / TYPES OF OBSERV
     0                                                      INTERVAL
  1990     6    17    19     4   30.000000                  TIME OF FIRST OBS
  1990     6    18     3    15   15.000000                  TIME OF LAST OBS
     0                                                      # OF SATELLITES
                                                            END OF HEADER
 90  6 17 19  4 30.0800000  0  3 02 11 16
  21649714.101           0.110 8         0.106 9        28.000         206.000
  21944287.291           0.339 7         0.133 9        24.000         117.000
  24876965.168           0.433 3         0.477 5         6.000           7.000
 90  6 17 19  4 45.1840000  0  3 02 11 16
  21655532.204       30570.395 8     23821.080 9        28.000         203.000
  21938926.445      -28189.564 7    -21965.978 9        25.000         113.000
  24878695.021        9103.108 3      7093.452 5         6.000           5.000
 90  6 17 19  5  0.0320000  0  3 02 11 16
  21661245.899       60592.275 8     47214.726 9        29.000         197.000
  21933659.670      -55848.968 7    -43518.719 9        24.000         115.000
  24880410.256       18094.550 3     14099.714 5         6.000          10.000
 90  6 17 19  5 15.1360000  0  3 02 11 16
  21667049.619       91097.171 8     70984.756 9        28.000         211.000
  21928316.925      -83935.556 7    -65404.326 9        24.000         113.000
  24882151.908       27280.949 3     21257.907 5         5.000          11.000
 90  6 17 19  5 30.2400000  0  3 02 11 16
  21672849.121      121567.198 8     94727.611 9        29.000         211.000
  21922981.729     -111971.243 7    -87250.267 9        24.000         122.000
  24883916.098       36507.969 3     28447.772 6         5.000          12.000
 90  6 17 19  5 45.0880000  0  3 02 11 16
  21678543.019      151489.863 8    118043.953 9        29.000         203.000
  21917745.017     -139479.821 7   -108685.482 9        24.000         121.000
  24885643.357       45620.262 2     35548.262 5         4.000           9.000
 90  6 17 19  6  0.1920000  0  3 02 11 16
  21684329.108      181895.812 8    141736.874 9        29.000         206.000
  21912431.437     -167411.908 7   -130450.695 9        24.000         118.000
  24887416.002       54930.413 3     42802.909 4         5.000           4.000
 90  6 17 19  6 15.0400000  0  3 02 11 16
  21690010.942      211752.981 8    165002.176 9        29.000         210.000
  21907213.521     -194822.383 7   -151809.470 9        24.000         116.000
  24889163.885       64121.338 3     49964.584 6         5.000          12.000
 90  6 17 19  6 30.1440000  0  3 02 11 16
  21695785.896      242097.241 8    188647.029 9        29.000         208.000
  21901919.482     -222651.257 7   -173494.265 9        24.000         112.000
  24890946.704       73516.044 2     57285.124 5         4.000          10.000
 90  6 17 19  6 45.2480000  0  3 02 11 16
  21701554.783      272412.196 8    212269.043 9        29.000         200.000
  21896632.859     -250428.030 7   -195138.461 9        24.000         118.000
  24892749.708       82952.347 3     64638.086 6         5.000          14.000
 90  6 17 19  7  0.0960000  0  3 02 11 16
  21707221.100      302190.905 8    235473.208 9        29.000         206.000
  21891446.601     -277678.185 7   -216372.307 9        24.000         124.000
  24894517.296       92273.002 2     71900.897 6         4.000          12.000
 90  6 17 19  7 15.2000000  0  3 02 11 16
  21712981.335      332462.950 8    259061.785 9        29.000         196.000
  21886185.302     -305338.966 7   -237926.122 9        24.000         116.000
  24896336.675      101801.062 3     79325.377 5         5.000          11.000
 90  6 17 19  7 30.0480000  0  3 02 11 16
  21718640.409      362202.116 8    282235.135 9        29.000         195.000
  21881020.985     -332472.541 7   -259069.126 9        24.000         124.000
  24898122.916      111212.318 3     86658.769 5         5.000          10.000
 90  6 17 19  7 45.1520000  0  3 02 11 16
  21724391.359      392429.987 8    305789.289 9        29.000         193.000
  21875777.766     -360018.097 7   -280533.157 9        24.000         120.000
  24899956.708      120826.520 3     94150.333 1         5.000           1.000
 90  6 17 19  8  0.2560000  0  3 02 11 16
  21730139.488      422636.210 8    329326.601 9        29.000         186.000
  21870546.846     -387502.645 7   -301949.637 9        24.000         128.000
  24901786.783      130486.471 3    101677.540 5         5.000           6.000
 90  6 17 19  8 15.1040000  0  3 02 11 16
  21735786.397      452307.829 8    352447.309 9        29.000         198.000
  21865416.995     -414461.226 7   -322956.282 9        24.000         122.000
  24903612.648      140027.923 3    109112.419 5         6.000          10.000
 90  6 17 19  8 30.2080000  0  3 02 11 16
  21741525.976      482468.767 8    375949.318 9        29.000         189.000
  21860209.815     -441820.797 7   -344275.383 9        24.000         126.000
  24905462.959      149782.368 3    116713.234 5         5.000          11.000
 90  6 17 19  8 45.0560000  0  3 02 11 16
  21747162.261      512094.715 8    399034.439 9        29.000         185.000
  21855105.583     -468655.215 7   -365185.278 9        24.000         121.000
  24907297.058      159416.119 3    124220.031 5         5.000           7.000
 90  6 17 19  9  0.1600000  0  3 02 11 16
  21752893.669      542206.782 8    422498.364 9        29.000         185.000
  21849923.297     -495889.211 7   -386406.532 9        24.000         122.000
  24909167.880      169260.392 3    131890.834 5         5.000           7.000
 90  6 17 19  9 15.0080000  0  3 02 11 16
  21758523.538      571787.620 8    445548.342 9        30.000         190.000
  21844840.732     -522594.567 7   -407215.859 9        24.000         120.000
  24911021.898      178987.783 3    139470.555 5         5.000          11.000
 90  6 17 19  9 30.1120000  0  3 02 11 16
  21764243.954      601853.947 8    468976.620 9        29.000         186.000
  21839682.330     -549694.157 7   -428332.379 9        24.000         118.000
  24912915.807      188932.620 3    147219.784 6         5.000          15.000
 90  6 17 19  9 45.2160000  0  3 02 11 16
  21769960.816      631893.359 8    492383.927 9        29.000         183.000
  21834539.669     -576728.484 7   -449398.050 9        25.000         125.000
  24914810.553      198926.570 3    155007.227 5         5.000          10.000
 90  6 17 19 10  0.0640000  0  3 02 11 16
  21775575.567      661401.928 8    515377.590 9        28.000         187.000
  21829495.768     -603235.976 7   -470053.194 9        25.000         121.000
  24916700.447      208804.919 3    162704.605 6         6.000          12.000
 90  6 17 19 10 15.1680000  0  3 02 11 16
  21781283.888      691399.810 8    538752.536 9        28.000         191.000
  21824378.267     -630127.066 7   -491007.250 9        24.000         117.000
  24918619.730      218912.138 3    170580.290 6         6.000          15.000
 90  6 17 19 10 30.0160000  0  3 02 11 16
  21786892.500      720870.974 8    561717.049 9        28.000         184.000
  21819360.997     -656490.388 7   -511550.055 9        25.000         116.000
  24920523.108      228903.865 3    178366.038 6         6.000          13.000
 90  6 17 19 10 45.1200000  0  3 02 11 16
  21792594.539      750831.715 8    585063.055 9        28.000         189.000
  21814270.229     -683236.127 7   -532390.845 9        25.000         118.000
  24922464.446      239121.646 3    186327.906 5         5.000          11.000
 90  6 17 19 11  0.2240000  0  3 02 11 16
  21798291.532      780777.642 8    608397.506 9        28.000         184.000
  21809198.104     -709904.543 7   -553171.388 9        25.000         124.000
  24924422.812      249397.787 3    194335.253 5         5.000           9.000
 90  6 17 19 11 15.0720000  0  3 02 11 16
  21803890.940      810195.339 8    631320.358 9        28.000         188.000
  21804219.723     -736051.303 7   -573545.440 9        24.000         119.000
  24926353.444      259552.653 3    202248.126 6         5.000          12.000
 90  6 17 19 11 30.1760000  0  3 02 11 16
  21809581.099      840103.903 7    654625.691 9        27.000         187.000
  21799176.027     -762572.021 7   -594210.894 9        25.000         120.000
  24928332.107      269941.618 3    210343.388 6         6.000          12.000
 90  6 17 19 11 45.0240000  0  3 02 11 16
  21815174.326      869499.060 7    677530.994 9        27.000         186.000
  21794229.221     -788558.519 7   -614460.070 9        25.000         110.000
  24930285.580      280219.858 3    218352.387 6         5.000          14.000
 90  6 17 19 12  0.1280000  0  3 02 11 16
  21820863.147      899390.049 7    700822.634 9        27.000         184.000
  21789212.861     -814911.260 7   -634994.635 9        25.000         119.000
  24932290.436      290735.501 3    226546.346 5         6.000          10.000
 90  6 17 19 12 15.2320000  0  3 02 11 16
  21826548.842      929269.337 7    724105.160 9        27.000         189.000
  21784215.501     -841182.156 7   -655465.422 9        25.000         123.000
  24934302.962      301310.838 3    234786.838 5         5.000          11.000
 90  6 17 19 12 30.0810000  0  3 02 11 16
  21832136.206      958628.097 7    746982.089 9        27.000         184.000
  21779315.144     -866935.536 7   -675532.955 9        24.000         130.000
  24936291.218      311758.023 3    242927.455 6         6.000          19.000
 90  6 17 19 12 45.1850000  0  3 02 11 16
  21837816.978      988481.349 7    770244.337 9        27.000         186.000
  21774345.773     -893049.037 7   -695881.089 9        24.000         130.000
  24938322.612      322441.510 3    251252.230 6         5.000          14.000
 90  6 17 19 13  0.0330000  0  3 02 11 16
  21843399.816     1017820.884 7    793106.283 9        26.000         181.000
  21769476.102     -918635.487 7   -715818.550 9        24.000         125.000
  24940328.826      333004.774 2    259483.315 6         4.000          12.000
 90  6 17 19 13 15.1370000  0  3 02 11 16
  21849079.321     1047659.477 7    816357.103 9        27.000         180.000
  21764539.982     -944575.319 7   -736031.373 9        24.000         120.000
  24942389.292      343814.544 3    267906.503 6         5.000          14.000
 90  6 17 19 13 30.2410000  0  3 02 11 16
  21854755.853     1077491.449 7    839602.760 9        27.000         183.000
  21759620.124     -970426.739 7   -756175.288 9        24.000         121.000
  24944454.928      354687.706 3    276379.018 5         5.000          11.000
 90  6 17 19 13 45.0890000  0  3 02 11 16
  21860335.004     1106809.454 7    862447.931 9        27.000         182.000
  21754799.353     -995755.559 7   -775911.988 9        24.000         122.000
  24946497.497      365434.406 2    284753.070 5         4.000          10.000
 90  6 17 19 14  0.1930000  0  3 02 11 16
  21866008.186     1136626.371 7    885681.856 9        27.000         177.000
  21749915.239    -1021434.048 7   -795921.162 9        24.000         126.000
  24948597.373      376425.840 3    293317.769 6         5.000          14.000
 90  6 17 19 14 15.0410000  0  3 02 11 16
  21871583.925     1165932.482 7    908517.760 9        26.000         185.000
  21745126.115    -1046590.126 7   -815523.265 9        25.000         122.000
  24950658.279      387291.071 2    301784.162 6         4.000          18.000
 90  6 17 19 14 30.1450000  0  3 02 11 16
  21877257.821     1195738.599 7    931743.269 9        27.000         180.000
  21740274.321    -1072089.693 7   -835393.015 9        24.000         124.000
  24952776.114      398405.112 3    310444.419 6         5.000          16.000
 90  6 17 19 14 45.2490000  0  3 02 11 16
  21882929.164     1225542.382 7    954966.967 9        27.000         179.000
  21735438.881    -1097494.787 7   -855189.155 9        24.000         122.000
  24954902.355      409584.273 2    319155.408 6         4.000          13.000
 90  6 17 19 15  0.0970000  0  3 02 11 16
  21888503.215     1254833.556 8    977791.226 9        28.000         184.000
  21730703.612    -1122381.342 7   -874581.233 9        24.000         121.000
  24957007.411      420633.748 3    327765.340 6         5.000          12.000
 90  6 17 19 15 15.2010000  0  3 02 11 16
  21894171.780     1284625.182 8   1001005.457 9        28.000         187.000
  21725905.223    -1147604.387 7   -894235.517 9        24.000         126.000
  24959157.382      431937.675 2    336573.593 5         4.000           8.000
 90  6 17 19 15 30.0490000  0  2 02 11
  21899746.589     1313913.191 8   1023827.252 9        28.000         181.000
  21721204.848    -1172303.655 7   -913481.659 9        24.000         126.000
 90  6 17 19 15 45.1530000  0  2 02 11
  21905414.929     1343705.192 8   1047041.775 9        28.000         186.000
  21716441.436    -1197331.802 7   -932984.073 9        24.000         125.000
 90  6 17 19 16  0.2570000  0  2 02 11
  21911083.329     1373491.853 8   1070252.126 9        29.000         181.000
  21711695.645    -1222266.726 7   -952413.848 9        24.000         129.000
 90  6 17 19 16 15.1050000  0  2 02 11
  21916654.267     1402768.680 8   1093065.203 9        28.000         188.000
  21707049.523    -1246686.907 7   -971442.524 9        24.000         127.000
 90  6 17 19 16 30.2090000  0  2 02 11
  21922320.911     1432545.590 8   1116267.960 9        28.000         185.000
  21702341.089    -1271432.826 7   -990725.019 9        24.000         127.000
 90  6 17 19 16 45.0570000  0  2 02 11
  21927890.838     1461816.420 8   1139076.365 9        28.000         174.000
  21697731.201    -1295662.590 7  -1009605.319 9        24.000         124.000
 90  6 17 19 17  0.1610000  0  2 02 11
  21933557.195     1491588.745 8   1162275.545 9        29.000         173.000
  21693056.793    -1320212.708 7  -1028735.246 9        24.000         122.000
 90  6 17 19 17 15.0090000  0  2 02 11
  21939125.181     1520855.875 8   1185081.063 9        28.000         166.000
  21688485.007    -1344248.335 7  -1047464.273 9        24.000         124.000
 90  6 17 19 17 30.1130000  0  2 02 11
  21944790.793     1550623.904 8   1208276.896 9        28.000         173.000
  21683849.928    -1368600.524 7  -1066439.972 9        24.000         123.000
 90  6 17 19 17 45.2170000  0  2 02 11
  21950453.494     1580390.008 8   1231471.230 9        28.000         164.000
  21679235.198    -1392852.008 7  -1085337.197 9        24.000         121.000
 90  6 17 19 18  0.0650000  0  2 02 11
  21956021.745     1609651.431 8   1254272.305 9        28.000         163.000
  21674716.307    -1416592.626 7  -1103836.344 9        24.000         128.000
 90  6 17 19 18 15.1690000  0  2 02 11
  21961687.072     1639414.455 8   1277464.242 9        28.000         165.000
  21670142.090    -1440643.723 7  -1122577.428 9        24.000         126.000
 90  6 17 19 18 30.0170000  0  2 02 11
  21967254.639     1668671.686 8   1300262.062 9        28.000         159.000
  21665662.680    -1464186.343 7  -1140922.296 9        24.000         129.000
 90  6 17 19 18 45.1210000  0  2 02 11
  21972916.890     1698431.664 7   1323451.630 9        27.000         161.000
  21661123.000    -1488033.720 7  -1159504.635 9        24.000         122.000
 90  6 17 19 19  0.2250000  0  2 02 11
  21978579.580     1728192.644 7   1346641.970 9        27.000         160.000
  21656606.540    -1511775.887 7  -1178004.991 9        24.000         121.000
 90  6 17 19 19 15.0730000  0  2 02 11
  21984147.985     1757450.036 7   1369439.908 9        27.000         162.000
  21652182.680    -1535012.675 7  -1196111.553 9        24.000         126.000
 90  6 17 19 19 30.1760000  0  2 02 11
  21989811.922     1787212.071 7   1392631.076 9        27.000         167.000
  21647705.273    -1558546.337 7  -1214449.435 9        24.000         126.000
 90  6 17 19 19 45.0230000  0  2 02 11
  21695587.501     1816472.317 7   1415431.236 9        27.000         167.000
  21343530.725    -1581574.114 7  -1232393.122 9        24.000         123.000
 90  6 17 19 20  0.1270000  0  2 02 11
  21701252.387     1846242.793 7   1438628.977 9        27.000         165.000
  21339091.971    -1604892.757 7  -1250563.473 9        24.000         117.000
 90  6 17 19 20 15.2310000  0  2 02 11
  21706917.928     1876016.014 7   1461828.855 9        27.000         168.000
  21334676.417    -1628103.576 7  -1268649.789 9        24.000         123.000
 90  6 17 19 20 30.0790000  0  2 02 11
  21712488.733     1905289.006 7   1484638.945 9        27.000         163.000
  21330353.800    -1650813.300 7  -1286345.645 9        23.000         122.000
 90  6 17 19 20 45.1830000  0  2 02 11
  21718155.571     1935065.468 7   1507841.354 9        27.000         153.000
  21325979.034    -1673810.384 7  -1304265.426 9        24.000         118.000
 90  6 17 19 21  0.0310000  0  2 02 11
  21723725.416     1964337.429 7   1530650.647 9        27.000         152.000
  21321696.021    -1696313.984 7  -1321800.669 9        24.000         115.000
 90  6 17 19 21 15.1350000  0  2 02 11
  21729391.957     1994113.750 7   1553852.941 9        27.000         162.000
  21317360.441    -1719098.162 7  -1339554.545 9        23.000         118.000
 90  6 17 19 21 30.2390000  0  2 02 11
  21735057.610     2023892.584 7   1577057.186 9        27.000         162.000
  21313044.791    -1741771.702 7  -1357222.210 9        23.000         112.000
 90  6 17 19 21 45.0870000  0  2 02 11
  21740629.294     2053165.778 7   1599867.432 9        27.000         169.000
  21308822.579    -1763955.086 7  -1374507.932 9        23.000         116.000
 90  6 17 19 22  0.1910000  0  2 02 11
  21746295.948     2082945.527 7   1623072.390 9        27.000         160.000
  21304549.873    -1786408.208 7  -1392003.842 9        23.000         121.000
 90  6 17 19 22 15.0390000  0  2 02 11
  21751865.650     2112220.238 7   1645883.821 9        27.000         155.000
  21300370.412    -1808371.434 7  -1409118.020 9        23.000         121.000
 90  6 17 19 22 30.1430000  0  2 02 11
  21757533.703     2141999.617 7   1669088.495 9        26.000         156.000
  21296140.896    -1830602.878 7  -1426441.192 9        23.000         114.000
 90  6 17 19 22 45.2470000  0  2 02 11
  21763199.795     2171775.167 7   1692290.181 9        27.000         159.000
  21291931.044    -1852724.966 7  -1443679.158 9        23.000         117.000
 90  6 17 19 23  0.0950000  0  2 02 11
  21768769.865     2201049.651 7   1715101.434 9        27.000         160.000
  21287814.702    -1874358.230 7  -1460536.213 9        23.000         116.000
 90  6 17 19 23 15.1990000  0  2 02 11
  21774436.928     2230831.489 7   1738308.027 9        26.000         159.000
  21283648.377    -1896249.571 7  -1477594.373 9        23.000         116.000
 90  6 17 19 23 30.0470000  0  2 02 11
  21780009.643     2260110.530 7   1761122.824 9        27.000         164.000
  21279574.549    -1917658.569 7  -1494276.683 9        23.000         121.000
 90  6 17 19 23 45.1510000  0  2 02 11
  21785677.257     2289899.547 7   1784335.006 9        26.000         158.000
  21275453.823    -1939321.071 7  -1511156.528 9        23.000         132.000
 90  6 17 19 24  0.2550000  0  2 02 11
  21791348.079     2319692.831 7   1807550.515 9        26.000         148.000
  21271352.517    -1960868.039 7  -1527946.343 9        23.000         129.000
 90  6 17 19 24 15.1030000  0  2 02 11
  21796921.734     2348985.433 7   1830375.880 9        26.000         163.000
  21267342.176    -1981938.745 7  -1544365.048 9        24.000         123.000
 90  6 17 19 24 30.2070000  0  2 02 11
  21802593.536     2378793.984 7   1853603.282 9        26.000         153.000
  21263288.462    -2003254.874 7  -1560974.993 9        24.000         127.000
 90  6 17 19 24 45.0550000  0  2 02 11
  21808171.870     2408103.017 7   1876441.454 9        26.000         154.000
  21259320.280    -2024097.889 7  -1577216.279 9        24.000         120.000
 90  6 17 19 25  0.1590000  0  2 02 11
  21813846.502     2437925.258 7   1899679.536 9        26.000         153.000
  21255308.315    -2045184.186 7  -1593647.136 9        25.000         129.000
 90  6 17 19 25 15.0070000  0  2 02 11
  21819427.277     2467253.371 7   1922532.571 9        25.000         142.000
  21251386.244    -2065795.170 7  -1609707.611 9        25.000         122.000
 90  6 17 19 25 30.1110000  0  2 02 11
  21825105.444     2497092.756 7   1945783.997 9        25.000         142.000
  21247417.387    -2086647.615 7  -1625956.236 9        25.000         120.000
 90  6 17 19 25 45.2150000  0  2 02 11
  21830785.132     2526939.011 7   1969040.787 9        25.000         153.000
  21243472.240    -2107383.080 7  -1642113.713 9        25.000         125.000
 90  6 17 19 26  0.0630000  0  2 02 11
  21836370.749     2556285.239 7   1991907.946 9        25.000         153.000
  21239615.168    -2127652.082 7  -1657907.709 9        25.000         122.000
 90  6 17 19 26 15.1670000  0  2 02 11
  21842050.417     2586144.446 7   2015174.832 9        25.000         146.000
  21235713.680    -2148152.208 7  -1673881.797 9        25.000         128.000
 90  6 17 19 26 30.0150000  0  2 02 11
  21847638.618     2615502.517 7   2038051.213 9        26.000         149.000
  21231900.718    -2168188.743 7  -1689494.653 9        24.000         122.000
 90  6 17 19 26 45.1190000  0  2 02 11
  21853322.005     2645371.964 7   2061326.064 9        26.000         144.000
  21228045.188    -2188450.913 7  -1705283.331 9        25.000         126.000
 90  6 17 19 27  0.2230000  0  2 02 11
  21859007.526     2675248.206 7   2084606.227 9        26.000         149.000
  21224212.255    -2208589.290 7  -1720975.538 9        23.000         124.000
 90  6 17 19 27 15.0710000  0  2 02 11
  21864598.057     2704625.820 7   2107497.830 9        26.000         155.000
  21220468.775    -2228264.738 7  -1736307.034 9        24.000         123.000
 90  6 17 19 27 30.1750000  0  2 02 11
  21870287.439     2734524.147 7   2130795.193 9        26.000         143.000
  21216684.292    -2248149.790 7  -1751801.847 9        23.000         128.000
 90  6 17 19 27 45.0230000  0  2 02 11
  21875884.007     2763929.902 7   2153708.728 9        26.000         150.000
  21212989.652    -2267570.442 7  -1766934.795 9        23.000         118.000
 90  6 17 19 28  0.1270000  0  2 02 11
  21881576.321     2793848.437 7   2177021.839 9        26.000         145.000
  21209252.966    -2287203.498 7  -1782233.253 9        23.000         121.000
 90  6 17 19 28 15.2310000  0  2 02 11
  21887272.424     2823774.268 7   2200340.638 9        26.000         141.000
  21205540.663    -2306711.856 7  -1797434.542 9        23.000         117.000
 90  6 17 19 28 30.0790000  0  2 02 11
  21892871.832     2853202.539 7   2223271.721 9        26.000         143.000
  21201913.167    -2325765.066 7  -1812281.163 9        23.000         118.000
 90  6 17 19 28 45.1830000  0  2 02 11
  21898570.459     2883144.732 7   2246603.272 9        25.000         156.000
  21198248.723    -2345023.309 7  -1827287.549 9        23.000         120.000
 90  6 17 19 29  0.0310000  0  2 02 11
  21904172.645     2912590.146 7   2269547.716 9        25.000         155.000
  21194671.536    -2363829.380 7  -1841941.591 9        23.000         121.000
 90  6 17 19 29 15.1350000  0  2 02 11
  21909874.653     2942552.914 7   2292895.296 9        25.000         158.000
  21191054.316    -2382832.564 7  -1856749.236 9        23.000         119.000
 90  6 17 19 29 30.2390000  0  2 02 11
  21915578.082     2972526.958 7   2316251.659 9        24.000         147.000
  21187463.207    -2401705.651 7  -1871455.505 9        23.000         121.000
 90  6 17 19 29 45.0870000  0  2 02 11
  21921187.020     3002001.281 7   2339218.627 9        24.000         148.000
  21183957.414    -2420134.440 7  -1885815.564 9        24.000         120.000
 90  6 17 19 30  0.1910000  0  2 02 11
  21926897.252     3031999.680 7   2362593.968 9        24.000         152.000
  21180415.276    -2438745.244 7  -1900317.460 9        24.000         121.000
 90  6 17 19 30 15.0390000  0  2 02 11
  21932509.050     3061500.024 7   2385581.215 9        24.000         149.000
  21176958.455    -2456911.808 7  -1914473.193 9        24.000         117.000
 90  6 17 19 30 30.1430000  0  2 02 11
  21938222.040     3091519.697 7   2408973.128 9        24.000         149.000
  21173465.840    -2475261.645 7  -1928771.742 9        24.000         118.000
 90  6 17 19 30 45.2470000  0  2 02 11
  21943935.009     3121549.859 7   2432373.212 9        23.000         151.000
  21169999.948    -2493481.069 7  -1942968.672 9        25.000         116.000
 90  6 17 19 31  0.0950000  0  3 02 11 09
  21949555.480     3151082.246 7   2455385.431 9        23.000         140.000
  21166616.359    -2511263.342 7  -1956824.958 9        25.000         123.000
  24304580.982                                           0.171 4         7.000
 90  6 17 19 31 15.1990000  0  3 02 11 09
  21955275.325     3181135.852 7   2478803.794 9        23.000         139.000
  21163197.733    -2529220.370 7  -1970817.413 9        24.000         124.000
  24296116.263      -44507.541 4                                         7.000
 90  6 17 19 31 30.0470000  0  3 02 11 09
  21960899.483     3210694.278 7   2501836.300 9        23.000         143.000
  21159864.188    -2546741.836 7  -1984470.470 9        24.000         122.000
  24287780.102      -88288.646 3         0.26915         6.000          10.000
 90  6 17 19 31 45.1510000  0  3 02 11 09
  21966624.118     3240774.224 7   2525275.190 9        23.000         136.000
  21156497.833    -2564435.105 7  -1998257.409 9        24.000         128.000
  24279300.969     -132856.035 3    -34727.474 4         6.000           4.000
 90  6 17 19 32  0.2550000  0  3 02 11 09
  21972349.243     3270866.808 7   2548723.908 9        23.000         140.000
  21153155.268    -2581996.182 7  -2011941.336 9        24.000         126.000
  24270810.784     -177454.462 3    -69479.452 5         6.000           9.000
 90  6 17 19 32 15.1030000  0  3 02 11 09
  21977985.844     3300480.403 7   2571799.407 9        23.000         140.000
  21149897.858    -2599111.192 7  -2025277.673 9        24.000         124.000
  24262468.841     -221307.742 3   -103650.767 6         6.000          12.000
 90  6 17 19 32 30.2070000  0  3 02 11 09
  21983723.013     3330626.538 7   2595289.865 9        23.000         149.000
  21146611.283    -2616380.359 7  -2038734.139 9        24.000         125.000
  24253972.618     -265938.215 3   -138427.659 5         6.000           8.000
 90  6 17 19 32 45.0550000  0  3 02 11 09
  21989367.704     3360294.895 7   2618408.024 9        24.000         148.000
  21143410.780    -2633205.632 7  -2051844.713 9        24.000         127.000
  24245624.066     -309820.303 3   -172621.459 6         6.000          13.000
 90  6 17 19 33  0.1590000  0  3 02 11 09
  21995115.292     3390501.378 7   2641945.519 9        23.000         134.000
  21140181.533    -2650172.740 7  -2065065.795 9        23.000         128.000
  24237127.905     -354472.800 3   -207415.456 5         6.000           7.000
 90  6 17 19 33 15.0070000  0  3 02 11 09
  22000773.141     3420233.527 7   2665113.378 9        24.000         135.000
  21137036.744    -2666695.277 7  -2077940.486 9        23.000         128.000
  24228772.417     -398370.946 3   -241621.751 5         6.000          10.000
 90  6 17 19 33 30.1110000  0  3 02 11 09
  22006537.492     3450522.818 7   2688715.384 9        24.000         139.000
  21133871.719    -2683336.777 7  -2090907.859 9        23.000         133.000
  24220277.164     -443022.065 3   -276414.725 6         6.000          14.000
 90  6 17 19 33 45.2150000  0  3 02 11 09
  22012308.861     3480847.103 7   2712344.662 9        25.000         146.000
  21130735.430    -2699821.437 7  -2103753.020 9        24.000         125.000
  24211780.175     -487680.045 3   -311213.042 5         6.000          10.000
 90  6 17 19 34  0.0630000  0  3 02 11 09
  22017985.862     3510686.152 7   2735595.831 9        24.000         135.000
  21127677.644    -2715877.499 7  -2116264.208 9        23.000         132.000
  24203422.879     -531591.403 4   -345429.614 5         7.000           9.000
 90  6 17 19 34 15.1670000  0  3 02 11 09
  22023755.117     3540999.036 7   2759216.215 9        24.000         134.000
  21124587.180    -2732127.437 7  -2128926.473 9        24.000         133.000
  24194910.844     -576339.236 4   -380297.945 6         7.000          17.000
 90  6 17 19 34 30.0150000  0  3 02 11 09
  22029431.465     3570822.207 7   2782455.011 9        24.000         133.000
  21121573.575    -2747955.891 7  -2141260.298 9        24.000         131.000
  24186533.567     -620342.096 3   -414585.787 5         6.000          10.000
 90  6 17 19 34 45.1190000  0  3 02 11 09
  22035203.264     3601158.080 7   2806093.314 9        24.000         131.000
  21118533.932    -2763935.023 7  -2153711.549 9        23.000         130.000
  24178008.272     -665143.679 3   -449496.034 5         6.000           9.000
 90  6 17 19 35  0.2230000  0  3 02 11 09
  22040977.819     3631502.509 7   2829738.279 9        24.000         136.000
  21115518.641    -2779780.806 7  -2166058.887 9        24.000         132.000
  24169479.391     -709975.721 3   -484430.018 5         6.000          11.000
 90  6 17 19 35 15.0710000  0  3 02 11 09
  22046661.012     3661372.432 7   2853013.507 9        24.000         131.000
  21112584.030    -2795197.181 7  -2178071.614 9        24.000         121.000
  24161092.512     -754046.716 3   -518770.940 6         6.000          15.000
 90  6 17 19 35 30.1750000  0  3 02 11 09
  22052435.813     3691720.681 7   2876661.444 9        24.000         128.000
  21109617.486    -2810792.748 7  -2190223.983 9        24.000         124.000
  24152545.306     -798953.429 3   -553763.076 6         6.000          12.000
 90  6 17 19 35 45.0230000  0  3 02 11 09
  22058118.494     3721579.446 7   2899927.970 9        24.000         134.000
  21106728.322    -2825976.858 7  -2202055.735 9        24.000         124.000
  24144141.152     -843111.619 3   -588171.973 6         6.000          14.000
 90  6 17 19 36  0.1270000  0  3 02 11 09
  22063902.775     3751971.133 7   2923609.768 9        24.000         133.000
  21103815.816    -2841280.356 7  -2213980.505 9        24.000         121.000
  24135585.998     -888051.302 3   -623189.800 5         6.000          11.000
 90  6 17 19 36 15.2310000  0  3 02 11 09
  22069688.844     3782377.082 7   2947302.668 9        24.000         132.000
  21100929.247    -2856443.547 7  -2225795.965 9        24.000         123.000
  24127037.944     -933014.734 3   -658226.177 5         6.000          11.000
 90  6 17 19 36 30.0790000  0  3 02 11 09
  22075381.331     3812286.690 7   2970608.815 9        24.000         133.000
  21098119.792    -2871209.193 7  -2237301.638 9        24.000         122.000
  24118618.253     -977235.176 3   -692683.542 6         6.000          16.000
 90  6 17 19 36 45.1830000  0  3 02 11 09
  22081163.008     3842677.468 7   2994289.898 9        24.000         124.000
  21095277.730    -2886140.455 7  -2248936.360 9        24.000         122.000
  24110046.908    -1022291.556 3   -727792.308 5         6.000          10.000
 90  6 17 19 37  0.0310000  0  3 02 11 09
  22086851.961     3872575.842 7   3017587.285 9        24.000         132.000
  21092512.721    -2900674.976 7  -2260261.943 9        23.000         126.000
  24101614.265    -1066600.641 3   -762318.764 6         6.000          14.000
 90  6 17 19 37 15.1350000  0  3 02 11 09
  22092647.049     3903024.213 7   3041313.241 9        24.000         125.000
  21089731.225    -2915301.493 7  -2271659.215 9        24.000         123.000
  24093038.762    -1111677.640 4   -797443.632 6         7.000          16.000
 90  6 17 19 37 30.2390000  0  3 02 11 09
  22098448.941     3933514.529 7   3065071.881 9        23.000         122.000
  21086977.657    -2929760.327 7  -2282925.817 9        24.000         115.000
  24084462.329    -1156750.923 4   -832565.574 5         7.000           8.000
 90  6 17 19 37 45.0870000  0  3 02 11 09
  22104180.531     3963628.503 7   3088537.270 9        23.000         129.000
  21084324.085    -2943710.761 7  -2293796.264 9        24.000         118.000
  24076047.439    -1200956.744 4   -867011.565 5         7.000           9.000
 90  6 17 19 38  0.1910000  0  3 02 11 09
  22110034.284     3994392.626 7   3112509.260 9        23.000         124.000
  21081671.453    -2957645.714 7  -2304654.655 9        23.000         118.000
  24067506.933    -1245831.395 4   -901978.726 6         7.000          12.000
 90  6 17 19 38 15.0390000  0  3 02 11 09
  22115799.809     4024689.557 7   3136117.209 9        23.000         125.000
  21079098.213    -2971166.408 7  -2315190.238 9        23.000         119.000
  24059114.936    -1289927.312 4   -936339.098 5         7.000          10.000
 90  6 17 19 38 30.1430000  0  3 02 11 09
  22121672.022     4055546.907 7   3160161.845 9        23.000         126.000
  21076512.573    -2984755.722 7  -2325779.304 9        23.000         115.000
  24050579.436    -1334781.612 4   -971290.402 6         7.000          18.000
 90  6 17 19 38 45.2470000  0  3 02 11 09
  22127536.156     4086372.938 7   3184182.072 9        22.000         125.000
  21073945.361    -2998247.480 7  -2336292.341 9        23.000         122.000
  24042033.424    -1379702.482 4  -1006293.601 5         7.000           9.000
 90  6 17 19 39  0.0950000  0  3 02 11 09
  22133309.036     4116700.954 7   3207814.245 9        22.000         117.000
  21071450.103    -3011359.440 7  -2346509.435 9        24.000         124.000
  24033624.112    -1423870.874 4  -1040710.430 6         7.000          15.000
 90  6 17 19 39 15.1990000  0  3 02 11 09
  22139187.122     4147598.346 7   3231890.088 9        22.000         118.000
  21068945.009    -3024522.797 7  -2356766.573 9        24.000         119.000
  24025078.387    -1468788.636 4  -1075711.182 6         7.000          13.000
 90  6 17 19 39 30.0470000  0  3 02 11 09
  22144973.374     4177999.195 7   3255579.005 9        22.000         125.000
  21066511.881    -3037309.313 7  -2366730.077 9        24.000         126.000
  24016676.133    -1512951.123 4  -1110123.431 6         7.000          12.000
 90  6 17 19 39 45.1510000  0  3 02 11 09
  22150862.840     4208947.564 7   3279694.562 9        22.000         124.000
  21064066.985    -3050164.627 7  -2376747.183 9        24.000         121.000
  24008123.114    -1557885.991 4  -1145137.523 5         7.000          11.000
 90  6 17 19 40  0.2550000  0  3 02 11 09
  22156755.452     4239914.084 7   3303824.273 9        22.000         118.000
  21061648.577    -3062872.487 7  -2386649.398 9        24.000         128.000
  23999573.312    -1602837.296 4  -1180164.446 1         7.000           1.000
 90  6 17 19 40 15.1030000  0  3 02 11 09
  22162542.359     4270322.742 7   3327519.279 9        22.000         116.000
  21059287.884    -3075271.226 7  -2396310.742 9        24.000         128.000
  23991151.037    -1647092.877 5  -1214649.242 5         8.000          10.000
 90  6 17 19 40 30.2070000  0  3 02 11 09
  22168432.336     4301277.431 7   3351639.765 9        22.000         127.000
  21056916.783    -3087732.920 7  -2406021.129 9        24.000         128.000
  23982583.263    -1692123.146 5  -1249737.682 5         8.000           7.000
 90  6 17 19 40 45.0550000  0  3 02 11 09
  22174228.568     4331731.391 7   3375370.078 9        22.000         122.000
  21054614.265    -3099832.980 7  -2415449.741 9        24.000         126.000
  23974153.163    -1736399.410 5  -1284238.572 5         8.000          11.000
 90  6 17 19 41  0.1590000  0  3 02 11 09
  22180125.941     4362726.492 7   3399522.054 9        22.000         116.000
  21052299.204    -3111998.287 7  -2424929.194 9        24.000         128.000
  23965580.694    -1781458.160 5  -1319349.229 4         8.000           4.000
 90  6 17 19 41 15.0070000  0  3 02 11 09
  22185927.079     4393212.889 7   3423277.631 9        22.000         117.000
  21050049.877    -3123816.641 7  -2434138.288 9        24.000         130.000
  23957147.632    -1825772.218 5  -1353879.569 5         8.000           9.000
 90  6 17 19 41 30.1110000  0  3 02 11 09
  22191832.695     4424243.445 7   3447457.238 9        22.000         118.000
  21047789.927    -3135692.828 7  -2443392.443 9        24.000         130.000
  23948565.673    -1870866.946 5  -1389018.209 6         8.000          14.000
 90  6 17 19 41 45.2150000  0  3 02 11 09
  22197739.517     4455288.803 7   3471648.374 9        22.000         123.000
  21045557.128    -3147425.251 7  -2452534.576 9        24.000         131.000
  23939982.836    -1915981.744 5  -1424172.528 6         8.000          13.000
 90  6 17 19 42  0.0630000  0  3 02 11 09
  22203551.328     4485822.528 7   3495440.837 9        22.000         115.000
  21043390.197    -3158818.688 7  -2461412.568 9        24.000         126.000
  23931539.456    -1960351.301 5  -1458746.103 6         8.000          16.000
 90  6 17 19 42 15.1670000  0  3 02 11 09
  22209464.238     4516899.829 7   3519656.867 9        22.000         114.000
  21041211.886    -3170264.022 7  -2470331.002 9        23.000         126.000
  23922943.809    -2005503.799 5  -1493929.760 6         8.000          13.000
 90  6 17 19 42 30.0150000  0  3 02 11 09
  22215280.185     4547461.919 7   3543471.435 9        22.000         114.000
  21039095.530    -3181378.711 7  -2478991.785 9        23.000         128.000
  23914491.788    -2049913.826 5  -1528534.921 6         8.000          14.000
 90  6 17 19 42 45.1190000  0  3 02 11 09
  22221195.741     4578554.702 7   3567699.519 9        22.000         117.000
  21036969.889    -3192554.730 7  -2487700.357 9        24.000         133.000
  23905890.992    -2095121.544 5  -1563761.636 6         8.000          17.000
 90  6 17 19 43  0.2230000  0  3 02 11 09
  22227117.089     4609662.727 7   3591939.502 9        23.000         114.000
  21034869.908    -3203588.364 7  -2496297.982 9        24.000         130.000
  23897284.997    -2140350.506 5  -1599004.876 6         8.000          17.000
 90  6 17 19 43 15.0710000  0  3 02 11 09
  22232938.359     4640255.141 7   3615777.689 9        23.000         119.000
  21032832.229    -3214298.285 7  -2504643.372 9        23.000         131.000
  23888816.488    -2184835.582 4  -1633668.483 5         7.000          11.000
 90  6 17 19 43 30.1750000  0  3 02 11 09
  22238861.913     4671391.174 7   3640039.485 9        23.000         115.000
  21030786.327    -3225047.768 7  -2513019.580 9        24.000         131.000
  23880206.642    -2230104.618 4  -1668942.951 6         7.000          20.000
 90  6 17 19 43 45.0230000  0  3 02 11 09
  22244689.189     4702010.239 7   3663898.450 9        22.000         108.000
  21028800.766    -3235477.604 7  -2521146.716 9        24.000         136.000
  23871731.442    -2274628.366 4  -1703636.656 6         7.000          18.000
 90  6 17 19 44  0.1270000  0  3 02 11 09
  22250618.739     4733170.600 7   3688179.206 9        23.000         106.000
  21026811.007    -3245945.634 7  -2529303.613 9        24.000         139.000
  23863112.739    -2319940.083 4  -1738944.396 5         7.000           9.000
 90  6 17 19 44 15.2310000  0  3 02 11 09
  22256551.620     4764340.963 7   3712467.757 9        23.000         108.000
  21024844.814    -3256273.883 7  -2537351.589 9        24.000         135.000
  23854479.388    -2365275.389 4  -1774270.494 6         7.000          15.000
 90  6 17 19 44 30.0790000  0  3 02 11 09
  22262383.902     4794995.027 7   3736353.990 9        22.000         109.000
  21022937.890    -3266288.031 7  -2545154.814 9        23.000         133.000
  23845999.969    -2409862.514 4  -1809013.661 6         7.000          12.000
 90  6 17 19 44 45.1830000  0  3 02 11 09
  22268320.797     4826187.468 7   3760659.742 9        23.000         102.000
  21021026.521    -3276335.837 7  -2552984.260 9        24.000         134.000
  23837362.614    -2455241.178 4  -1844373.540 6         7.000          13.000
 90  6 17 19 45  0.0310000  0  3 02 11 09
  22274155.959     4856854.075 7   3784555.752 9        22.000         106.000
  21019172.327    -3286082.245 7  -2560578.859 9        24.000         130.000
  23828866.891    -2499878.716 4  -1879155.928 5         7.000          11.000
 90  6 17 19 45 15.1350000  0  3 02 11 09
  22280092.190     4888051.186 7   3808865.142 9        23.000         103.000
  21017309.972    -3295863.385 7  -2568200.514 9        24.000         133.000
  23820221.793    -2545314.091 4  -1914560.029 6         7.000          15.000
 90  6 17 19 45 30.2390000  0  3 02 11 09
  22286030.934     4919254.589 7   3833179.431 9        23.000         101.000
  21015475.922    -3305504.679 7  -2575713.212 9        24.000         123.000
  23811570.166    -2590772.609 4  -1949982.123 6         7.000          17.000
 90  6 17 19 45 45.0870000  0  3 02 11 09
  22291869.447     4949937.905 7   3857088.458 9        22.000          98.000
  21013698.567    -3314843.859 7  -2582990.487 9        24.000         121.000
  23803063.800    -2635480.712 4  -1984819.543 6         7.000          15.000
 90  6 17 19 46  0.1910000  0  3 02 11 09
  22297811.470     4981160.885 7   3881418.005 9        22.000         100.000
  21011918.463    -3324201.740 7  -2590282.336 9        23.000         126.000
  23794404.747    -2680978.749 4  -2020272.439 6         7.000          17.000
 90  6 17 19 46 15.0390000  0  3 02 11 09
  22303655.397     5011867.269 7   3905345.010 9        22.000         100.000
  21010195.575    -3333257.575 7  -2597338.820 9        23.000         124.000
  23785893.334    -2725720.900 5  -2055136.379 6         8.000          14.000
 90  6 17 19 46 30.1430000  0  3 02 11 09
  22309599.422     5043106.743 7   3929687.409 9        22.000          97.000
  21008468.662    -3342331.534 7  -2604409.429 9        23.000         119.000
  23777228.142    -2771257.912 5  -2090619.697 6         8.000          17.000
 90  6 17 19 46 45.2470000  0  3 02 11 09
  22315545.613     5074352.645 7   3954034.812 9        22.000         100.000
  21006767.880    -3351263.517 7  -2611369.402 9        23.000         120.000
  23768557.454    -2816815.724 5  -2126119.184 6         8.000          12.000
 90  6 17 19 47  0.0950000  0  3 02 11 09
  22321392.646     5105073.880 7   3977973.388 9        22.000          95.000
  21005124.220    -3359906.531 7  -2618104.200 9        23.000         119.000
  23760031.566    -2861622.122 5  -2161033.168 6         8.000          19.000
 90  6 17 19 47 15.1990000  0  3 02 11 09
  22327340.195     5136331.385 7   4002329.842 9        22.000          87.000
  21003479.866    -3368555.958 7  -2624844.005 9        24.000         122.000
  23751353.493    -2907219.734 5  -2196563.686 6         8.000          12.000
 90  6 17 19 47 30.0470000  0  3 02 11 09
  22333189.056     5167063.159 7   4026276.634 9        21.000          87.000
  21001886.690    -3376922.030 7  -2631363.014 9        23.000         129.000
  23742821.149    -2952065.993 4  -2231508.717 6         7.000          13.000
 90  6 17 19 47 45.1510000  0  3 02 11 09
  22339138.342     5198330.044 7   4050640.387 9        21.000          88.000
  21000293.371    -3385294.325 7  -2637886.866 9        23.000         127.000
  23734132.360    -2997708.265 4  -2267074.059 5         7.000           8.000
 90  6 17 19 48  0.2550000  0  3 02 11 09
  22345089.528     5229604.620 7   4075010.135 9        22.000          93.000
  20998727.204    -3393526.968 7  -2644301.902 9        23.000         126.000
  23725444.316    -3043373.130 4  -2302656.940 6         7.000          13.000
 90  6 17 19 48 15.1030000  0  3 02 11 09
  22350943.547     5260361.044 7   4098976.124 9        21.000          91.000
  20997214.431    -3401479.804 7  -2650498.899 9        23.000         122.000
  23716897.150    -3088281.822 4  -2337650.636 5         7.000           8.000
 90  6 17 19 48 30.2070000  0  3 02 11 09
  22356898.053     5291653.760 7   4123360.006 9        21.000          91.000
  20995699.125    -3409432.894 7  -2656696.106 9        23.000         125.000
  23708197.338    -3133988.606 4  -2373266.224 5         7.000           9.000
 90  6 17 19 48 45.0550000  0  3 02 11 09
  22362755.025     5322430.641 7   4147341.941 9        21.000          89.000
  20994239.758    -3417109.669 7  -2662677.994 9        23.000         136.000
  23699647.588    -3178936.780 4  -2408290.714 6         7.000          16.000
 90  6 17 19 49  0.1590000  0  3 02 11 09
  22368714.301     5353749.941 7   4171746.538 9        21.000          85.000
  20992780.104    -3424779.202 7  -2668654.243 9        23.000         128.000
  23690943.782    -3224680.828 4  -2443935.320 6         7.000          21.000
 90  6 17 19 49 15.0070000  0  3 02 11 09
  22374576.319     5384548.790 7   4195745.582 9        21.000          90.000
  20991371.414    -3432182.942 7  -2674423.381 9        24.000         124.000
  23682383.290    -3269671.218 5  -2478992.683 6         8.000          18.000
 90  6 17 19 49 30.1110000  0  3 02 11 09
  22380539.304     5415889.748 7   4220167.056 9        20.000          87.000
  20989965.757    -3439575.790 7  -2680184.020 9        24.000         131.000
  23673669.004    -3315459.039 5  -2514671.431 6         8.000          15.000
 90  6 17 19 49 45.2150000  0  3 02 11 09
  22386506.384     5447244.332 7   4244599.148 9        21.000          84.000
  20988584.219    -3446826.930 7  -2685834.250 9        23.000         127.000
  23664951.050    -3361266.563 5  -2550365.519 6         8.000          15.000
 90  6 17 19 50  0.0630000  0  3 02 11 09
  22392373.949     5478080.966 7   4268627.644 9        21.000          82.000
  20987254.850    -3453815.887 7  -2691280.179 9        24.000         126.000
  23656376.528    -3406315.544 5  -2585468.530 6         8.000          17.000
 90  6 17 19 50 15.1670000  0  3 02 11 09
  22398346.025     5509459.139 7   4293078.124 9        21.000          86.000
  20985928.545    -3460784.538 7  -2696710.281 9        24.000         123.000
  23647653.150    -3452160.197 5  -2621191.567 6         8.000          16.000
 90  6 17 19 50 30.0150000  0  3 02 11 09
  22404216.654     5540310.166 7   4317117.835 9        21.000          90.000
  20984651.450    -3467499.048 7  -2701942.350 9        24.000         125.000
  23639076.187    -3497249.081 5  -2656325.666 6         8.000          13.000
 90  6 17 19 50 45.1190000  0  3 02 11 09
  22410190.150     5571700.898 7   4341578.083 9        20.000         100.000
  20983378.353    -3474187.131 7  -2707153.837 9        24.000         127.000
  23630344.279    -3543132.602 5  -2692078.958 6         9.000          16.000
 90  6 17 19 51  0.2230000  0  3 02 11 09
  22416165.873     5603097.457 7   4366042.877 9        21.000         101.000
  20982132.787    -3480732.918 7  -2712254.446 9        24.000         131.000
  23621605.875    -3589034.708 5  -2727846.753 6         8.000          23.000
 90  6 17 19 51 15.0710000  0  3 02 11 09
  22422038.811     5633967.490 7   4390097.398 9        21.000          87.000
  20980935.549    -3487027.863 7  -2717159.590 9        24.000         123.000
  23613019.993    -3634175.460 5  -2763021.254 7         8.000          26.000
 90  6 17 19 51 30.1750000  0  3 02 11 09
  22428015.667     5665369.804 7   4414566.688 9        21.000          88.000
  20979742.816    -3493294.264 7  -2722042.493 9        24.000         128.000
  23604275.991    -3680116.656 5  -2798819.494 6         8.000          25.000
 90  6 17 19 51 45.0230000  0  3 02 11 09
  22433890.311     5696247.659 7   4438627.306 9        21.000          96.000
  20978596.398    -3499312.443 7  -2726731.961 9        23.000         124.000
  23595678.791    -3725293.634 5  -2834022.249 6         9.000          20.000
 90  6 17 19 52  0.1270000  0  3 02 11 09
  22439869.466     5727662.737 7   4463106.523 9        21.000          96.000
  20977459.501    -3505292.123 7  -2731391.459 9        24.000         123.000
  23586930.662    -3771266.058 5  -2869844.813 6         9.000          19.000
 90  6 17 19 52 15.2310000  0  3 02 11 09
  22445847.783     5759082.496 7   4487589.397 9        21.000          96.000
  20976348.192    -3511127.173 7  -2735938.249 9        23.000         127.000
  23578180.306    -3817254.195 5  -2905679.620 6         8.000          17.000
 90  6 17 19 52 30.0790000  0  3 02 11 09
  22451725.931     5789967.991 7   4511655.960 9        21.000          98.000
  20975283.864    -3516728.204 7  -2740302.677 9        24.000         122.000
  23569574.208    -3862483.687 5  -2940923.282 6         8.000          12.000
 90  6 17 19 52 45.1830000  0  3 02 11 09
  22457705.321     5821387.957 7   4536138.999 9        21.000          98.000
  20974225.480    -3522285.916 7  -2744633.353 9        24.000         122.000
  23560812.003    -3908511.780 5  -2976789.224 6         8.000          16.000
 90  6 17 19 53  0.0310000  0  3 02 11 09
  22463583.407     5852280.995 7   4560211.441 9        21.000          91.000
  20973213.085    -3527610.406 7  -2748782.300 9        24.000         123.000
  23552199.705    -3953776.517 5  -3012060.373 6         9.000          18.000
 90  6 17 19 53 15.1350000  0  3 02 11 09
  22469563.574     5883712.733 7   4584703.652 9        21.000          94.000
  20972208.995    -3532886.220 7  -2752893.326 9        24.000         122.000
  23543433.985    -3999839.541 5  -3047953.530 6         9.000          17.000
 90  6 17 19 53 30.2390000  0  3 02 11 09
  22475546.018     5915151.574 7   4609201.401 9        21.000          94.000
  20971229.983    -3538019.609 7  -2756893.363 9        23.000         129.000
  23534666.682    -4045919.563 5  -3083859.945 6         9.000          19.000
 90  6 17 19 53 45.0870000  0  3 02 11 09
  22481430.519     5946065.748 7   4633290.315 9        21.000          88.000
  20970297.849    -3542926.421 7  -2760716.851 9        24.000         122.000
  23526042.176    -4091234.267 5  -3119170.002 6         8.000          19.000
 90  6 17 19 54  0.1910000  0  3 02 11 09
  22487415.454     5977521.176 7   4657800.971 9        21.000          89.000
  20969374.356    -3547775.679 7  -2764495.488 9        23.000         127.000
  23517266.640    -4137345.898 5  -3155101.025 6         8.000          17.000
 90  6 17 19 54 15.0390000  0  3 02 11 09
  22493300.998     6008450.411 7   4681901.620 9        21.000          95.000
  20968494.636    -3552404.274 7  -2768102.179 9        24.000         128.000
  23508638.999    -4182692.446 5  -3190435.903 6         8.000          20.000
 90  6 17 19 54 30.1430000  0  3 02 11 09
  22499290.245     6039917.801 7   4706421.611 9        21.000          94.000
  20967623.823    -3556974.961 7  -2771663.745 9        23.000         122.000
  23499855.402    -4228840.688 5  -3226395.484 6         8.000          13.000
 90  6 17 19 54 45.2470000  0  3 02 11 09
  22505280.565     6071395.920 7   4730949.958 9        21.000          88.000
  20966781.306    -3561401.673 7  -2775113.129 9        23.000         124.000
  23491070.396    -4275003.814 5  -3262366.655 7         8.000          28.000
 90  6 17 19 55  0.0950000  0  3 02 11 09
  22511168.816     6102350.999 7   4755070.736 9        20.000          81.000
  20965980.621    -3565614.275 7  -2778395.677 9        24.000         131.000
  23482432.315    -4320399.941 5  -3297740.171 6         8.000          22.000
 90  6 17 19 55 15.1990000  0  3 02 11 09
  22517163.600     6133848.623 7   4779614.296 9        20.000          84.000
  20965191.601    -3569759.033 7  -2781625.357 9        23.000         129.000
  23473642.405    -4366595.134 5  -3333736.335 6         8.000          24.000
 90  6 17 19 55 30.0470000  0  3 02 11 09
  22523056.897     6164817.196 7   4803745.585 9        20.000          76.000
  20964440.336    -3573697.930 7  -2784694.622 9        23.000         137.000
  23464995.754    -4412025.994 5  -3369136.927 6         8.000          23.000
 90  6 17 19 55 45.1510000  0  3 02 11 09
  22529052.334     6196326.596 7   4828298.318 9        20.000          76.000
  20963706.733    -3577563.897 7  -2787707.062 9        24.000         127.000
  23456201.022    -4458256.071 5  -3405160.290 7         9.000          28.000
 90  6 17 19 56  0.2550000  0  3 02 11 09
  22535051.143     6227845.198 7   4852858.224 9        20.000          83.000
  20962998.566    -3581285.271 7  -2790606.833 9        23.000         132.000
  23447399.182    -4504499.211 5  -3441193.803 7         9.000          33.000
 90  6 17 19 56 15.1030000  0  3 02 11 09
  22540947.525     6258829.574 7   4877001.837 9        21.000          80.000
  20962326.846    -3584810.644 7  -2793353.881 9        23.000         125.000
  23438745.686    -4549979.362 5  -3476632.814 7         9.000          33.000
 90  6 17 19 56 30.2070000  0  3 02 11 09
  22546946.344     6290353.580 7   4901565.933 9        20.000          76.000
  20961672.860    -3588256.248 7  -2796038.758 9        24.000         126.000
  23429939.473    -4596259.275 5  -3512695.002 7         9.000          28.000
 90  6 17 19 56 45.0550000  0  3 02 11 09
  22552843.135     6321345.069 7   4925715.089 9        20.000          71.000
  20961053.637    -3591507.678 7  -2798572.340 9        24.000         129.000
  23421276.967    -4641772.322 5  -3548159.631 6         9.000          20.000
 90  6 17 19 57  0.1590000  0  3 02 11 09
  22558844.518     6352877.344 6   4950285.638 9        19.000          71.000
  20960450.093    -3594673.520 7  -2801039.225 9        24.000         129.000
  23412467.404    -4688084.193 5  -3584246.757 6        10.000          21.000
 90  6 17 19 57 15.0070000  0  3 02 11 09
  22564743.606     6383880.512 6   4974443.899 9        19.000          75.000
  20959884.417    -3597646.595 7  -2803355.908 9        23.000         131.000
  23403797.829    -4733625.095 5  -3619733.092 6         9.000          24.000
 90  6 17 19 57 30.1110000  0  3 02 11 09
  22570746.113     6415421.594 6   4999021.305 9        19.000          73.000
  20959336.618    -3600530.269 7  -2805602.926 9        23.000         124.000
  23394978.642    -4779965.859 5  -3655842.695 6         9.000          18.000
 90  6 17 19 57 45.2150000  0  3 02 11 09
  22576749.744     6446970.079 6   5023604.499 9        19.000          76.000
  20958815.694    -3603269.579 7  -2807737.452 9        24.000         137.000
  23386160.886    -4826318.726 5  -3691961.718 6         9.000          23.000
 90  6 17 19 58  0.0630000  0  3 02 11 09
  22582652.122     6477985.140 6   5047772.028 9        19.000          70.000
  20958328.185    -3605827.717 7  -2809730.804 9        24.000         127.000
  23377483.734    -4871903.724 5  -3727482.435 6         9.000          17.000
 90  6 17 19 58 15.1670000  0  3 02 11 09
  22588655.681     6509545.140 6   5072364.166 9        18.000          79.000
  20957860.656    -3608284.201 7  -2811644.950 9        24.000         133.000
  23368658.930    -4918283.691 5  -3763622.576 6         9.000          22.000
 90  6 17 19 58 30.0150000  0  3 02 11 09
  22594562.829     6540577.633 6   5096545.279 9        18.000          77.000
  20957427.420    -3610558.977 7  -2813417.500 9        24.000         135.000
  23359980.018    -4963889.581 5  -3799159.565 6        10.000          19.000
 90  6 17 19 58 45.1190000  0  3 02 11 09
  22600571.690     6572152.788 6   5121149.247 9        18.000          74.000
  20957014.358    -3612730.982 7  -2815109.971 9        24.000         132.000
  23351151.506    -5010294.070 5  -3835318.849 6        10.000          17.000
 90  6 17 19 59  0.2230000  0  3 02 11 09
  22606579.478     6603731.428 6   5145755.916 9        18.000          77.000
  20956626.712    -3614764.088 7  -2816694.210 9        24.000         137.000
  23342316.435    -5056715.214 5  -3871491.089 6         9.000          23.000
 90  6 17 19 59 15.0710000  0  3 02 11 09
  22612490.661     6634789.857 6   5169957.238 9        18.000          76.000
  20956275.963    -3616615.670 7  -2818137.000 9        24.000         128.000
  23333633.172    -5102353.844 5  -3907053.576 6        10.000          15.000
 90  6 17 19 59 30.1750000  0  3 02 11 09
  22618505.456     6666396.281 6   5194585.555 9        18.000          77.000
  20955944.235    -3618351.417 7  -2819489.527 9        24.000         137.000
  23324796.528    -5148785.404 5  -3943233.911 6        10.000          24.000
 90  6 17 19 59 45.0230000  0  3 02 11 09
  22624418.775     6697474.142 6   5218802.017 9        18.000          74.000
  20955646.533    -3619918.855 7  -2820710.904 9        24.000         137.000
  23316107.238    -5194442.107 5  -3978810.502 6         9.000          22.000
 90  6 17 20  0  0.1270000  0  3 02 11 09
  22630436.226     6729090.379 6   5243437.984 9        18.000          73.000
  20955369.660    -3621376.871 7  -2821847.020 9        24.000         136.000
  23307265.558    -5240902.897 5  -4015013.627 6         9.000          20.000
 90  6 17 20  0 15.2310000  0  3 02 11 09
  22636453.177     6760712.084 6   5268078.216 9        18.000          84.000
  20955119.315    -3622692.914 7  -2822872.513 9        23.000         140.000
  23298423.531    -5287376.260 5  -4051226.540 6        10.000          23.000
 90  6 17 20  0 30.0790000  0  3 02 11 09
  22642369.867     6791807.585 6   5292308.413 9        18.000          73.000
  20954900.679    -3623843.705 7  -2823769.229 9        23.000         134.000
  23289725.170    -5333069.249 5  -4086831.378 6         9.000          22.000
 90  6 17 20  0 45.1830000  0  3 02 11 09
  22648390.873     6823447.717 6   5316963.002 9        18.000          77.000
  20954703.137    -3624869.664 7  -2824568.673 9        23.000         135.000
  23280880.517    -5379558.060 5  -4123056.358 6         9.000          21.000
 90  6 17 20  1  0.0310000  0  3 02 11 09
  22654312.272     6854556.224 6   5341203.341 9        18.000          82.000
  20954539.876    -3625739.958 7  -2825246.824 9        23.000         144.000
  23272184.342    -5425270.542 5  -4158676.372 6        10.000          13.000
 90  6 17 20  1 15.1350000  0  3 02 11 09
  22660333.799     6886205.143 6   5365864.778 9        18.000          75.000
  20954398.324    -3626485.673 7  -2825827.901 9        24.000         138.000
  23263330.700    -5471783.758 5  -4194920.352 6         9.000          23.000
 90  6 17 20  1 30.2390000  0  3 02 11 09
  22666357.042     6917858.818 6   5390529.917 9        18.000          80.000
  20954283.616    -3627090.162 7  -2826298.923 9        24.000         136.000
  23254479.193    -5518309.050 5  -4231173.725 7        10.000          27.000
 90  6 17 20  1 45.0870000  0  3 02 11 09
  22672279.279     6948983.994 6   5414783.255 9        18.000          82.000
  20954194.988    -3627542.729 7  -2826651.576 9        24.000         138.000
  23245773.252    -5564053.540 5  -4266818.682 6         9.000          20.000
 90  6 17 20  2  0.1910000  0  3 02 11 09
  22678306.496     6980650.733 6   5439458.573 9        18.000          87.000
  20954136.892    -3627861.716 7  -2826900.133 9        24.000         134.000
  23236917.363    -5610596.794 5  -4303086.086 6         9.000          19.000
 90  6 17 20  2 15.0390000  0  3 02 11 09
  22684229.396     7011783.561 6   5463717.859 9        18.000          90.000
  20954103.518    -3628036.969 7                        24.000
  23228206.151    -5656361.766 5  -4338747.032 6         9.000          22.000
 90  6 17 20  2 30.1430000  0  3 02 11 09
  22690258.012     7043456.160 6   5488397.745 9        18.000          81.000
  20954096.611    -3628075.518 7                        24.000
  23219346.186    -5702927.168 5  -4375031.665 7         9.000          26.000
 90  6 17 20  2 45.2470000  0  3 02 11 09
  22696284.882     7075134.890 6   5513082.406 9        18.000          77.000
  20954112.382    -3627970.520 7                        24.000
  23210478.948    -5749501.191 5  -4411323.018 6         9.000          22.000
 90  6 17 20  3  0.0950000  0  3 02 11 09
  22702212.992     7106281.667 6   5537352.559 9        18.000          83.000
  20954160.810    -3627728.662 7                        25.000
  23201769.094    -5795295.326 5  -4447006.690 7         9.000          27.000
 90  6 17 20  3 15.1990000  0  3 02 11 09
  22708244.918     7137974.543 6   5562048.243 9        18.000          88.000
  20954234.470    -3627337.423 7                        24.000
  23192903.317    -5841884.100 5  -4483309.551 7        10.000          30.000
 90  6 17 20  3 30.0470000  0  3 02 11 09
  22714174.387     7169137.999 6   5586331.389 9        17.000          78.000
  20954333.882    -3626810.043 7  -2826080.62819        24.000         131.000
  23184187.590    -5887688.047 5  -4519000.851 6        10.000          24.000
 90  6 17 20  3 45.1510000  0  3 02 11 09
  22720208.652     7200849.046 6   5611041.217 9        18.000          78.000
  20954466.708    -3626125.135 7  -2825546.935 9        24.000         136.000
  23175320.556    -5934283.152 5  -4555308.628 7        10.000          29.000
 90  6 17 20  4  0.2550000  0  3 02 11 09
  22726243.960     7232563.910 6   5635754.049 9        18.000          74.000
  20954623.815    -3625297.602 7  -2824902.103 9        24.000         140.000
  23166452.827    -5980886.693 5  -4591622.982 6        10.000          22.000
 90  6 17 20  4 15.1030000  0  3 02 11 09
  22732177.565     7263745.881 6   5660051.633 9        18.000          76.000
  20954803.917    -3624345.624 7  -2824160.292 9        24.000         137.000
  23157728.151    -6026708.709 5  -4627328.381 6         9.000          23.000
 90  6 17 20  4 30.2070000  0  3 02 11 09
  22738216.612     7295468.713 6   5684770.655 9        18.000          82.000
  20955016.309    -3623239.045 7  -2823298.025 9        24.000         141.000
  23148860.259    -6073331.619 5  -4663657.846 6         9.000          23.000
 90  6 17 20  4 45.0550000  0  3 02 11 09
  22744150.605     7326667.175 6   5709081.089 9        17.000          78.000
  20955249.632    -3622005.521 7  -2822336.835 9        24.000         138.000
  23140136.901    -6119165.027 5  -4699372.093 7        10.000          29.000
 90  6 17 20  5  0.1590000  0  3 02 11 09
  22750192.113     7358412.984 6   5733818.024 9        17.000          73.000
  20955516.276    -3620605.733 7  -2821246.090 9        24.000         133.000
  23131264.698    -6165792.129 5  -4735704.824 6        10.000          25.000
 90  6 17 20  5 15.0070000  0  3 02 11 09
  22756132.788     7389630.401 6   5758143.227 9        17.000          73.000
  20955803.872    -3619088.200 7  -2820063.599 9        23.000         132.000
  23122541.300    -6211633.389 5  -4771425.196 6        10.000          16.000
 90  6 17 20  5 30.1110000  0  3 02 11 09
  22762177.769     7421395.492 6   5782895.182 9        17.000          76.000
  20956126.802    -3617401.230 7  -2818749.077 9        23.000         132.000
  23113667.636    -6258269.809 5  -4807765.179 7        10.000          27.000
 90  6 17 20  5 45.2150000  0  3 02 11 09
  22768223.966     7453167.857 6   5807652.805 9        17.000          79.000
  20956473.482    -3615573.297 7  -2817324.721 9        23.000         134.000
  23104792.991    -6304914.282 5  -4844111.437 7        10.000          32.000
 90  6 17 20  6  0.0630000  0  3 02 11 09
  22774170.299     7484411.547 6   5831998.470 9        17.000          74.000
  20956842.278    -3613636.825 7  -2815815.780 9        23.000         132.000
  23096062.912    -6350773.709 5  -4879845.993 7        10.000          32.000
 90  6 17 20  6 15.1670000  0  4 02 11 09 13
  22780219.397     7516203.834 6   5856771.623 9        17.000          71.000
  20957243.486    -3611525.580 7  -2814170.660 9        23.000         141.000
  23087183.293    -6397429.688 5  -4916201.233 7        10.000          27.000
  24434554.235                                           0.454 3         6.000
 90  6 17 20  6 30.0150000  0  4 02 11 09 13
  22786167.510     7547467.691 6   5881133.007 9        17.000          77.000
  20957667.465    -3609308.046 7  -2812442.713 9        24.000         134.000
  23078456.876    -6443297.079 5  -4951941.975 6        10.000          22.000
  24422536.047      -63174.229 4                                         7.000
 90  6 17 20  6 45.1190000  0  4 02 11 09 13
  22792222.972     7579278.101 6   5905920.285 9        18.000          75.000
  20958121.833    -3606909.242 7  -2810573.523 9        23.000         141.000
  23069577.553    -6489959.144 5  -4988301.965 7        11.000          28.000
  24410309.561     -127427.291 4                                         7.000
 90  6 17 20  7  0.2230000  0  4 02 11 09 13
  22798276.085     7611092.836 6   5930710.929 9        18.000          72.000
  20958606.295    -3604368.785 7  -2808593.946 9        23.000         134.000
  23060698.077    -6536627.235 5  -5024666.599 7        11.000          32.000
  24398084.341     -191671.817 3                                         6.000
 90  6 17 20  7 15.0710000  0  4 02 11 09 13
  22804228.864     7642376.252 6   5955087.558 9        17.000          71.000
  20959108.848    -3601729.738 7  -2806537.550 9        24.000         134.000
  23051966.026    -6582506.375 5  -5060416.488 7        10.000          26.000
  24386066.480     -254814.969 3                                         6.000
 90  6 17 20  7 30.1750000  0  4 02 11 09 13
  22810286.267     7674203.141 6   5979887.682 9        17.000          62.000
  20959646.214    -3598904.726 7  -2804336.240 9        24.000         137.000
  23043084.956    -6629181.886 5  -5096786.939 7        11.000          33.000
  24373845.520     -319037.161 4                                         7.000
 90  6 17 20  7 45.0230000  0  4 02 11 09 13
  22816240.988     7705494.290 6   6004270.333 9        17.000          78.000
  20960199.986    -3595989.140 7  -2802064.356 9        23.000         132.000
  23034351.250    -6675071.018 5  -5132544.628 7        11.000          30.000
  24361833.215     -382160.309 3                                         6.000
 90  6 17 20  8  0.1270000  0  4 02 11 09 13
  22822298.493     7737329.381 6   6029076.840 9        17.000          72.000
  20960791.360    -3592881.891 7  -2799643.127 9        24.000         135.000
  23025468.863    -6721754.947 6  -5168921.623 7        12.000          32.000
  24349620.050     -446360.167 3                                         6.000
 90  6 17 20  8 15.2310000  0  4 02 11 09 13
  22828357.193     7769168.666 6   6053886.614 9        17.000          64.000
  20961409.610    -3589632.244 7  -2797110.929 9        24.000         137.000
  23016583.380    -6768442.693 6  -5205301.604 7        12.000          35.000
  24337402.614     -510548.165 3         0.00516         6.000          13.000
 90  6 17 20  8 30.0790000  0  4 02 11 09 13
  22834314.957     7800472.500 6   6078279.158 9        17.000          65.000
  20962045.951    -3586298.520 7  -2794513.226 9        24.000         128.000
  23007849.245    -6814342.120 6  -5241067.304 7        12.000          31.000
  24325397.777     -573635.599 3    -49158.899 5         6.000           6.000
 90  6 17 20  8 45.1830000  0  4 02 11 09 13
  22840375.302     7832317.693 6   6103093.548 9        17.000          69.000
  20962715.961    -3582769.515 7  -2791763.348 9        24.000         131.000
  22998964.376    -6861039.494 6  -5277454.787 7        12.000          31.000
  24313189.219     -637801.435 3    -99158.110 6         6.000          13.000
 90  6 17 20  9  0.0310000  0  4 02 11 09 13
  22846331.994     7863629.446 6   6127492.254 9        17.000          68.000
  20963402.438    -3579163.368 7  -2788953.362 9        23.000         131.000
  22990228.167    -6906949.881 6  -5313229.038 7        12.000          34.000
  24301184.443     -700868.513 3   -148301.170 3         5.000           3.000
 90  6 17 20  9 15.1350000  0  4 02 11 09 13
  22852396.782     7895492.041 6   6152320.189 9        16.000          76.000
  20964126.762    -3575353.109 7  -2785984.325 9        24.000         132.000
  22981339.201    -6953653.837 6  -5349621.643 6        12.000          24.000
  24288982.831     -765008.585 3   -198280.310 5         5.000           7.000
 90  6 17 20  9 30.2390000  0  4 02 11 09 13
  22858462.296     7927366.770 6   6177157.578 9        16.000          61.000
  20964879.943    -3571399.304 7  -2782903.445 9        24.000         139.000
  22972451.420    -7000358.951 6  -5386015.169 7        12.000          33.000
  24276774.151     -829133.038 3   -248247.265 5         5.000           8.000
 90  6 17 20  9 45.0870000  0  4 02 11 09 13
  22864425.239     7958710.528 6   6201581.240 9        16.000          65.000
  20965646.017    -3567374.839 7  -2779767.497 9        24.000         133.000
  22963713.546    -7046275.714 5  -5421794.383 7        11.000          31.000
  24264781.765     -892157.555 3   -297357.166 6         5.000          12.000
 90  6 17 20 10  0.1910000  0  4 02 11 09 13
  22870498.414     7990612.821 6   6226440.106 9        16.000          72.000
  20966452.215    -3563132.164 7  -2776461.511 9        24.000         135.000
  22954826.122    -7092978.074 6  -5458185.747 7        12.000          29.000
  24252586.395     -956246.068 3   -347296.096 4         5.000           4.000
 90  6 17 20 10 15.0390000  0  4 02 11 09 13
  22876465.679     8021980.901 6   6250882.703 9        16.000          66.000
  20967271.887    -3558826.447 7  -2773106.409 9        23.000         136.000
  22946089.025    -7138894.088 6  -5493964.379 7        12.000          26.000
  24240599.066    -1019236.572 3   -396379.436 5         5.000           7.000
 90  6 17 20 10 30.1430000  0  4 02 11 09 13
  22882541.091     8053901.496 6   6275755.836 9        17.000          69.000
  20968132.614    -3554303.492 7  -2769582.029 9        24.000         149.000
  22937200.039    -7185600.919 6  -5530359.251 7        12.000          30.000
  24228411.878    -1083295.089 3   -446294.984 5         5.000           8.000
 90  6 17 20 10 45.2470000  0  4 02 11 09 13
  22888615.308     8085827.422 6   6300633.120 9        17.000          67.000
  20969021.197    -3549642.616 7  -2765950.177 9        24.000         143.000
  22928311.961    -7232313.073 6  -5566758.260 7        12.000          33.000
  24216223.607    -1147341.252 3   -496200.939 5         5.000           6.000
 90  6 17 20 11  0.0950000  0  4 02 11 09 13
  22894589.100     8117219.966 6   6325094.787 9        17.000          66.000
  20969917.013    -3544924.070 7  -2762273.389 9        24.000         153.000
  22919573.046    -7278235.986 6  -5602542.282 7        12.000          29.000
  24204249.813    -1210287.033 3   -545249.460 4         5.000           4.000
 90  6 17 20 11 15.1990000  0  4 02 11 09 13
  22900666.861     8149158.453 6   6349981.867 9        16.000          63.000
  20970856.959    -3539987.075 7  -2758426.381 9        24.000         147.000
  22910681.934    -7324954.703 5  -5638946.389 7        11.000          35.000
  24192063.984    -1274304.458 3   -595132.972 5         6.000           5.000
 90  6 17 20 11 30.0470000  0  4 02 11 09 13
  22906644.484     8180559.768 6   6374450.368 9        16.000          64.000
  20971807.824    -3534996.047 7  -2754537.269 9        24.000         147.000
  22901942.375    -7370882.254 6  -5674734.025 7        12.000          31.000
  24180092.928    -1337220.081 3   -644157.977 6         6.000          15.000
 90  6 17 20 11 45.1510000  0  4 02 11 09 13
  22912721.653     8212504.052 6   6399341.962 9        17.000          68.000
  20972799.989    -3529780.064 7  -2750472.865 9        24.000         141.000
  22893050.835    -7417603.334 5  -5711139.995 7        11.000          31.000
  24167912.992    -1401204.178 3   -694015.570 6         6.000          12.000
 90  6 17 20 12  0.2550000  0  4 02 11 09 13
  22918799.966     8244447.869 6   6424233.189 9        17.000          60.000
  20973818.509    -3524426.235 7  -2746301.046 9        24.000         140.000
  22884159.438    -7464328.127 5  -5747548.862 7        11.000          34.000
  24155744.202    -1465173.499 3   -743861.592 1         6.000           1.000
 90  6 17 20 12 15.1030000  0  4 02 11 09 13
  22924777.568     8275855.629 6   6448706.713 9        17.000          62.000
  20974846.846    -3519023.923 7  -2742091.458 9        24.000         140.000
  22875418.928    -7510259.477 6  -5783339.449 7        12.000          37.000
  24143777.722    -1528038.975 3   -792847.486 5         6.000          10.000
 90  6 17 20 12 30.2070000  0  4 02 11 09 13
  22930857.996     8307805.350 6   6473602.546 9        18.000          62.000
  20975917.657    -3513392.677 7  -2737703.473 9        24.000         146.000
  22866528.563    -7556986.573 6  -5819750.112 7        12.000          31.000
  24131614.754    -1591973.501 3   -842666.423 5         6.000          10.000
 90  6 17 20 12 45.0550000  0  4 02 11 09 13
  22936834.628     8339218.909 6   6498080.580 9        17.000          58.000
  20976997.183    -3507719.213 7  -2733282.596 9        24.000         144.000
  22857785.970    -7602920.907 6  -5855543.023 7        12.000          34.000
  24119657.806    -1654805.254 3   -891626.052 5         6.000          10.000
 90  6 17 20 13  0.1590000  0  4 02 11 09 13
  22942918.733     8371181.624 6   6522986.540 8        17.000          52.000
  20978122.042    -3501806.146 7  -2728675.016 9        24.000         136.000
  22848895.155    -7649644.344 6  -5891950.824 7        12.000          28.000
  24107494.828    -1718698.559 3   -941412.865 6         6.000          16.000
 90  6 17 20 13 15.0070000  0  4 02 11 09 13
  22948898.633     8402608.718 6   6547475.131 9        17.000          62.000
  20979254.645    -3495854.167 7  -2724037.115 9        24.000         139.000
  22840155.064    -7695573.070 6  -5927739.385 7        12.000          33.000
  24095548.472    -1781487.257 3   -990338.957 6         6.000          14.000
 90  6 17 20 13 30.1110000  0  4 02 11 09 13
  22954982.228     8434583.204 6   6572390.259 8        17.000          52.000
  20980435.218    -3489658.657 7  -2719209.458 9        24.000         137.000
  22831265.833    -7742291.062 6  -5964142.942 7        13.000          34.000
  24083395.699    -1845336.657 3  -1040091.527 6         6.000          14.000
 90  6 17 20 13 45.2150000  0  4 02 11 09 13
  22961067.017     8466561.974 6   6597308.717 9        16.000          61.000
  20981639.858    -3483324.004 7  -2714273.362 9        23.000         139.000
  22822374.834    -7789009.054 6  -6000546.498 8        13.000          42.000
  24071252.232    -1909166.326 3  -1089828.800 6         6.000          13.000
 90  6 17 20 14  0.0630000  0  4 02 11 09 13
  22967050.687     8498004.912 6   6621809.651 8        16.000          53.000
  20982851.445    -3476960.380 7  -2709314.706 9        24.000         138.000
  22813636.041    -7834934.089 6  -6036332.162 7        13.000          33.000
  24059315.765    -1971893.951 3  -1138707.269 6         6.000          13.000
 90  6 17 20 14 15.1670000  0  4 02 11 09 13
  22973140.309     8529995.829 6   6646737.594 9        16.000          59.000
  20984107.355    -3470348.472 7  -2704162.575 9        23.000         135.000
  22804744.684    -7881649.697 6  -6072733.870 8        12.000          42.000
  24047177.406    -2035682.028 3  -1188412.107 6         6.000          14.000
 90  6 17 20 14 30.0150000  0  4 02 11 09 13
  22979125.368     8561449.921 6   6671247.218 9        16.000          56.000
  20985372.581    -3463712.875 7  -2698991.993 9        24.000         136.000
  22796007.444    -7927572.206 6  -6108517.572 8        12.000          41.000
  24035246.455    -2098368.099 3  -1237258.229 6         6.000          12.000
 90  6 17 20 14 45.1190000  0  4 02 11 09 13
  22985214.856     8593450.599 6   6696182.759 9        15.000          62.000
  20986683.168    -3456824.853 7  -2693624.701 9        24.000         136.000
  22787117.753    -7974284.836 6  -6144916.957 7        13.000          38.000
  24023117.626    -2162113.357 3  -1286929.675 6         6.000          17.000
 90  6 17 20 15  0.2230000  0  4 02 11 09 13
  22991303.048     8625458.478 6   6721123.905 9        15.000          58.000
  20988019.851    -3449794.614 7  -2688146.603 9        23.000         136.000
  22778229.395    -8020992.662 6  -6181312.603 8        13.000          41.000
  24010994.171    -2225833.366 4  -1336581.466 6         7.000          18.000
 90  6 17 20 15 15.0710000  0  4 02 11 09 13
  22997293.868     8656928.352 6   6745645.829 9        15.000          61.000
  20989362.540    -3442746.321 7  -2682654.433 9        24.000         137.000
  22769492.482    -8066905.152 6  -6217088.485 8        13.000          42.000
  23999076.203    -2288449.603 4  -1385373.200 6         7.000          15.000
 90  6 17 20 15 30.1750000  0  4 02 11 09 13
  23003386.074     8688945.294 6   6770594.034 9        15.000          62.000
  20990753.240    -3435437.218 7  -2676959.032 9        23.000         132.000
  22760606.141    -8113605.441 6  -6253478.249 7        13.000          35.000
  23986957.447    -2352120.971 4  -1434987.054 6         7.000          14.000
 90  6 17 20 15 45.0230000  0  4 02 11 09 13
  23009376.230     8720427.417 6   6795125.510 9        14.000          60.000
  20992145.882    -3428113.303 7  -2671252.095 9        23.000         141.000
  22751872.578    -8159508.111 6  -6289246.489 7        13.000          38.000
  23975049.628    -2414686.852 4  -1483739.561 6         7.000          12.000
 90  6 17 20 16  0.1270000  0  4 02 11 09 13
  23015472.062     8752459.094 6   6820085.203 9        15.000          61.000
  20993590.804    -3420523.493 7  -2665337.961 9        23.000         138.000
  22742984.848    -8206197.427 6  -6325627.700 7        13.000          39.000
  23962946.623    -2478305.604 4  -1533312.452 6         7.000          18.000
 90  6 17 20 16 15.2310000  0  4 02 11 09 13
  23021570.939     8784504.481 6   6845055.575 9        15.000          60.000
  20995063.941    -3412785.712 7  -2659308.530 9        23.000         141.000
  22734105.045    -8252874.161 6  -6361999.118 7        13.000          34.000
  23950850.238    -2541890.710 4  -1582859.105 6         7.000          13.000
 90  6 17 20 16 30.0790000  0  4 02 11 09 13
  23027566.734     8816016.925 6   6869610.664 9        15.000          63.000
  20996536.842    -3405039.335 7  -2653272.404 9        23.000         140.000
  22725374.168    -8298751.644 6  -6397747.720 8        13.000          41.000
  23938956.051    -2604369.116 4  -1631543.419 6         7.000          12.000
 90  6 17 20 16 45.1830000  0  4 02 11 09 13
  23033670.125     8848085.777 6   6894599.329 9        15.000          58.000
  20998065.171    -3397015.855 7  -2647020.346 9        24.000         145.000
  22716494.273    -8345410.153 6  -6434104.905 7        13.000          36.000
  23926871.618    -2667893.242 4  -1681042.564 6         7.000          13.000
 90  6 17 20 17  0.0310000  0  4 02 11 09 13
  23039672.570     8879621.872 6   6919172.846 9        14.000          57.000
  20999591.059    -3388989.681 7  -2640766.193 9        23.000         149.000
  22707766.012    -8391270.070 6  -6469839.842 7        12.000          38.000
  23914992.591    -2730311.795 4  -1729680.241 6         7.000          13.000
 90  6 17 20 17 15.1350000  0  4 02 11 09 13
  23045776.830     8911710.608 6   6944176.996 9        14.000          55.000
  21001170.045    -3380686.269 7  -2634296.005 9        23.000         143.000
  22698891.551    -8437914.764 6  -6506186.273 8        12.000          41.000
  23902914.756    -2793778.915 4  -1779134.984 6         7.000          14.000
 90  6 17 20 17 30.2390000  0  4 02 11 09 13
  23051883.521     8943807.574 6   6969187.571 9        14.000          57.000
  21002778.502    -3372243.681 7  -2627717.373 9        24.000         150.000
  22690017.775    -8484553.886 6  -6542528.371 7        13.000          37.000
  23890844.767    -2857218.694 4  -1828568.378 6         7.000          12.000
 90  6 17 20 17 45.0870000  0  4 02 11 09 13
  23057892.442     8975370.420 6   6993781.940 9        14.000          56.000
  21004383.720    -3363807.947 7  -2621144.077 9        24.000         153.000
  22681291.251    -8530396.070 6  -6578249.468 8        12.000          44.000
  23878980.858    -2919555.291 4  -1877142.202 6         7.000          16.000
 90  6 17 20 18  0.1910000  0  4 02 11 09 13
  23064003.577     9007488.126 6   7018808.653 8        14.000          48.000
  21006041.934    -3355088.318 7  -2614349.572 9        23.000         150.000
  22672420.570    -8577021.916 6  -6614581.222 8        13.000          42.000
  23866916.191    -2982937.779 4  -1926530.979 5         7.000           8.000
 90  6 17 20 18 15.0390000  0  4 02 11 09 13
  23070013.673     9039069.390 6   7043417.374 9        14.000          54.000
  21007698.923    -3346382.788 7  -2607566.048 9        23.000         149.000
  22663697.283    -8622852.984 6  -6650293.672 8        13.000          48.000
  23855063.846    -3045219.421 4  -1975061.968 6         7.000          18.000
 90  6 17 20 18 30.1430000  0  4 02 11 09 13
  23076127.954     9071206.848 6   7068459.495 8        14.000          51.000
  21009411.074    -3337387.968 7  -2600557.107 9        23.000         152.000
  22654828.962    -8669465.913 6  -6686615.353 8        12.000          48.000
  23843016.841    -3108544.199 5  -2024405.790 5         8.000           9.000
 90  6 17 20 18 45.2470000  0  4 02 11 09 13
  23082243.746     9103350.050 6   7093506.084 8        13.000          50.000
  21011148.527    -3328258.144 7  -2593442.967 9        24.000         153.000
  22645960.038    -8716075.424 6  -6722934.380 8        13.000          46.000
  23830968.763    -3171842.725 5  -2073729.121 5         8.000           6.000
 90  6 17 20 19  0.0950000  0  4 02 11 09 13
  23088260.428     9134958.172 6   7118135.742 9        14.000          54.000
  21012881.639    -3319146.665 7  -2586343.118 9        24.000         146.000
  22637241.532    -8761886.584 6  -6758631.307 8        12.000          42.000
  23819134.489    -3234037.599 5  -2122192.482 6         8.000          14.000
 90  6 17 20 19 15.1990000  0  4 02 11 09 13
  23094380.449     9167117.783 6   7143195.114 8        14.000          52.000
  21014672.998    -3309742.109 7  -2579014.907 9        24.000         145.000
  22628374.600    -8808481.405 6  -6794938.883 8        12.000          46.000
  23807097.658    -3297275.796 5  -2171468.826 5         8.000          10.000
 90  6 17 20 19 30.0470000  0  4 02 11 09 13
  23100398.330     9198739.603 6   7167835.430 8        14.000          47.000
  21016456.389    -3300362.436 7  -2571706.082 9        23.000         147.000
  22619659.762    -8854279.154 6  -6830625.372 8        13.000          46.000
  23795279.616    -3359412.185 5  -2219886.627 6         8.000          12.000
 90  6 17 20 19 45.1510000  0  4 02 11 09 13
  23106520.721     9230917.348 6   7192908.947 9        14.000          55.000
  21018299.385    -3290680.612 7  -2564161.815 9        24.000         152.000
  22610796.906    -8900855.123 6  -6866918.264 8        12.000          42.000
  23783254.758    -3422585.246 5  -2269112.209 5         8.000           9.000
 90  6 17 20 20  0.2550000  0  4 02 11 09 13
  23112644.635     9263104.100 6   7217989.462 8        14.000          46.000
  21020168.174    -3280859.668 7  -2556509.141 9        24.000         147.000
  22601933.753    -8947421.686 6  -6903203.834 8        13.000          44.000
  23771240.043    -3485725.248 5  -2318312.013 5         8.000          10.000
 90  6 17 20 20 15.1030000  0  4 02 11 09 13
  23118669.553     9294755.988 6   7242653.216 8        14.000          51.000
  21022030.824    -3271066.407 7  -2548878.034 9        24.000         148.000
  22593226.127    -8993186.217 6  -6938864.426 8        13.000          49.000
  23759431.787    -3547759.327 5  -2366650.087 6         8.000          12.000
 90  6 17 20 20 30.2070000  0  4 02 11 09 13
  23124799.228     9326960.910 6   7267747.899 8        14.000          46.000
  21023954.408    -3260966.434 7  -2541007.950 9        24.000         145.000
  22584369.410    -9039729.611 6  -6975131.926 8        13.000          47.000
  23747431.527    -3610829.242 5  -2415795.293 5         8.000           9.000
 90  6 17 20 20 45.0550000  0  4 02 11 09 13
  23130825.015     9358626.575 6   7292422.376 9        14.000          56.000
  21025868.236    -3250902.432 7  -2533165.874 9        24.000         141.000
  22575662.989    -9085474.112 6  -7010776.915 8        13.000          48.000
  23735639.156    -3672796.803 5  -2464081.546 5         8.000           9.000
 90  6 17 20 21  0.1590000  0  4 02 11 09 13
  23136953.801     9390846.619 6   7317528.839 8        14.000          50.000
  21027843.732    -3240525.153 7  -2525079.698 9        24.000         141.000
  22566812.708    -9131994.518 6  -7047026.523 8        13.000          47.000
  23723653.973    -3735796.013 5  -2513171.642 5         8.000           9.000
 90  6 17 20 21 15.0070000  0  4 02 11 09 13
  23142984.614     9422524.398 6   7342212.767 8        15.000          50.000
  21029811.098    -3230190.982 7  -2517027.104 9        24.000         147.000
  22558110.281    -9177718.042 6  -7082655.173 8        13.000          46.000
  23711875.607    -3797695.350 4  -2561404.674 6         7.000          13.000
 90  6 17 20 21 30.1110000  0  4 02 11 09 13
  23149116.148     9454755.204 6   7367327.624 8        14.000          52.000
  21031837.231    -3219540.491 7  -2508728.029 9        24.000         139.000
  22549261.889    -9224217.843 6  -7118888.716 8        14.000          43.000
  23699899.250    -3860625.636 5  -2610441.049 6         8.000          15.000
 90  6 17 20 21 45.2150000  0  4 02 11 09 13
  23155250.757     9486995.574 6   7392449.932 8        14.000          52.000
  21033890.925    -3208748.729 7  -2500318.873 9        25.000         138.000
  22540416.144    -9270703.331 6  -7155111.104 8        13.000          42.000
  23687931.464    -3923517.025 4  -2659447.146 5         7.000          11.000
 90  6 17 20 22  0.0630000  0  4 02 11 09 13
  23161282.570     9518694.991 6   7417150.715 8        14.000          50.000
  21035934.536    -3198006.649 7  -2491948.438 9        24.000         133.000
  22531722.400    -9316390.720 6  -7190711.592 8        14.000          43.000
  23676169.315    -3985308.341 4  -2707596.033 5         7.000          10.000
 90  6 17 20 22 15.1670000  0  4 02 11 09 13
  23167421.470     9550946.411 6   7442281.638 8        14.000          50.000
  21038039.081    -3186944.917 7  -2483328.910 9        24.000         134.000
  22522879.872    -9362856.210 6  -7226918.405 8        14.000          43.000
  23664217.004    -4048130.841 5  -2756548.410 6         8.000          12.000
 90  6 17 20 22 30.0150000  0  4 02 11 09 13
  23173456.041     9582659.011 6   7466992.697 9        14.000          54.000
  21040133.972    -3175935.114 7  -2474749.851 9        24.000         140.000
  22514189.877    -9408520.972 6  -7262501.274 8        14.000          46.000
  23652472.818    -4109851.057 5  -2804641.937 6         8.000          14.000
 90  6 17 20 22 45.1190000  0  4 02 11 09 13
  23179594.695     9614925.798 6   7492135.584 8        14.000          51.000
  21042291.880    -3164598.880 7  -2465916.430 9        24.000         142.000
  22505352.068    -9454960.624 6  -7298687.955 9        14.000          54.000
  23640529.855    -4172598.049 5  -2853535.458 5         8.000           5.000
 90  6 17 20 23  0.2230000  0  4 02 11 09 13
  23185737.231     9647199.031 6   7517283.504 8        13.000          50.000
  21044474.489    -3153125.674 7  -2456976.277 9        23.000         138.000
  22496518.387    -9501387.846 6  -7334864.944 8        14.000          50.000
  23628599.640    -4235307.380 5  -2902399.680 5         8.000           7.000
 90  6 17 20 23 15.0710000  0  4 02 11 09 13
  23191775.593     9678931.287 6   7542009.867 8        14.000          51.000
  21046646.566    -3141714.180 7  -2448084.215 9        24.000         146.000
  22487836.094    -9547016.473 6  -7370419.662 9        14.000          55.000
  23616872.400    -4296917.418 5  -2950407.295 5         8.000          11.000
 90  6 17 20 23 30.1750000  0  4 02 11 09 13
  23197919.262     9711219.738 6   7567169.639 8        13.000          45.000
  21048881.435    -3129968.821 7  -2438931.994 9        24.000         144.000
  22479004.713    -9593417.523 6  -7406576.252 8        14.000          48.000
  23604953.677    -4359550.332 5  -2999212.021 5         9.000          11.000
 90  6 17 20 23 45.0230000  0  4 02 11 09 13
  23203961.679     9742972.744 6   7591912.172 8        13.000          44.000
  21051106.048    -3118285.523 7  -2429828.134 9        24.000         142.000
  22470326.905    -9639015.315 6  -7442106.940 8        14.000          47.000
  23593247.257    -4421080.017 5  -3047157.008 6         8.000          12.000
 90  6 17 20 24  0.1270000  0  4 02 11 09 13
  23210112.203     9775280.421 6   7617086.913 8        14.000          52.000
  21053390.492    -3106267.398 7  -2420463.368 9        24.000         152.000
  22461504.868    -9685387.973 6  -7478241.403 8        14.000          50.000
  23581344.735    -4483633.401 5  -3095899.691 6         9.000          15.000
 90  6 17 20 24 15.2310000  0  4 02 11 09 13
  23216260.184     9807595.913 6   7642267.755 8        14.000          46.000
  21055704.906    -3094113.780 7  -2410993.031 9        24.000         144.000
  22452681.013    -9731747.526 6  -7514365.664 9        14.000          59.000
  23569447.097    -4546147.795 5  -3144612.025 5         9.000           9.000
 90  6 17 20 24 30.0790000  0  4 02 11 09 13
  23222307.494     9839372.840 6   7667028.935 8        14.000          47.000
  21058003.457    -3082031.954 7  -2401578.626 9        24.000         149.000
  22444011.142    -9777306.126 6  -7549865.813 9        14.000          61.000
  23557761.280    -4607562.163 5  -3192467.179 5         8.000           6.000
 90  6 17 20 24 45.1830000  0  4 02 11 09 13
  23228458.865     9871704.200 6   7692222.137 8        14.000          49.000
  21060367.129    -3069609.156 7  -2391898.541 9        25.000         162.000
  22435195.776    -9823638.160 6  -7585968.633 9        14.000          54.000
  23545875.941    -4669997.549 5  -3241117.957 6         8.000          13.000
 90  6 17 20 25  0.0310000  0  4 02 11 09 13
  23234508.546     9903497.275 6   7716995.894 7        14.000          39.000
  21062717.020    -3057264.609 7  -2382279.421 9        25.000         157.000
  22426530.523    -9869170.738 6  -7621448.503 9        14.000          56.000
  23534205.130    -4731334.841 5  -3288913.060 5         8.000          11.000
 90  6 17 20 25 15.1350000  0  4 02 11 09 13
  23240666.547     9935850.437 6   7742206.091 9        14.000          54.000
  21065133.025    -3044571.224 7  -2372388.485 9        25.000         153.000
  22417720.489    -9915472.033 6  -7657527.375 9        14.000          60.000
  23522340.273    -4793687.190 5  -3337499.114 5         8.000          10.000
 90  6 17 20 25 30.2390000  0  4 02 11 09 13
  23246825.743     9968215.232 6   7767425.350 8        14.000          43.000
  21067573.351    -3031741.712 7  -2362391.473 9        25.000         149.000
  22408912.304    -9961757.366 6  -7693593.801 9        14.000          55.000
  23510484.047    -4855997.047 5  -3386052.083 5         8.000          10.000
 90  6 17 20 25 45.0870000  0  4 02 11 09 13
  23252881.450    10000040.648 6   7792224.315 8        14.000          51.000
  21069997.650    -3018999.440 7  -2352462.436 9        24.000         152.000
  22400257.674   -10007244.701 6  -7729038.420 9        15.000          58.000
  23498836.190    -4917211.352 5  -3433751.369 5         8.000           8.000
 90  6 17 20 26  0.1910000  0  4 02 11 09 13
  23259044.549    10032427.019 6   7817460.387 8        14.000          40.000
  21072491.176    -3005901.734 7  -2342256.446 9        25.000         146.000
  22391454.689   -10053498.896 6  -7765080.587 9        14.000          55.000
  23486990.302    -4979437.354 5  -3482238.972 6         8.000          20.000
 90  6 17 20 26 15.0390000  0  4 02 11 09 13
  23265102.044    10064272.950 6   7842275.335 8        13.000          52.000
  21074965.642    -2992895.729 7  -2332121.903 9        24.000         142.000
  22382805.831   -10098954.768 6  -7800500.684 8        15.000          49.000
  23475358.135    -5040567.981 5  -3529873.052 5         8.000           6.000
 90  6 17 20 26 30.1430000  0  4 02 11 09 13
  23271269.565    10096677.000 6   7867525.188 8        13.000          42.000
  21077508.691    -2979531.847 7  -2321708.505 9        24.000         145.000
  22374008.392   -10145178.210 6  -7836518.898 8        14.000          48.000
  23463534.006    -5102709.621 5  -3578294.930 5         8.000          11.000
 90  6 17 20 26 45.2470000  0  4 02 11 09 13
  23277439.815    10129092.925 6   7892784.283 8        13.000          51.000
  21080078.300    -2966031.980 7  -2311189.133 9        24.000         157.000
  22365216.705   -10191383.579 6  -7872523.017 8        14.000          52.000
  23451719.182    -5164806.091 5  -3626681.632 5         8.000          11.000
 90  6 17 20 27  0.0950000  0  4 02 11 09 13
  23283504.102    10160963.941 6   7917618.773 8        14.000          50.000
  21082627.602    -2952634.005 7  -2300749.166 9        24.000         153.000
  22356573.945   -10236793.648 6  -7907907.428 8        14.000          53.000
  23440113.994    -5225811.290 5  -3674217.969 5         8.000          11.000
 90  6 17 20 27 15.1990000  0  4 02 11 09 13
  23289675.404    10193392.857 6   7942887.992 8        13.000          47.000
  21085246.121    -2938870.431 7  -2290024.311 9        23.000         150.000
  22347785.915   -10282968.187 6  -7943887.532 8        14.000          51.000
  23428309.089    -5287822.694 5  -3722538.391 6         8.000          17.000
 90  6 17 20 27 30.0470000  0  4 02 11 09 13
  23295741.653    10225276.695 6   7967732.480 8        13.000          45.000
  21087846.120    -2925211.119 7  -2279380.709 9        24.000         149.000
  22339153.146   -10328344.639 6  -7979245.750 8        14.000          52.000
  23416712.084    -5348740.670 5  -3770006.748 5         8.000          10.000
 90  6 17 20 27 45.1510000  0  4 02 11 09 13
  23301914.374    10257715.632 6   7993009.505 8        13.000          52.000
  21090515.235    -2911183.916 7  -2268450.432 9        24.000         149.000
  22330370.653   -10374486.137 6  -8015200.091 8        14.000          52.000
  23404930.746    -5410664.368 5  -3818258.862 6         8.000          12.000
 90  6 17 20 28  0.2550000  0  4 02 11 09 13
  23308090.773    10290161.360 6   8018291.828 8        13.000          48.000
  21093210.520    -2897021.666 7  -2257414.912 9        24.000         149.000
  22321594.258   -10420608.194 6  -8051139.307 8        14.000          47.000
  23393157.437    -5472541.067 5  -3866474.268 5         9.000          11.000
 90  6 17 20 28 15.1030000  0  4 02 11 09 13
  23314159.647    10322062.607 6   8043149.883 8        13.000          48.000
  21095883.149    -2882967.031 7  -2246463.265 9        23.000         153.000
  22312970.028   -10465928.395 6  -8086453.692 8        14.000          48.000
  23381589.731    -5533321.465 5  -3913835.464 5         9.000          11.000
 90  6 17 20 28 30.2070000  0  4 02 11 09 13
  23320334.953    10354518.116 6   8068439.816 8        13.000          47.000
  21098630.828    -2868536.226 7  -2235218.495 9        24.000         155.000
  22304201.703   -10512009.826 6  -8122361.230 8        15.000          47.000
  23369832.786    -5595101.930 5  -3961975.952 6         8.000          13.000
 90  6 17 20 28 45.0550000  0  4 02 11 09 13
  23326409.660    10386427.240 6   8093303.999 8        13.000          51.000
  21101354.523    -2854219.799 7  -2224062.842 9        24.000         153.000
  22295581.886   -10557291.566 6  -8157645.652 8        14.000          48.000
  23358285.774    -5655788.959 5  -4009264.392 5         8.000           9.000
 90  6 17 20 29  0.1590000  0  4 02 11 09 13
  23332584.925    10418880.157 6   8118591.920 8        13.000          47.000
  21104148.967    -2839534.583 7  -2212619.829 9        24.000         162.000
  22286821.560   -10603344.570 6  -8193531.047 8        14.000          51.000
  23346544.131    -5717485.162 5  -4057339.181 6         8.000          12.000
 90  6 17 20 29 15.0070000  0  4 02 11 09 13
  23338655.679    10450787.020 6   8143454.341 8        13.000          40.000
  21106922.143    -2824968.592 7  -2201269.719 9        24.000         158.000
  22278209.292   -10648597.837 6  -8228793.275 8        15.000          46.000
  23335008.887    -5778088.754 5  -4104562.601 5         8.000          11.000
 90  6 17 20 29 30.1110000  0  4 02 11 09 13
  23344832.874    10483250.824 6   8168750.736 8        13.000          45.000
  21109765.201    -2810018.701 7  -2189620.467 9        24.000         152.000
  22269453.154   -10694610.464 6  -8264647.219 8        15.000          50.000
  23323287.195    -5839688.310 5  -4152562.111 5         8.000           9.000
 90  6 17 20 29 45.2150000  0  4 02 11 09 13
  23351011.694    10515719.791 6   8194051.161 8        13.000          45.000
  21112634.798    -2794937.972 7  -2177869.261 9        24.000         158.000
  22260701.296   -10740604.388 6  -8300486.572 9        15.000          55.000
  23311580.989    -5901240.874 5  -4200524.980 6         8.000          16.000
 90  6 17 20 30  0.0630000  0  4 02 11 09 13
  23357086.074    10547643.351 6   8218926.592 7        13.000          39.000
  21115481.308    -2779986.229 7  -2166218.561 9        24.000         156.000
  22252100.041   -10785801.131 6  -8335704.764 8        15.000          51.000
  23300071.027    -5961704.482 5  -4247639.322 5         8.000          11.000
 90  6 17 20 30 15.1670000  0  4 02 11 09 13
  23363269.389    10580134.959 6   8244244.661 8        14.000          40.000
  21118401.685    -2764635.872 7  -2154257.256 9        24.000         160.000
  22243357.223   -10831746.639 6  -8371506.389 8        15.000          53.000
  23288376.998    -6023151.695 5  -4295520.126 6         8.000          12.000
 90  6 17 20 30 30.0150000  0  4 02 11 09 13
  23369349.295    10612082.173 6   8269138.536 7        14.000          38.000
  21121297.269    -2749420.388 7  -2142401.045 9        24.000         158.000
  22234764.620   -10876896.211 6  -8406687.812 9        15.000          57.000
  23276890.204    -6083511.929 5  -4342553.909 6         8.000          17.000
 90  6 17 20 30 45.1190000  0  4 02 11 09 13
  23375535.827    10644587.748 6   8294467.476 8        13.000          41.000
  21124266.586    -2733816.787 7  -2130242.408 9        24.000         154.000
  22226028.789   -10922807.796 6  -8442463.004 8        15.000          53.000
  23265214.092    -6144867.970 5  -4390363.661 6         8.000          13.000
 90  6 17 20 31  0.2230000  0  4 02 11 09 13
  23381722.840    10677104.271 6   8319804.962 8        13.000          42.000
  21127260.184    -2718083.807 7  -2117982.952 9        25.000         159.000
  22217295.922   -10968699.777 6  -8478222.936 9        15.000          60.000
  23253547.092    -6206175.333 5  -4438135.473 6         8.000          13.000
 90  6 17 20 31 15.0710000  0  4 02 11 09 13
  23387807.630    10709079.600 6   8344720.727 8        14.000          47.000
  21130227.233    -2702491.406 7  -2105833.043 9        25.000         155.000
  22208714.361   -11013794.556 6  -8513361.653 9        16.000          62.000
  23242090.454    -6266395.719 5  -4485060.288 5         8.000           8.000
 90  6 17 20 31 30.1750000  0  4 02 11 09 13
  23393999.005    10741617.239 6   8370074.662 8        13.000          43.000
  21133270.641    -2686500.984 7  -2093372.990 9        25.000         150.000
  22199991.422   -11059645.624 6  -8549089.694 8        16.000          53.000
  23230443.731    -6327604.039 5  -4532754.957 5         8.000           9.000
 90  6 17 20 31 45.0230000  0  4 02 11 09 13
  23400091.333    10773616.463 6   8395009.057 7        13.000          39.000
  21136286.089    -2670651.673 7  -2081022.892 9        25.000         157.000
  22191416.624   -11104695.403 6  -8584193.359 9        15.000          59.000
  23219000.791    -6387722.139 5  -4579600.043 6         8.000          14.000
 90  6 17 20 32  0.1270000  0  4 02 11 09 13
  23406286.323    10806183.586 6   8420385.975 7        13.000          36.000
  21139380.102    -2654394.202 7  -2068354.746 9        25.000         146.000
  22182702.036   -11150493.962 6  -8619880.489 9        15.000          60.000
  23207374.591    -6448819.413 5  -4627208.205 5         9.000           6.000
 90  6 17 20 32 15.2310000  0  4 02 11 09 13
  23412482.764    10838755.964 6   8445766.971 7        13.000          35.000
  21142499.296    -2638010.877 7  -2055588.521 9        25.000         156.000
  22173989.629   -11196274.132 6  -8655553.282 9        15.000          57.000
  23195762.488    -6509868.698 5  -4674778.905 5         9.000           9.000
 90  6 17 20 32 30.0790000  0  4 02 11 09 13
  23418578.984    10870780.220 6   8470720.896 7        13.000          36.000
  21145586.301    -2621783.507 7  -2042943.840 9        25.000         160.000
  22165430.235   -11241260.713 6  -8690607.703 9        16.000          62.000
  23184346.649    -6569836.954 5  -4721507.248 6         9.000          16.000
 90  6 17 20 32 45.1830000  0  4 02 11 09 13
  23424778.500    10903359.298 6   8496107.124 7        13.000          33.000
  21148751.902    -2605153.283 7  -2029985.234 9        25.000         155.000
  22156724.049   -11287005.491 6  -8726252.927 9        15.000          66.000
  23172743.076    -6630792.030 5  -4769004.555 6         9.000          12.000
 90  6 17 20 33  0.0310000  0  4 02 11 09 13
  23430873.872    10935391.052 6   8521066.866 7        13.000          34.000
  21151883.854    -2588680.463 7  -2017149.284 9        24.000         158.000
  22148171.193   -11331953.604 6  -8761277.363 9        16.000          68.000
  23161352.019    -6690663.532 5  -4815657.511 6         9.000          13.000
 90  6 17 20 33 15.1350000  0  4 02 11 09 13
  23437075.482    10967974.610 6   8546456.587 7        13.000          39.000
  21155097.017    -2571801.649 7  -2003996.977 9        24.000         155.000
  22139473.639   -11377659.075 6  -8796891.974 9        16.000          65.000
  23149775.976    -6751519.930 5  -4863077.910 6        10.000          15.000
 90  6 17 20 33 30.2390000  0  4 02 11 09 13
  23443274.906    11000562.645 6   8571849.788 7        13.000          33.000
  21158333.572    -2554795.893 7  -1990745.756 9        25.000         156.000
  22130780.916   -11423342.636 6  -8832489.483 9        16.000          63.000
  23138197.593    -6812324.364 5  -4910457.843 6        10.000          19.000
 90  6 17 20 33 45.0870000  0  4 02 11 09 13
  23449372.331    11032604.935 6   8596817.738 7        13.000          34.000
  21161538.020    -2537954.126 7  -1977622.310 9        24.000         160.000
  22122236.968   -11468229.360 6  -8867466.100 9        15.000          60.000
  23126837.632    -6872046.337 5  -4956994.274 6        10.000          19.000
 90  6 17 20 34  0.1910000  0  4 02 11 09 13
  23455580.428    11065212.490 6   8622226.176 7        13.000          37.000
  21164822.995    -2520690.472 7  -1964170.131 9        24.000         152.000
  22113553.398   -11513861.379 6  -8903023.470 9        15.000          64.000
  23115288.547    -6932739.253 5  -5004287.304 6        10.000          22.000
 90  6 17 20 34 15.0390000  0  4 02 11 09 13
  23461677.935    11097266.509 6   8647203.264 8        13.000          40.000
  21168074.679    -2503603.163 7  -1950855.350 9        25.000         158.000
  22105021.861   -11558704.553 6  -8937966.151 9        15.000          65.000
  23103943.622    -6992358.208 5  -5050743.467 6        10.000          17.000
 90  6 17 20 34 30.1430000  0  4 02 11 09 13
  23467884.560    11129883.387 6   8672618.939 7        12.000          39.000
  21171407.123    -2486092.954 7  -1937211.051 9        25.000         160.000
  22096345.759   -11604294.519 6  -8973490.741 9        15.000          67.000
  23092413.598    -7052948.503 5  -5097956.509 6        10.000          20.000
 90  6 17 20 34 45.2470000  0  4 02 11 09 13
  23474093.647    11162503.816 6   8698037.394 8        13.000          41.000
  21174762.021    -2468461.189 7  -1923472.029 9        25.000         160.000
  22087674.754   -11649864.951 6  -9009000.122 9        15.000          65.000
  23080890.926    -7113488.863 5  -5145130.647 6        10.000          17.000
 90  6 17 20 35  0.0950000  0  4 02 11 09 13
  23480195.619    11194579.554 6   8723031.403 7        12.000          38.000
  21178083.892    -2451006.901 7  -1909871.312 9        25.000         158.000
  22079152.318   -11694640.909 6  -9043890.426 9        15.000          63.000
  23069572.846    -7172951.075 5  -5191464.674 6        10.000          21.000
 90  6 17 20 35 15.1990000  0  4 02 11 09 13
  23486405.952    11227217.330 6   8748463.369 7        12.000          36.000
  21181485.943    -2433127.696 7  -1895939.463 9        25.000         163.000
  22070490.293   -11740165.262 6  -9079363.900 9        15.000          65.000
  23058075.714    -7233384.332 5  -5238555.357 6        10.000          18.000
 90  6 17 20 35 30.0470000  0  4 02 11 09 13
  23492514.717    11259312.903 6   8773472.847 7        13.000          35.000
  21184854.048    -2415427.558 7  -1882147.163 9        25.000         160.000
  22061976.683   -11784892.206 6  -9114216.010 9        15.000          69.000
  23046782.989    -7292737.638 5  -5284804.523 6        10.000          23.000
 90  6 17 20 35 45.1510000  0  4 02 11 09 13
  23498728.400    11291972.987 6   8798922.196 8        13.000          46.000
  21188305.233    -2397296.043 7  -1868018.722 9        24.000         162.000
  22053324.464   -11830363.380 6  -9149648.041 9        15.000          69.000
  23035303.571    -7353056.868 5  -5331806.356 6        11.000          19.000
 90  6 17 20 36  0.2550000  0  4 02 11 09 13
  23504944.781    11324638.120 6   8824375.475 8        13.000          40.000
  21191778.320    -2379041.276 7  -1853794.242 9        25.000         159.000
  22044677.833   -11875811.043 6  -9185061.756 9        15.000          70.000
  23023836.482    -7413321.456 5  -5378765.610 6        11.000          21.000
 90  6 17 20 36 15.1030000  0  4 02 11 09 13
  23511057.417    11356757.535 6   8849403.521 7        12.000          39.000
  21195216.113    -2360971.508 7  -1839713.912 9        24.000         159.000
  22036181.293   -11920460.572 6  -9219853.541 9        16.000          65.000
  23012570.643    -7472506.504 5  -5424883.647 6        11.000          18.000
 90  6 17 20 36 30.2070000  0  4 02 11 09 13
  23517276.648    11389438.929 6   8874869.470 8        12.000          42.000
  21198737.935    -2342464.036 7  -1825292.528 9        25.000         161.000
  22027541.771   -11965851.667 6  -9255223.181 9        15.000          63.000
  23001126.059    -7532652.644 5  -5471750.621 6        11.000          20.000
 90  6 17 20 36 45.0550000  0  4 02 11 09 13
  23523392.389    11421574.071 6   8899909.782 8        13.000          48.000
  21202223.831    -2324147.703 7  -1811020.064 9        25.000         162.000
  22019057.428   -12010446.280 6  -9289972.178 9        15.000          67.000
  22989887.351    -7591722.164 5  -5517778.655 6        11.000          22.000
 90  6 17 20 37  0.1590000  0  4 02 11 09 13
  23529615.032    11454271.062 6   8925387.884 8        13.000          48.000
  21205792.848    -2305390.241 7  -1796403.877 9        25.000         156.000
  22010430.104   -12055781.235 6  -9325298.063 9        15.000          64.000
  22978463.718    -7651750.253 5  -5564553.622 6        11.000          23.000
 90  6 17 20 37 15.0070000  0  4 02 11 09 13
  23535731.427    11486416.702 6   8950436.361 8        13.000          44.000
  21209324.569    -2286831.855 7  -1781942.806 9        25.000         162.000
  22001955.016   -12100323.409 6  -9360006.207 9        16.000          62.000
  22967242.040    -7710705.883 5  -5610492.901 6        11.000          21.000
 90  6 17 20 37 30.1110000  0  4 02 11 09 13
  23541955.898    11519121.775 6   8975920.773 8        12.000          42.000
  21212941.393    -2267828.740 7  -1767135.202 9        25.000         156.000
  21993336.425   -12145604.502 6  -9395290.122 9        16.000          68.000
  22955838.858    -7770617.646 5  -5657177.242 6        11.000          25.000
 90  6 17 20 37 45.2150000  0  4 02 11 09 13
  23548179.511    11551831.404 6   9001408.720 8        12.000          40.000
  21216580.730    -2248700.896 7  -1752230.400 9        25.000         160.000
  21984726.252   -12190856.817 6  -9430551.621 9        17.000          66.000
  22944455.115    -7830469.112 5  -5703814.569 6        11.000          18.000
 90  6 17 20 38  0.0630000  0  4 02 11 09 13
  23554298.542    11583984.016 6   9026462.631 7        12.000          39.000
  21220181.240    -2229783.480 7  -1737489.573 9        25.000         157.000
  21976265.915   -12235321.281 6  -9465199.196 9        17.000          68.000
  22933264.787    -7889254.558 5  -5749621.234 6        10.000          25.000
 90  6 17 20 38 15.1670000  0  4 02 11 09 13
  23560520.745    11616697.146 6   9051953.316 7        12.000          34.000
  21223866.351    -2210417.700 7  -1722399.373 9        25.000         152.000
  21967662.003   -12280524.316 6  -9500422.295 9        16.000          67.000
  22921898.084    -7948993.856 5  -5796171.171 7        10.000          26.000
 90  6 17 20 38 30.0150000  0  4 02 11 09 13
  23566644.710    11648864.299 6   9077018.567 7        12.000          28.000
  21227511.522    -2191260.152 7  -1707471.429 9        25.000         170.000
  21959211.074   -12324933.014 6  -9535026.435 9        16.000          71.000
  22910734.325    -8007661.652 5  -5841886.163 6        10.000          15.000
 90  6 17 20 38 45.1190000  0  4 02 11 09 13
  23572871.827    11681589.723 6   9102518.826 7        13.000          35.000
  21231243.470    -2171654.982 7  -1692194.687 9        25.000         159.000
  21950619.779   -12370082.894 6  -9570208.114 9        16.000          67.000
  22899387.204    -8067284.903 5  -5888345.659 6        11.000          18.000
 90  6 17 20 39  0.2230000  0  4 02 11 09 13
  23579101.722    11714329.650 6   9128030.404 7        12.000          38.000
  21234997.074    -2151920.634 7  -1676817.301 9        25.000         151.000
  21942035.787   -12415196.905 6  -9605361.836 9        17.000          69.000
  22888052.883    -8126840.248 5  -5934752.251 6        11.000          25.000
 90  6 17 20 39 15.0710000  0  4 02 11 09 13
  23585228.465    11746524.857 6   9153117.505 7        12.000          32.000
  21238712.493    -2132398.714 7  -1661605.424 9        25.000         164.000
  21933602.193   -12459514.509 6  -9639894.988 9        16.000          71.000
  22876923.826    -8185323.294 5  -5980323.275 6        11.000          24.000
 90  6 17 20 39 30.1750000  0  4 02 11 09 13
  23591459.841    11779279.846 5   9178640.819 7        11.000          37.000
  21242512.821    -2112422.127 7  -1646039.272 9        25.000         146.000
  21925027.773   -12504569.353 6  -9675002.611 9        16.000          64.000
  22865615.717    -8244756.059 5  -6026634.356 6        11.000          21.000
 90  6 17 20 39 45.0230000  0  4 02 11 09 13
  23597589.005    11811484.366 5   9203735.207 7        11.000          37.000
  21246273.075    -2092668.835 7  -1630647.110 9        25.000         150.000
  21916604.732   -12548834.503 6  -9709494.883 9        17.000          71.000
  22854509.940    -8303124.105 5  -6072115.783 6        11.000          21.000
 90  6 17 20 40  0.1270000  0  4 02 11 09 13
  23603825.418    11844251.061 5   9229267.627 7        11.000          36.000
  21250118.656    -2072457.712 7  -1614898.200 9        25.000         159.000
  21908040.496   -12593835.798 6  -9744560.780 9        17.000          72.000
  22843221.527    -8362439.500 5  -6118335.396 6        11.000          14.000
 90  6 17 20 40 15.2310000  0  4 02 11 09 13
  23610061.310    11877028.343 5   9254808.304 8        11.000          40.000
  21253987.814    -2052124.524 7  -1599054.169 9        25.000         152.000
  21899484.126   -12638805.605 6  -9779602.141 9        17.000          70.000
  22831946.127    -8421690.923 5  -6164505.191 6        11.000          21.000
 90  6 17 20 40 30.0790000  0  4 02 11 09 13
  23616195.540    11909256.956 6   9279921.450 8        12.000          40.000
  21257814.548    -2032019.487 7  -1583387.929 9        25.000         149.000
  21891076.949   -12682984.469 6  -9814027.172 9        17.000          74.000
  22820872.007    -8479877.798 5  -6209845.448 6        11.000          23.000
 90  6 17 20 40 45.1830000  0  4 02 11 09 13
  23622434.752    11942045.152 6   9305470.628 8        12.000          40.000
  21261728.478    -2011450.027 7  -1567359.791 9        25.000         147.000
  21882529.562   -12727895.642 6  -9849022.847 9        17.000          72.000
  22809619.428    -8539006.392 5  -6255919.505 6        11.000          25.000
 90  6 17 20 41  0.0310000  0  4 02 11 09 13
  23628570.790    11974285.792 5   9330593.143 7        11.000          33.000
  21265599.086    -1991109.131 7  -1551509.759 9        24.000         144.000
  21874135.235   -12772012.152 6  -9883399.298 9        17.000          73.000
  22798570.887    -8597067.744 5  -6301161.964 6        11.000          19.000
 90  6 17 20 41 15.1350000  0  4 02 11 09 13
  23634812.627    12007087.710 5   9356153.000 7        11.000          38.000
  21269559.710    -1970298.974 7  -1535294.069 9        25.000         149.000
  21865600.685   -12816858.101 6  -9918344.153 9        17.000          79.000
  22787345.675    -8656066.884 5  -6347135.151 6        11.000          20.000
 90  6 17 20 41 30.2390000  0  4 02 11 09 13
  23641053.535    12039894.745 5   9381716.865 8        11.000          44.000
  21273542.429    -1949369.655 7  -1518985.520 9        25.000         155.000
  21857072.887   -12861672.648 6  -9953264.510 9        16.000          73.000
  22776129.367    -8715001.791 5  -6393058.318 6        11.000          20.000
 90  6 17 20 41 45.0870000  0  4 02 11 09 13
  23647193.241    12072149.803 5   9406850.622 7        11.000          34.000
  21277477.913    -1928680.021 7  -1502863.746 9        24.000         146.000
  21848694.802   -12905697.237 6  -9987569.348 9        16.000          83.000
  22765118.039    -8772875.721 5  -6438154.715 7        11.000          28.000
 90  6 17 20 42  0.1910000  0  4 02 11 09 13
  23653438.663    12104967.581 5   9432422.840 8        11.000          40.000
  21281506.856    -1907514.417 7  -1486371.083 9        25.000         151.000
  21840180.467   -12950447.568 6 -10022439.672 9        17.000          79.000
  22753924.156    -8831681.789 5  -6483977.470 6        11.000          22.000
 90  6 17 20 42 15.0390000  0  4 02 11 09 13
  23659578.900    12137236.137 5   9457567.095 7        11.000          34.000
  21285488.516    -1886590.008 7  -1470066.366 9        24.000         152.000
  21831814.723   -12994405.590 6 -10056692.622 9        17.000          79.000
  22742937.866    -8889425.343 5  -6528972.295 7        11.000          30.000
 90  6 17 20 42 30.1430000  0  4 02 11 09 13
  23665826.753    12170069.007 5   9483151.079 7        11.000          35.000
  21289562.631    -1865183.373 7  -1453385.886 9        25.000         146.000
  21823313.606   -13039084.646 6 -10091507.419 9        17.000          75.000
  22731775.017    -8948095.091 5  -6574688.829 6        11.000          23.000
 90  6 17 20 42 45.2470000  0  4 02 11 09 13
  23672076.711    12202909.143 5   9508740.731 8        11.000          45.000
  21293658.372    -1843656.384 7  -1436611.620 9        25.000         151.000
  21814816.474   -13083728.156 6 -10126294.525 9        17.000          79.000
  22720624.140    -9006696.393 5  -6620352.022 7        11.000          27.000
 90  6 17 20 43  0.0950000  0  4 02 11 09 13
  23678220.544    12235197.045 5   9533900.065 8        11.000          41.000
  21297707.419    -1822381.009 7  -1420033.427 9        25.000         154.000
  21806472.263   -13127583.922 6 -10160467.793 9        17.000          79.000
  22709669.589    -9064241.136 5  -6665191.943 6        11.000          21.000
 90  6 17 20 43 15.1990000  0  4 02 11 09 13
  23684471.743    12268048.002 5   9559498.134 7        10.000          33.000
  21301847.023    -1800624.078 7  -1403079.989 9        25.000         144.000
  21797987.931   -13172163.931 6 -10195205.418 9        17.000          79.000
  22698542.237    -9122713.516 5  -6710754.699 7        11.000          27.000
 90  6 17 20 43 30.0470000  0  4 02 11 09 13
  23690618.814    12300353.883 5   9584671.496 7        10.000          34.000
  21305940.455    -1779117.492 7  -1386321.628 9        25.000         150.000
  21789656.744   -13215950.929 6 -10229325.107 9        17.000          81.000
  22687618.148    -9180125.256 5  -6755490.961 6        11.000          25.000
 90  6 17 20 43 45.1510000  0  4 02 11 09 13
  23696875.749    12333222.105 5   9610283.016 7        10.000          38.000
  21310124.945    -1757126.024 7  -1369185.440 9        25.000         153.000
  21781185.528   -13260460.514 6 -10264007.842 9        17.000          81.000
  22676519.052    -9238461.753 5  -6800947.822 6        11.000          23.000
 90  6 17 20 44  0.2550000  0  4 02 11 09 13
  23703130.335    12366099.680 5   9635901.846 7        10.000          39.000
  21314331.908    -1735015.956 7  -1351956.828 9        25.000         141.000
  21772724.087   -13304933.549 6 -10298662.111 9        18.000          82.000
  22665432.061    -9296728.389 5  -6846350.266 6        11.000          15.000
 90  6 17 20 44 15.1030000  0  4 02 11 09 13
  23709280.031    12398428.558 5   9661093.116 7         9.000          35.000
  21318490.543    -1713165.890 7  -1334930.826 9        26.000         148.000
  21764411.124   -13348617.301 6 -10332701.344 9        18.000          81.000
  22654544.021    -9353939.638 5  -6890930.315 7        11.000          27.000
 90  6 17 20 44 30.2070000  0  4 02 11 09 13
  23715541.532    12431323.088 5   9686725.159 7         9.000          35.000
  21322742.381    -1690822.158 7  -1317520.141 9        26.000         151.000
  21755961.871   -13393017.260 6 -10367298.673 9        18.000          74.000
  22643481.199    -9412067.504 5  -6936224.611 6        11.000          23.000
 90  6 17 20 44 45.0550000  0  4 02 11 09 13
  23721695.090    12463667.296 5   9711928.369 7         9.000          31.000
  21326944.737    -1668743.891 7  -1300316.309 9        26.000         147.000
  21747662.709   -13436629.659 6 -10401282.318 9        18.000          72.000
  22632620.423    -9469142.566 5  -6980698.548 6        11.000          17.000
 90  6 17 20 45  0.1590000  0  4 02 11 09 13
  23727961.453    12496579.141 5   9737573.880 7         9.000          38.000
  21331239.223    -1646167.987 7  -1282724.725 9        27.000         149.000
  21739226.817   -13480955.881 6 -10435822.177 9        18.000          81.000
  22621583.303    -9527130.465 5  -7025883.771 7        11.000          29.000
 90  6 17 20 45 15.0070000  0  4 02 11 09 13
  23734116.615    12528939.373 5   9762789.593 7         9.000          33.000
  21335483.788    -1623863.819 7  -1265344.869 9        26.000         147.000
  21730942.017   -13524496.797 6 -10469750.113 9        18.000          78.000
  22610751.815    -9584069.285 5  -7070251.557 7        11.000          31.000
 90  6 17 20 45 30.1110000  0  4 02 11 09 13
  23740383.458    12561865.658 5   9788446.364 7        10.000          35.000
  21339824.313    -1601059.806 7  -1247575.529 9        27.000         149.000
  21722519.854   -13568750.887 6 -10504233.774 9        18.000          84.000
  22599742.878    -9641919.053 5  -7115329.142 7        11.000          28.000
 90  6 17 20 45 45.2150000  0  4 02 11 09 13
  23746649.832    12594795.780 5   9814106.156 7        10.000          36.000
  21344184.340    -1578143.428 7  -1229718.632 9        26.000         145.000
  21714103.821   -13612970.433 6 -10538690.507 9        18.000          84.000
  22588746.302    -9699700.547 5  -7160353.548 6        11.000          24.000
 90  6 17 20 46  0.0630000  0  4 02 11 09 13
  23752813.778    12627175.218 5   9839336.818 7        10.000          34.000
  21348491.308    -1555502.581 7  -1212076.435 9        25.000         143.000
  21705840.688   -13656402.938 6 -10572533.976 9        18.000          78.000
  22577952.028    -9756432.491 5  -7204560.116 7        11.000          28.000
 90  6 17 20 46 15.1670000  0  4 02 11 09 13
  23759080.101    12660120.157 5   9865008.134 7        10.000          35.000
  21352898.008    -1532358.162 7  -1194041.847 9        26.000         148.000
  21697440.120   -13700547.105 6 -10606931.975 9        18.000          83.000
  22566980.857    -9814072.078 5  -7249473.930 6        11.000          20.000
 90  6 17 20 46 30.0150000  0  4 02 11 09 13
  23765248.736    12692515.580 5   9890251.257 7        10.000          37.000
  21357247.737    -1509494.100 7  -1176225.716 9        25.000         150.000
  21689188.336   -13743905.204 6 -10640717.459 9        18.000          80.000
  22556210.752    -9870663.918 5  -7293571.348 6        11.000          22.000
 90  6 17 20 46 45.1190000  0  4 02 11 09 13
  23771519.042    12725479.227 5   9915937.136 7        10.000          30.000
  21361696.032    -1486122.408 7  -1158014.032 9        26.000         152.000
  21680803.663   -13787972.256 6 -10675055.367 9        18.000          76.000
  22545272.260    -9928159.456 5  -7338372.906 7        11.000          28.000
 90  6 17 20 47  0.2230000  0  4 02 11 09 13
  23777794.027    12758455.058 5   9941632.540 7        10.000          38.000
  21366165.636    -1462634.254 7  -1139711.594 9        26.000         149.000
  21672425.987   -13831997.710 6 -10709360.876 9        19.000          83.000
  22534344.197    -9985579.716 5  -7383115.837 6        11.000          23.000
 90  6 17 20 47 15.0710000  0  4 02 11 09 13
  23783965.717    12790879.637 5   9966898.376 7        10.000          37.000
  21370579.486    -1439433.960 7  -1121633.472 9        25.000         142.000
  21664196.289   -13875239.096 6 -10743055.403 9        19.000          80.000
  22523615.321   -10041956.018 5  -7427045.296 6        11.000          23.000
 90  6 17 20 47 30.1750000  0  4 02 11 09 13
  23790242.040    12823866.384 5   9992602.258 7        10.000          33.000
  21375091.013    -1415724.593 7  -1103158.664 9        25.000         145.000
  21655833.313   -13919189.994 6 -10777302.811 9        19.000          84.000
  22512720.029   -10099235.008 6  -7471678.131 6        12.000          23.000
 90  6 17 20 47 45.0230000  0  4 02 11 09 13
  23796412.177    12856293.697 5  10017870.243 7        10.000          38.000
  21379545.784    -1392312.652 7  -1084915.616 9        25.000         151.000
  21647617.680   -13962362.686 6 -10810943.824 9        19.000          80.000
  22502013.380   -10155477.098 6  -7515502.993 6        12.000          24.000
 90  6 17 20 48  0.1270000  0  4 02 11 09 13
  23802690.053    12889282.242 5  10043575.515 7        10.000          34.000
  21384098.999    -1368389.854 7  -1066274.492 9        25.000         147.000
  21639267.606   -14006244.536 6 -10845137.418 9        19.000          85.000
  22491139.836   -10212619.912 6  -7560029.735 7        12.000          33.000
 90  6 17 20 48 15.2310000  0  4 02 11 09 13
  23808968.766    12922282.990 5  10069290.323 7        10.000          33.000
  21388673.972    -1344348.496 7  -1047540.982 9        25.000         137.000
  21630926.205   -14050079.712 6 -10879294.648 9        19.000          81.000
  22480281.874   -10269682.091 6  -7604493.627 7        12.000          31.000
 90  6 17 20 48 30.0790000  0  4 02 11 09 13
  23815142.652    12954724.451 5  10094569.336 7         9.000          30.000
  21393192.332    -1320609.706 7  -1029043.237 9        26.000         149.000
  21622733.138   -14093136.397 6 -10912845.257 9        19.000          82.000
  22469618.333   -10325708.776 6  -7648150.653 7        12.000          27.000
 90  6 17 20 48 45.1830000  0  4 02 11 09 13
  23821424.410    12987727.151 5  10120285.666 7         9.000          34.000
  21397808.064    -1296352.446 7  -1010141.504 9        25.000         146.000
  21614405.558   -14136896.528 7 -10946944.014 9        20.000          85.000
  22458788.479   -10382628.880 6  -7692503.841 7        12.000          29.000
 90  6 17 20 49  0.0310000  0  4 02 11 09 13
  23827594.424    13020169.241 5  10145565.147 7         9.000          30.000
  21402365.987    -1272401.670 7   -991478.575 9        25.000         143.000
  21606227.272   -14179878.589 7 -10980436.484 9        20.000          82.000
  22448154.593   -10438514.764 6  -7736051.144 7        12.000          28.000
 90  6 17 20 49 15.1350000  0  4 02 11 09 13
  23833879.287    13053173.724 5  10171282.870 7         9.000          26.000
  21407022.722    -1247928.339 7   -972408.467 9        25.000         140.000
  21597913.646   -14223560.796 7 -11014474.518 9        20.000          86.000
  22437348.183   -10495289.727 6  -7780291.254 7        12.000          27.000
 90  6 17 20 49 30.2390000  0  4 02 11 09 13
  23840157.071    13086183.925 5  10197005.039 6         9.000          23.000
  21411701.501    -1223342.957 7   -953251.044 9        26.000         147.000
  21589608.978   -14267199.922 6 -11048478.979 9        19.000          92.000
  22426561.273   -10551987.632 6  -7824471.278 7        13.000          30.000
 90  6 17 20 49 45.0870000  0  4 02 11 09 13
  23846333.766    13118637.182 5  10222293.234 7         9.000          27.000
  21416320.225    -1199069.640 7   -934336.789 9        25.000         151.000
  21581452.111   -14310061.199 6 -11081877.330 9        19.000          81.000
  22415966.154   -10607653.176 6  -7867846.904 7        12.000          31.000
 90  6 17 20 50  0.1910000  0  4 02 11 09 13
  23852618.925    13151655.677 5  10248021.843 7         9.000          27.000
  21421039.814    -1174271.048 7   -915013.234 9        25.000         151.000
  21573162.858   -14353621.838 6 -11115820.626 9        19.000          90.000
  22405204.272   -10664204.778 6  -7911912.965 7        12.000          33.000
 90  6 17 20 50 15.0390000  0  4 02 11 09 13
  23858794.731    13184124.327 5  10273322.037 7         8.000          26.000
  21425698.836    -1149784.335 7   -895932.696 9        25.000         144.000
  21565023.043   -14396401.104 6 -11149155.062 9        19.000          97.000
  22394640.911   -10719721.652 6  -7955172.732 7        12.000          27.000
 90  6 17 20 50 30.1430000  0  4 02 11 09 13
  23865082.362    13217157.832 5  10299062.354 6         8.000          19.000
  21430457.794    -1124770.683 7   -876441.557 9        25.000         149.000
  21556748.867   -14439878.857 7 -11183033.782 9        20.000         100.000
  22383908.490   -10776123.163 6  -7999121.835 6        13.000          23.000
 90  6 17 20 50 45.2470000  0  4 02 11 09 13
  23871371.117    13250201.539 5  10324810.636 6         9.000          25.000
  21435238.939    -1099649.378 7   -856866.531 9        25.000         152.000
  21548482.710   -14483314.783 6 -11216879.907 9        19.000         101.000
  22373188.531   -10832448.608 6  -8043011.655 7        13.000          31.000
 90  6 17 20 51  0.0950000  0  4 02 11 09 13
  23877555.361    13282701.234 5  10350135.007 7         8.000          26.000
  21439958.823    -1074845.201 7   -837538.625 9        26.000         151.000
  21540366.328   -14525969.523 6 -11250117.308 9        19.000         103.000
  22362669.219   -10887740.943 6  -8086096.474 7        13.000          26.000
 90  6 17 20 51 15.1990000  0  4 02 11 09 13
  23883850.418    13315781.808 5  10375912.025 6         8.000          25.000
  21444782.657    -1049498.821 7   -817788.215 9        26.000         156.000
  21532118.702   -14569309.219 6 -11283888.447 9        19.000          98.000
  22351982.745   -10943902.399 6  -8129858.515 6        13.000          25.000
 90  6 17 20 51 30.0470000  0  4 02 11 09 13
  23890037.206    13348311.813 5  10401260.005 6         9.000          24.000
  21449543.442    -1024480.726 7   -798293.618 9        26.000         152.000
  21524018.450   -14611875.272 6 -11317056.749 9        19.000         102.000
  22341487.817   -10999039.767 6  -8172822.566 6        13.000          22.000
 90  6 17 20 51 45.1510000  0  4 02 11 09 13
  23896340.313    13381414.639 5  10427054.342 6         9.000          19.000
  21454406.625     -998927.345 7   -778381.907 9        26.000         152.000
  21515787.004   -14655134.241 6 -11350764.988 9        19.000         100.000
  22330829.650   -11055052.614 6  -8216468.805 7        13.000          30.000
 90  6 17 20 52  0.2550000  0  4 02 11 09 13
  23902642.194    13414532.415 5  10452860.348 7         9.000          26.000
  21459289.512     -973266.264 7   -758386.280 9        26.000         152.000
  21507563.578   -14698348.303 6 -11384438.237 9        19.000         105.000
  22320185.274   -11110986.258 6  -8260053.340 6        13.000          24.000
 90  6 17 20 52 15.1030000  0  4 02 11 09 13
  23908840.116    13447103.687 5  10478240.495 6         9.000          21.000
  21464109.014     -947933.756 7   -738646.683 9        26.000         150.000
  21499488.435   -14740784.057 6 -11417505.009 9        19.000         104.000
  22309737.744   -11165892.606 6  -8302837.381 7        13.000          26.000
 90  6 17 20 52 30.2070000  0  4 02 11 09 13
  23915149.934    13480251.363 5  10504069.785 6         8.000          19.000
  21469033.733     -922055.434 7   -718481.780 9        25.000         146.000
  21491283.569   -14783903.312 7 -11451104.381 9        20.000         110.000
  22299122.368   -11221663.773 6  -8346295.310 6        13.000          24.000
 90  6 17 20 52 45.0550000  0  4 02 11 09 13
  23921351.023    13512847.654 5  10529469.421 6         9.000          18.000
  21473894.780     -896511.648 7   -698577.549 9        26.000         151.000
  21483226.037   -14826246.899 7 -11484099.332 9        20.000         116.000
  22288704.840   -11276411.505 6  -8388955.758 7        13.000          27.000
 90  6 17 20 53  0.1590000  0  4 02 11 09 13
  23927662.609    13546011.949 5  10555311.657 6         9.000          22.000
  21478859.378     -870425.872 7   -678250.991 9        26.000         151.000
  21475036.433   -14869278.597 6 -11517630.484 9        19.000         113.000
  22278120.305   -11332027.481 6  -8432292.758 7        12.000          28.000
 90  6 17 20 53 15.0070000  0  4 02 11 09 13
  23933865.168    13578622.632 5  10580722.542 6         8.000          21.000
  21483758.824     -844676.825 7   -658186.824 9        26.000         150.000
  21466995.378   -14911533.787 7 -11550556.569 9        20.000         110.000
  22267734.025   -11386620.170 6  -8474832.386 6        13.000          25.000
 90  6 17 20 53 30.1110000  0  4 02 11 09 13
  23940184.334    13611797.843 5  10606573.289 6         8.000          20.000
  21488762.740     -818381.237 7   -637696.778 9        26.000         143.000
  21458824.979   -14954473.316 7 -11584015.893 9        20.000         111.000
  22257180.176   -11442075.964 6  -8518044.568 6        13.000          24.000
 90  6 17 20 53 45.2150000  0  4 02 11 09 13
  23946491.353    13644973.919 5  10632424.723 6         8.000          24.000
  21493786.146     -791982.234 7   -617126.150 9        25.000         152.000
  21450662.792   -14997367.705 7 -11617440.058 9        20.000         107.000
  22246642.794   -11497452.241 6  -8561194.807 6        13.000          24.000
 90  6 17 20 54  0.0630000  0  4 02 11 09 13
  23952701.176    13677589.418 5  10657839.332 6         8.000          20.000
  21498743.992     -765926.519 7   -596823.026 9        25.000         150.000
  21442647.112   -15039487.329 6 -11650260.505 9        19.000         110.000
  22236297.008   -11551808.631 6  -8603550.312 7        13.000          28.000
 90  6 17 20 54 15.1670000  0  4 02 11 09 13
  23959014.437    13710767.627 4  10683692.427 6         7.000          22.000
  21503808.361     -739315.294 7   -576087.035 9        26.000         149.000
  21434503.405   -15082283.482 6 -11683608.109 9        19.000         112.000
  22225792.856   -11607018.523 6  -8646570.889 7        13.000          29.000
 90  6 17 20 54 30.0150000  0  4 02 11 09 13
  23965219.601    13743380.935 4  10709105.315 6         7.000          18.000
  21508806.076     -713054.182 7   -555623.854 9        26.000         154.000
  21426505.805   -15124308.429 6 -11716354.778 9        19.000         112.000
  22215479.441   -11661213.396 6  -8688800.546 7        13.000          30.000
 90  6 17 20 54 45.1190000  0  4 02 11 09 13
  23971534.385    13776553.370 4  10734953.893 6         7.000          13.000
  21513909.283     -686240.088 7   -534729.780 9        26.000         153.000
  21418380.199   -15167013.035 7 -11749631.047 9        20.000         101.000
  22205004.535   -11716264.008 6  -8731697.005 6        13.000          25.000
 90  6 17 20 55  0.2230000  0  4 02 11 09 13
  23977848.616    13809726.102 4  10760802.719 6         7.000          18.000
  21519031.511     -659322.778 7   -513755.279 9        26.000         144.000
  21410262.511   -15209669.586 7 -11782869.877 9        20.000         109.000
  22194543.798   -11771232.443 6  -8774529.432 7        13.000          27.000
 90  6 17 20 55 15.0710000  0  3 02 11 09
  23984051.154    13842338.439 4  10786214.869 6         7.000          13.000
  21524086.175     -632760.661 7   -493057.547 9        26.000         153.000
  21402292.431   -15251555.468 7 -11815508.186 9        20.000         100.000
 90  6 17 20 55 30.1750000  0  4 02 11 09 13
  23990365.948    13875515.874 4  10812067.329 6         7.000          16.000
  21529246.944     -605637.913 7   -471922.962 9        26.000         151.000
  21394193.701   -15294114.236 7 -11848670.815 9        20.000         111.000
  22173848.554   -11879990.520 6  -8859275.760 7        13.000          32.000
 90  6 17 20 55 45.0230000  0  4 02 11 09 13
  23996572.267    13908136.295 4  10837485.779 6         7.000          12.000
  21534340.702     -578874.223 7   -451068.160 9        26.000         156.000
  21386241.069   -15335902.938 7 -11881233.404 9        20.000         111.000
  22163612.294   -11933782.275 6  -8901191.310 7        13.000          30.000
 90  6 17 20 56  0.1270000  0  4 02 11 09 13
  24002885.354    13941322.933 5  10863345.427 6         8.000          15.000
  21539540.054     -551550.622 7   -429777.067 9        26.000         149.000
  21378159.593   -15378365.975 7 -11914321.443 9        20.000         107.000
  22153214.870   -11988421.195 6  -8943766.967 7        13.000          29.000
 90  6 17 20 56 15.2310000  0  4 02 11 09 13
  24009206.971    13974519.036 5  10889212.454 5         8.000           8.000
  21544759.550     -524125.499 7   -408406.876 9        26.000         147.000
  21370090.028   -15420779.428 6 -11947370.839 9        19.000         106.000
  22142831.236   -12042975.947 6  -8986277.049 7        12.000          28.000
 90  6 17 20 56 30.0790000  0  4 02 11 09 13
  24015419.664    14007164.915 4  10914650.743 5         7.000          11.000
  21549907.468     -497066.307 7   -387321.807 9        26.000         151.000
  21362165.222   -15462425.175 7 -11979822.030 9        20.000         102.000
  22132640.271   -12096524.040 6  -9028002.738 7        13.000          31.000
 90  6 17 20 56 45.1830000  0  4 02 11 09 13
  24021738.768    14040383.703 4  10940535.464 6         7.000          15.000
  21555163.994     -469443.356 7   -365797.466 9        26.000         151.000
  21354112.624   -15504742.140 7 -12012796.237 9        20.000         108.000
  22122293.289   -12150914.726 6  -9070384.975 7        13.000          30.000
 90  6 17 20 57  0.0310000  0  4 02 11 09 13
  24027955.374    14073048.116 4  10965988.199 6         7.000          14.000
  21560349.310     -442193.026 7   -344563.461 9        26.000         151.000
  21346205.225   -15546295.100 6 -12045175.127 9        19.000         111.000
  22112131.396   -12204303.404 6  -9111986.443 7        13.000          33.000
 90  6 17 20 57 15.1350000  0  4 02 11 09 13
  24034278.993    14106284.492 4  10991886.611 5         7.000           8.000
  21565643.590     -414373.993 7   -322886.320 9        25.000         152.000
  21338171.944   -15588514.740 7 -12078073.494 9        20.000         106.000
  22101814.569   -12258528.758 6  -9154239.853 7        13.000          29.000
 90  6 17 20 57 30.2390000  0  4 02 11 09 13
  24040604.491    14139530.468 3  11017792.493 6         6.000          15.000
  21570956.524     -386454.009 7   -301130.516 9        25.000         158.000
  21330145.712   -15630682.199 7 -12110931.208 9        20.000         108.000
  22091508.776   -12312667.678 6  -9196425.914 7        13.000          37.000
 90  6 17 20 57 45.0870000  0  4 02 11 09 13
  24046823.487    14172223.437 4  11043267.470 6         7.000          16.000
  21576198.421     -358907.214 7   -279665.505 9        25.000         149.000
  21322268.713   -15672081.932 7 -12143190.700 9        20.000         113.000
  22081397.407   -12365802.653 6  -9237829.690 7        13.000          33.000
 90  6 17 20 58  0.1910000  0  4 02 11 09 13
  24053158.792    14205488.164 4  11069187.986 6         7.000          20.000
  21581550.040     -330785.444 7   -257752.466 9        25.000         150.000
  21314262.615   -15714142.613 6 -12175965.207 9        19.000         106.000
  22071132.535   -12419767.108 6  -9279879.812 7        14.000          32.000
 90  6 17 20 58 15.0390000  0  4 02 11 09 13
  24059383.315    14238191.724 4  11094671.264 6         7.000          16.000
  21586827.954     -303046.373 7   -236137.634 9        25.000         155.000
  21306404.525   -15755442.206 6 -12208146.656 9        19.000         111.000
  22061052.773   -12472735.238 6  -9321153.566 7        14.000          35.000
 90  6 17 20 58 30.1430000  0  4 02 11 09 13
  24065712.818    14271463.297 4  11120597.102 6         7.000          17.000
  21592217.410     -274730.786 7   -214073.565 9        25.000         154.000
  21298420.369   -15797401.441 6 -12240842.114 9        19.000         104.000
  22050812.754   -12526530.489 6  -9363071.836 7        13.000          34.000
 90  6 17 20 58 45.2470000  0  4 02 11 09 13
  24072042.065    14304736.246 4  11146524.016 6         7.000          19.000
  21597624.273     -246317.132 7   -191933.087 9        25.000         150.000
  21290445.437   -15839308.230 7 -12273496.707 9        20.000         104.000
  22040592.707   -12580239.143 6  -9404922.637 7        14.000          30.000
 90  6 17 20 59  0.0950000  0  4 02 11 09 13
  24078268.304    14337445.606 4  11172011.789 6         7.000          19.000
  21602956.933     -218290.033 7   -170093.804 9        25.000         146.000
  21282615.005   -15880453.517 6 -12305557.927 9        19.000         102.000
  22030563.816   -12632952.969 6  -9445998.244 7        14.000          30.000
 90  6 17 20 59 15.1990000  0  4 02 11 09 13
  24084600.391    14370723.887 4  11197942.839 6         7.000          22.000
  21608401.214     -189679.623 7   -147800.006 9        25.000         154.000
  21274662.700   -15922252.174 6 -12338128.264 9        19.000         111.000
  22020375.651   -12686485.695 6  -9487711.945 7        13.000          32.000
 90  6 17 20 59 30.0470000  0  4 02 11 09 13
  24090823.820    14403445.601 4  11223440.233 6         7.000          12.000
  21613772.262     -161455.767 7   -125807.425 9        26.000         159.000
  21266854.244   -15963286.497 6 -12370103.009 9        19.000         103.000
  22010378.580   -12739021.967 6  -9528649.206 8        13.000          41.000
 90  6 17 20 59 45.1510000  0  4 02 11 09 13
  24097164.877    14436732.671 5  11249378.159 6         8.000          13.000
  21619253.736     -132654.116 7   -103364.599 9        26.000         152.000
  21258917.486   -16004979.688 6 -12402591.162 9        18.000         110.000
  22000223.716   -12792381.708 6  -9570228.120 7        13.000          39.000
 90  6 17 21  0  0.2550000  0  4 02 11 09 13
  24103500.182    14470025.920 4  11275320.900 6         7.000          12.000
  21624751.034     -103755.907 7    -80846.543 9        25.000         148.000
  21250996.051   -16046618.691 6 -12435037.091 9        19.000         112.000
  21990087.382   -12845653.185 6  -9611738.264 7        14.000          33.000
 90  6 17 21  0 15.1030000  0  4 02 11 09 13
  24109728.259    14502759.548 4  11300827.548 5         7.000          11.000
  21630175.885      -75256.131 7    -58638.954 9        26.000         151.000
  21243216.454   -16087501.212 6 -12466893.564 9        19.000         106.000
  21980137.803   -12897937.774 6  -9652479.407 7        14.000          39.000
 90  6 17 21  0 30.2070000  0  4 02 11 09 13
  24116065.107    14536067.447 5  11326781.719 6         8.000          12.000
  21635711.039      -46167.924 7    -35972.844 9        25.000         163.000
  21235313.713   -16129032.296 6 -12499255.398 9        19.000         113.000
  21970031.461   -12951033.957 6  -9693852.957 7        13.000          39.000
 90  6 17 21  0 45.0550000  0  4 02 11 09 13
  24122299.027    14568821.443 4  11352304.247 5         7.000          11.000
  21641170.734      -17477.835 7    -13616.963 9        25.000         147.000
  21227553.565   -16169803.982 6 -12531025.490 9        19.000         111.000
  21960118.482   -13003141.742 6  -9734456.319 7        14.000          35.000
 90  6 17 21  1  0.1590000  0  4 02 11 09 13
  24128644.629    14602151.063 4  11378275.286 6         7.000          16.000
  21646742.398       11802.568 7      9198.913 9        26.000         147.000
  21219672.275   -16211222.401 6 -12563299.535 9        19.000         108.000
  21950047.372   -13056058.196 6  -9775689.823 8        14.000          41.000
 90  6 17 21  1 15.0070000  0  4 02 11 09 13
  24134876.965    14634930.029 4  11403817.313 6         7.000          13.000
  21652239.133       40683.380 7     31703.416 9        26.000         159.000
  21211935.653   -16251880.238 6 -12594980.921 9        19.000         106.000
  21940166.429   -13107986.149 6  -9816153.081 7        14.000          39.000
 90  6 17 21  1 30.1110000  0  4 02 11 09 13
  24141228.584    14668282.551 5  11429806.249 5         8.000           9.000
  21657846.324       70153.555 7     54667.152 9        26.000         154.000
  21204074.937   -16293185.613 6 -12627166.889 9        19.000         110.000
  21930131.471   -13160722.389 6  -9857246.153 7        14.000          38.000
 90  6 17 21  1 45.2150000  0  4 02 11 09 13
  24147572.838    14701647.314 4  11455804.657 5         7.000           9.000
  21663472.628       99719.333 7     77705.394 9        25.000         159.000
  21196227.756   -16334433.297 7 -12659307.890 9        20.000         113.000
  21920111.907   -13213366.909 6  -9898267.754 8        14.000          43.000
 90  6 17 21  2  0.0630000  0  4 02 11 09 13
  24153818.873    14734455.078 4  11481369.116 6         7.000          19.000
  21669020.541      128874.670 7    100423.812 9        25.000         158.000
  21188521.167   -16374927.459 7 -12690861.733 9        20.000         114.000
  21910280.650   -13265031.826 6  -9938526.031 7        14.000          36.000
 90  6 17 21  2 15.1670000  0  4 02 11 09 13
  24160167.172    14767836.023 3  11507380.186 6         6.000          14.000
  21674681.852      158624.087 7    123605.146 9        25.000         154.000
  21180692.680   -16416064.623 7 -12722916.630 9        20.000         117.000
  21900297.320   -13317498.884 6  -9979409.366 7        14.000          31.000
 90  6 17 21  2 30.0150000  0  4 02 11 09 13
  24166415.567    14800657.501 4  11532955.300 6         7.000          13.000
  21680263.505      187956.814 7    146461.785 9        24.000         154.000
  21173007.215   -16456451.947 7 -12754387.230 9        20.000         118.000
  21890497.720   -13368991.279 6 -10019533.222 8        15.000          40.000
 90  6 17 21  2 45.1190000  0  4 02 11 09 13
  24172769.617    14834056.840 3  11558980.698 6         6.000          14.000
  21685960.130      217890.324 7    169786.565 9        25.000         154.000
  21165199.210   -16497475.495 7 -12786353.586 9        20.000         119.000
  21880548.687   -13421277.742 6 -10060275.823 7        14.000          39.000
 90  6 17 21  3  0.2230000  0  4 02 11 09 13
  24179127.794    14867464.348 3  11585012.440 6         6.000          13.000
  21691673.119      247917.145 7    193184.061 9        25.000         148.000
  21157405.434   -16538440.187 7 -12818274.083 9        20.000         119.000
  21870616.524   -13473471.626 6 -10100946.287 8        14.000          47.000
 90  6 17 21  3 15.0710000  0  4 02 11 09 13
  24185382.205    14900311.982 3  11610607.924 6         6.000          17.000
  21697308.933      277524.893 7    216255.001 9        25.000         152.000
  21149753.098   -16578653.703 7 -12849609.249 9        20.000         128.000
  21860870.532   -13524691.151 6 -10140857.523 7        14.000          38.000
 90  6 17 21  3 30.1750000  0  4 02 11 09 13
  24191738.308    14933731.908 3  11636649.410 5         6.000          11.000
  21703057.144      307733.261 7    239793.955 9        25.000         155.000
  21141978.373   -16619503.426 7 -12881440.162 9        21.000         128.000
  21850969.637   -13576703.421 6 -10181386.460 8        14.000          44.000
 90  6 17 21  3 45.0230000  0  4 02 11 09 13
  24197991.351    14966592.980 3  11662255.380 5         6.000          10.000
  21708725.146      337519.476 7    263003.958 9        24.000         144.000
  21134349.276   -16659602.658 7 -12912686.265 9        21.000         127.000
  21841260.186   -13627743.331 6 -10221157.730 8        15.000          51.000
 90  6 17 21  4  0.1270000  0  4 02 11 09 13
  24204353.573    15000024.654 3  11688305.975 6         6.000          12.000
  21714507.261      367907.787 7    286683.134 9        24.000         145.000
  21126597.546   -16700336.205 7 -12944426.660 9        21.000         123.000
  21831395.994   -13679573.007 6 -10261544.400 8        15.000          45.000
 90  6 17 21  4 15.2310000  0  4 02 11 09 13
  24210718.431    15033457.065 3  11714357.137 5         6.000          10.000
  21720306.425      398382.271 7    310429.451 9        25.000         143.000
  21118856.277   -16741014.840 7 -12976124.252 9        21.000         127.000
  21821549.782   -13731314.297 6 -10301862.192 7        15.000          37.000
 90  6 17 21  4 30.0790000  0  4 02 11 09 13
  24216973.721    15066329.141 4  11739971.700 6         7.000          12.000
  21726024.072      428429.891 7    333843.151 9        24.000         144.000
  21111258.551   -16780944.067 7 -13007237.893 9        21.000         129.000
  21811888.781   -13782086.216 6 -10341424.637 8        15.000          40.000
 90  6 17 21  4 45.1830000  0  4 02 11 09 13
  24223336.627    15099776.452 4  11766034.469 6         7.000          17.000
  21731858.836      459089.791 7    357733.948 9        24.000         142.000
  21103541.797   -16821497.160 7 -13038837.665 9        22.000         121.000
  21802078.158   -13833635.698 6 -10381592.969 8        15.000          41.000
 90  6 17 21  5  0.0310000  0  4 02 11 09 13
  24229593.327    15132658.021 4  11791656.415 5         7.000           6.000
  21737611.051      489315.525 7    381286.439 9        25.000         143.000
  21095966.535   -16861305.829 7 -13069857.366 9        21.000         128.000
  21792452.042   -13884221.871 6 -10421010.684 7        15.000          37.000
 90  6 17 21  5 15.1350000  0  4 02 11 09 13
  24235962.516    15166107.252 4  11817720.677 6         7.000          14.000
  21743477.410      520146.253 7    405310.351 9        25.000         147.000
  21088270.937   -16901745.265 7 -13101368.568 9        21.000         131.000
  21782678.021   -13935591.454 6 -10461038.835 8        15.000          41.000
 90  6 17 21  5 30.2390000  0  3 11 09 13
  21749361.227      551066.497 7    429404.011 9        24.000         136.000
  21080585.463   -16942122.996 7 -13132831.700 9        21.000         132.000
  21772920.568   -13986865.962 6 -10500992.896 7        15.000          35.000
 90  6 17 21  5 45.0870000  0  3 11 09 13
  21755162.607      581548.677 7    453156.332 9        25.000         137.000
  21073045.105   -16981756.947 7 -13163715.259 9        22.000         126.000
  21763345.835   -14037179.919 6 -10540198.493 8        15.000          41.000
 90  6 17 21  6  0.1910000  0  3 11 09 13
  21761079.960      612644.330 7    477386.683 9        25.000         136.000
  21065385.057   -17022012.837 7 -13195083.432 9        22.000         128.000
  21753623.809   -14088267.191 6 -10580006.658 8        15.000          51.000
 90  6 17 21  6 15.0390000  0  3 11 09 13
  21766913.457      643297.401 7    501272.153 9        25.000         140.000
  21057864.180   -17061526.950 7 -13225873.613 9        21.000         126.000
  21744084.716   -14138397.108 6 -10619068.835 8        15.000          43.000
 90  6 17 21  6 30.1430000  0  3 11 09 13
  21772864.254      674566.704 7    525637.815 9        25.000         133.000
  21050227.350   -17101659.740 7 -13257145.865 9        22.000         125.000
  21734397.687   -14189295.798 6 -10658730.071 8        15.000          48.000
 90  6 17 21  6 45.2470000  0  3 11 09 13
  21778829.496      705923.504 7    550071.650 9        25.000         139.000
  21042602.718   -17141729.569 7 -13288369.074 9        21.000         123.000
  21724732.488   -14240098.488 6 -10698316.476 8        15.000          41.000
 90  6 17 21  7  0.0950000  0  3 11 09 13
  21784710.799      736827.182 7    574152.404 9        25.000         142.000
  21035117.349   -17181065.155 7 -13319020.133 9        21.000         125.000
  21715243.317   -14289953.123 6 -10737164.157 8        15.000          43.000
 90  6 17 21  7 15.1990000  0  3 11 09 13
  21790710.649      768357.616 7    598721.539 9        25.000         136.000
  21027516.548   -17221007.954 7 -13350144.348 9        22.000         120.000
  21705613.320   -14340563.911 6 -10776601.043 7        15.000          36.000
 90  6 17 21  7 30.0470000  0  3 11 09 13
  21796626.817      799440.864 7    622942.216 9        26.000         135.000
  21020057.177   -17260208.493 7 -13380690.184 9        22.000         123.000
  21696165.909   -14390219.525 6 -10815293.640 8        15.000          40.000
 90  6 17 21  7 45.1510000  0  3 11 09 13
  21802659.039      831145.996 7    647647.482 9        25.000         131.000
  21012480.914   -17300020.640 7 -13411712.588 9        22.000         124.000
  21686568.938   -14440634.372 6 -10854577.845 8        15.000          42.000
 90  6 17 21  8  0.2550000  0  3 11 09 13
  21808709.791      862937.647 7    672420.161 9        26.000         132.000
  21004916.316   -17339767.381 7 -13442684.035 9        22.000         128.000
  21676995.339   -14490951.334 6 -10893785.776 8        15.000          45.000
 90  6 17 21  8 15.1030000  0  3 11 09 13
  21814673.111      894274.585 7    696838.520 9        26.000         131.000
  20997494.496   -17378776.456 7 -13473080.674 9        22.000         123.000
  21667601.098   -14540319.565 6 -10932254.423 8        15.000          48.000
 90  6 17 21  8 30.2070000  0  3 11 09 13
  21820755.183      926239.406 7    721746.137 9        25.000         127.000
  20989956.029   -17418390.195 7 -13503948.477 9        22.000         128.000
  21658062.915   -14590439.017 6 -10971308.458 8        15.000          43.000
 90  6 17 21  8 45.0550000  0  3 11 09 13
  21826750.875      957744.982 7    746295.897 9        25.000         129.000
  20982557.844   -17457268.772 7 -13534243.434 9        22.000         132.000
  21648704.866   -14639613.714 6 -11009626.309 9        15.000          54.000
 90  6 17 21  9  0.1590000  0  3 11 09 13
  21832864.266      989879.890 7    771336.051 9        25.000         112.000
  20975044.944   -17496749.852 7 -13565007.876 9        23.000         130.000
  21639205.379   -14689536.183 6 -11048526.847 8        15.000          47.000
 90  6 17 21  9 15.0070000  0  3 11 09 13
  21838892.790     1021551.506 7    796015.200 9        24.000         119.000
  20967671.175   -17535497.771 7 -13595201.026 9        23.000         126.000
  21629885.586   -14738517.012 6 -11086693.645 8        15.000          53.000
 90  6 17 21  9 30.1110000  0  3 11 09 13
  21845040.586     1053853.194 7    821185.299 9        25.000         122.000
  20960182.976   -17574846.733 7 -13625862.507 9        23.000         129.000
  21620421.025   -14788243.212 6 -11125441.234 8        15.000          46.000
 90  6 17 21  9 45.2150000  0  3 11 09 13
  21851203.407     1086240.039 7    846421.774 9        25.000         121.000
  20952707.771   -17614127.031 7 -13656470.498 9        23.000         134.000
  21610979.876   -14837868.473 6 -11164110.173 8        15.000          51.000
 90  6 17 21 10  0.0630000  0  3 11 09 13
  21857277.501     1118164.229 7    871297.728 9        24.000         118.000
  20945372.656   -17652670.731 7 -13686504.514 9        22.000         132.000
  21601714.102   -14886550.123 6 -11202043.834 8        16.000          50.000
 90  6 17 21 10 15.1670000  0  3 11 09 13
  21863473.042     1150722.461 7    896667.741 9        24.000         114.000
  20937925.359   -17691810.245 7 -13717002.799 9        22.000         135.000
  21592309.728   -14935970.776 6 -11240553.341 8        16.000          53.000
 90  6 17 21 10 30.0150000  0  3 11 09 13
  21869578.731     1182806.499 7    921668.255 9        24.000         116.000
  20930616.181   -17730223.066 7 -13746934.829 9        22.000         135.000
  21583083.229   -14984459.265 6 -11278336.481 8        16.000          50.000
 90  6 17 21 10 45.1190000  0  3 11 09 13
  21875804.937     1215526.090 7    947164.010 9        24.000         114.000
  20923193.931   -17769229.460 7 -13777329.381 9        23.000         129.000
  21573714.117   -15033683.543 6 -11316692.974 8        16.000          46.000
 90  6 17 21 11  0.2230000  0  3 11 09 13
  21882045.129     1248321.403 7    972718.763 9        24.000         113.000
  20915781.713   -17808173.202 7 -13807675.124 9        23.000         125.000
  21564366.395   -15082813.455 6 -11354975.924 8        16.000          45.000
 90  6 17 21 11 15.0710000  0  3 11 09 13
  21888195.126     1280634.458 7    997897.725 9        24.000         117.000
  20908509.452   -17846395.348 7 -13837458.583 9        23.000         131.000
  21555194.079   -15131018.390 6 -11392538.129 8        16.000          44.000
 90  6 17 21 11 30.1750000  0  3 11 09 13
  21894466.199     1313587.773 7   1023575.592 9        24.000         110.000
  20901123.140   -17885204.958 7 -13867699.807 9        23.000         135.000
  21545880.313   -15179951.445 6 -11430667.692 8        16.000          48.000
 90  6 17 21 11 45.0230000  0  3 11 09 13
  21900643.752     1346060.387 7   1048878.897 9        24.000         116.000
  20893877.041   -17923289.792 7 -13897376.267 9        23.000         137.000
  21536745.404   -15227957.170 6 -11468074.655 8        16.000          48.000
 90  6 17 21 12  0.1270000  0  3 11 09 13
  21906945.572     1379171.890 7   1074680.038 9        24.000         115.000
  20886516.552   -17961962.453 7 -13927510.772 9        22.000         134.000
  21527473.245   -15276690.607 6 -11506048.672 8        16.000          47.000
 90  6 17 21 12 15.2310000  0  3 11 09 13
  21913261.734     1412367.744 7   1100546.892 9        23.000         118.000
  20879172.458   -18000560.477 7 -13957587.126 9        23.000         134.000
  21518218.298   -15325317.744 6 -11543939.858 8        16.000          52.000
 90  6 17 21 12 30.0790000  0  3 11 09 13
  21919488.177     1445081.384 7   1126038.006 9        24.000         118.000
  20871965.392   -18038432.550 7 -13987097.801 9        23.000         144.000
  21509142.484   -15373018.472 6 -11581109.163 8        16.000          45.000
 90  6 17 21 12 45.1830000  0  3 11 09 13
  21925835.352     1478440.718 7   1152032.255 9        23.000         116.000
  20864648.461   -18076884.246 7 -14017060.130 9        23.000         133.000
  21499927.029   -15421437.552 6 -11618838.233 8        17.000          44.000
 90  6 17 21 13  0.0310000  0  3 11 09 13
  21932090.539     1511307.802 7   1177642.936 9        23.000         125.000
  20857467.013   -18114618.650 7 -14046463.536 9        23.000         142.000
  21490890.677   -15468939.926 6 -11655852.977 8        17.000          50.000
 90  6 17 21 13 15.1340000  0  3 11 09 13
  21938466.695     1544811.587 7   1203749.738 9        23.000         124.000
  20850176.846   -18152935.796 7 -14076321.022 9        23.000         140.000
  21481712.467   -15517161.911 6 -11693428.464 8        16.000          51.000
 90  6 17 21 13 30.2380000  0  3 11 09 13
  21944857.918     1578402.473 7   1229924.417 9        23.000         128.000
  20842898.896   -18191176.960 7 -14106119.304 9        23.000         142.000
  21472555.923   -15565277.491 6 -11730921.037 8        17.000          52.000
 90  6 17 21 13 45.0860000  0  4 12 11 09 13
  24078296.758                                           0.734 2         4.000
  21951158.634     1611512.615 7   1255724.481 9        23.000         116.000
  20835760.945   -18228686.877 7 -14135347.774 9        23.000         146.000
  21463577.879   -15612464.424 6 -11767689.994 8        17.000          48.000
 90  6 17 21 14  0.1900000  0  4 12 11 09 13
  24068287.717      -52593.970 2                         4.000
  21957582.943     1645270.977 7   1282029.662 9        23.000         130.000
  20828514.203   -18266771.077 7 -14165023.742 9        23.000         149.000
  21454461.277   -15660361.955 6 -11805012.662 8        17.000          52.000
 90  6 17 21 14 15.0380000  0  3 11 09 13
  21963912.273     1678530.646 7   1307946.247 9        23.000         124.000
  20821403.210   -18304140.469 7 -14194142.720 9        23.000         148.000
  21445521.387   -15707348.411 6 -11841625.403 9        17.000          56.000
 90  6 17 21 14 30.1420000  0  3 11 09 13
  21970363.785     1712438.188 7   1334367.664 9        23.000         128.000
  20814182.261   -18342083.232 7 -14223708.476 9        23.000         147.000
  21436445.411   -15755043.586 6 -11878790.389 8        17.000          51.000
 90  6 17 21 14 45.2460000  0  3 11 09 13
  21976831.886     1746423.174 7   1360849.436 9        23.000         123.000
  20806976.338   -18379951.606 7 -14253216.269 9        23.000         156.000
  21427388.006   -15802633.613 6 -11915873.442 8        17.000          50.000
 90  6 17 21 15  0.0940000  0  3 11 09 13
  21983201.943     1779899.754 7   1386935.032 9        22.000         120.000
  20799905.409   -18417112.713 7 -14282172.943 9        23.000         153.000
  21418504.003   -15849322.032 6 -11952253.952 8        17.000          53.000
 90  6 17 21 15 15.1980000  0  3 11 09 13
  21989696.195     1814029.275 7   1413529.428 9        23.000         121.000
  20792724.330   -18454840.346 7 -14311571.070 9        23.000         150.000
  21409485.651   -15896711.089 6 -11989180.410 9        17.000          56.000
 90  6 17 21 15 30.0460000  0  3 11 09 13
  21996094.589     1847650.820 7   1439727.997 9        22.000         126.000
  20785681.299   -18491858.910 7 -14340416.668 9        23.000         146.000
  21400641.488   -15943197.814 6 -12025403.753 9        18.000          58.000
 90  6 17 21 15 45.1500000  0  3 11 09 13
  22002617.709     1881930.956 7   1466439.743 9        22.000         124.000
  20778529.221   -18529436.982 7 -14369698.254 9        23.000         150.000
  21391663.823   -15990377.325 6 -12062166.921 8        17.000          53.000
 90  6 17 21 16  0.2540000  0  3 11 09 13
  22009157.071     1916292.424 7   1493214.869 9        23.000         118.000
  20771394.120   -18566933.257 7 -14398916.096 9        22.000         153.000
  21382703.840   -16037445.049 6 -12098842.996 9        17.000          55.000
 90  6 17 21 16 15.1020000  0  3 11 09 13
  22015599.492     1950148.470 7   1519596.165 9        23.000         122.000
  20764394.524   -18603715.907 7 -14427577.875 9        22.000         153.000
  21373921.663   -16083607.593 6 -12134813.733 8        17.000          53.000
 90  6 17 21 16 30.2060000  0  4 12 11 09 13
  23968728.918      -37387.962 3                         5.000
  22022167.139     1984659.867 7   1546488.125 9        23.000         122.000
  20757288.925   -18641059.148 7 -14456676.467 9        22.000         148.000
  21365003.419   -16130462.906 6 -12171324.289 9        17.000          57.000
 90  6 17 21 16 45.0540000  0  4 12 11 09 13
  23958861.162      -89241.747 3                         6.000
  22028636.640     2018655.943 7   1572978.533 9        23.000         118.000
  20750317.032   -18677697.484 7 -14485225.788 9        22.000         145.000
  21356258.620   -16176422.824 6 -12207137.131 8        17.000          52.000
 90  6 17 21 17  0.1580000  0  4 12 11 09 13
  23948823.426     -141995.651 3                         6.000
  22035232.543     2053317.277 7   1599987.316 9        23.000         120.000
  20743239.719   -18714885.135 7 -14514203.146 9        22.000         146.000
  21347382.402   -16223063.664 6 -12243480.567 9        17.000          55.000
 90  6 17 21 17 15.0060000  0  4 12 11 09 13
  23938951.737     -193864.661 3                         6.000
  22041730.115     2087465.381 7   1626596.191 9        23.000         114.000
  20736298.891   -18751364.349 7 -14542628.473 9        23.000         148.000
  21338678.565   -16268807.134 6 -12279124.755 9        17.000          63.000
 90  6 17 21 17 30.1100000  0  4 12 11 09 13
  23928911.284     -246638.049 3                         5.000
  22048354.794     2122276.515 7   1653721.703 9        23.000         117.000
  20729252.152   -18788393.892 7 -14571482.628 9        23.000         149.000
  21329844.097   -16315231.484 6 -12315299.490 9        17.000          58.000
 90  6 17 21 17 45.2140000  0  4 12 11 09 13
  23918863.486     -299422.844 3                         5.000
  22054993.130     2157160.654 7   1680904.108 9        23.000         115.000
  20722220.082   -18825345.168 7 -14600275.791 9        22.000         151.000
  21321030.253   -16361548.276 6 -12351390.425 9        17.000          62.000
 90  6 17 21 18  0.0620000  0  4 12 11 09 13
  23908985.025     -351322.254 3                         5.000
  22061531.695     2191526.047 7   1707682.292 9        23.000         114.000
  20715321.994   -18861591.849 7 -14628519.931 9        23.000         151.000
  21312385.562   -16406973.193 6 -12386786.396 9        17.000          61.000
 90  6 17 21 18 15.1660000  0  4 12 11 09 13
  23898940.291     -404127.302 3                         5.000
  22068198.981     2226555.814 7   1734978.170 9        23.000         122.000
  20708321.203   -18898384.954 7 -14657189.845 9        23.000         152.000
  21303613.958   -16453073.898 6 -12422708.944 9        17.000          61.000
 90  6 17 21 18 30.0140000  0  4 12 11 09 13
  23889054.588     -456048.301 3                         5.000
  22074765.198     2261061.495 7   1761865.669 9        22.000         123.000
  20701453.587   -18934477.680 7 -14685314.018 9        23.000         147.000
  21295010.649   -16498288.362 6 -12457940.923 9        17.000          65.000
 90  6 17 21 18 45.1180000  0  4 12 11 09 13
  23879006.789     -508871.684 3                         5.000
  22081458.707     2296236.487 7   1789274.708 9        22.000         118.000
  20694481.725   -18971110.403 7 -14713858.964 9        23.000         146.000
  21286276.004   -16544171.582 6 -12493694.012 9        17.000          62.000
 90  6 17 21 19  0.2220000  0  4 12 11 09 13
  23868950.554     -561704.086 3                         5.000
  22088165.954     2331484.138 7   1816740.368 9        23.000         115.000
  20687527.567   -19007661.811 7 -14742340.551 9        23.000         146.000
  21277565.654   -16589944.614 6 -12529361.233 9        17.000          64.000
 90  6 17 21 19 15.0700000  0  4 12 11 09 13
  23859068.170     -613651.935 3                         5.000
  22094773.063     2366202.605 7   1843793.674 9        22.000         114.000
  20680704.264   -19043516.296 7 -14770279.075 9        23.000         151.000
  21269024.575   -16634836.512 6 -12564341.870 9        17.000          63.000
 90  6 17 21 19 30.1740000  0  4 12 11 09 13
  23849003.905     -666514.287 3                         5.000
  22101505.041     2401580.745 7   1871361.009 9        22.000         117.000
  20673776.684   -19079918.117 7 -14798644.102 9        23.000         157.000
  21260353.661   -16680402.991 6 -12599848.136 9        17.000          63.000
 90  6 17 21 19 45.0220000  0  4 12 11 09 13
  23839113.420     -718493.489 3                         5.000
  22108136.104     2436424.446 7   1898511.892 9        23.000         116.000
  20666982.014   -19115627.254 7 -14826469.367 9        23.000         153.000
  21251847.865   -16725093.684 6 -12634671.983 9        17.000          65.000
 90  6 17 21 20  0.1260000  0  4 12 11 09 13
  23829052.690     -771371.141 3                         5.000
  22114895.459     2471945.200 7   1926190.360 9        22.000         110.000
  20660086.050   -19151864.285 7 -14854705.982 9        23.000         150.000
  21243218.139   -16770439.285 6 -12670006.147 9        17.000          58.000
 90  6 17 21 20 15.2300000  0  4 12 11 09 13
  23818991.724     -824251.431 3                         6.000
  22121668.624     2507542.153 7   1953928.206 9        22.000         110.000
  20653206.788   -19188013.161 7 -14882873.901 9        24.000         156.000
  21234615.227   -16815668.391 6 -12705249.535 9        18.000          64.000
 90  6 17 21 20 30.0780000  0  4 12 11 09 13
  23809098.747     -876235.993 3                         6.000
  22128341.865     2542611.535 7   1981254.948 9        22.000         112.000
  20646462.008   -19223461.121 7 -14910495.657 9        24.000         154.000
  21226172.807   -16860015.208 6 -12739805.416 9        17.000          62.000
 90  6 17 21 20 45.1820000  0  4 12 11 09 13
  23799034.656     -929123.565 3                         6.000
  22135144.297     2578355.938 7   2009107.677 9        22.000         108.000
  20639615.098   -19259436.465 7 -14938528.357 9        23.000         158.000
  21217610.868   -16905015.231 6 -12774870.297 9        17.000          59.000
 90  6 17 21 21  0.0300000  0  4 12 11 09 13
  23789138.747     -981123.923 3                         6.000
  22141842.156     2613560.528 7   2036539.785 9        22.000         109.000
  20632900.985   -19294722.252 7 -14966023.742 9        23.000         155.000
  21209210.851   -16949145.735 6 -12809257.644 9        18.000          64.000
 90  6 17 21 21 15.1340000  0  4 12 11 09 13
  23779069.773    -1034029.162 3                         5.000
  22148672.414     2649439.816 7   2064497.625 9        22.000         110.000
  20626086.855   -19330534.003 7 -14993928.968 9        24.000         160.000
  21200690.918   -16993927.236 6 -12844152.237 9        18.000          59.000
 90  6 17 21 21 30.2380000  0  4 12 11 09 13
  23769001.759    -1086945.361 3                         6.000
  22155510.906     2685384.146 7   2092506.151 9        22.000         108.000
  20619285.699   -19366265.273 7 -15021771.484 9        23.000         155.000
  21192189.004   -17038600.663 6 -12878962.626 9        18.000          64.000
 90  6 17 21 21 45.0860000  0  4 12 11 09 13
  23759104.195    -1138963.986 3                         6.000
  22162249.666     2720793.451 7   2120097.781 9        21.000          99.000
  20612618.637   -19401300.978 7 -15049072.008 9        23.000         150.000
  21183858.736   -17082400.125 6 -12913092.010 9        18.000          61.000
 90  6 17 21 22  0.1900000  0  4 12 11 09 13
  23749035.129    -1191878.709 3                         6.000
  22169118.680     2756888.295 7   2148223.579 9        21.000         111.000
  20605854.755   -19436848.837 7 -15076771.600 9        23.000         161.000
  21175400.247   -17126835.868 6 -12947717.184 9        18.000          55.000
 90  6 17 21 22 15.0380000  0  4 12 11 09 13
  23739133.704    -1243903.711 3                         6.000
  22175883.193     2792436.671 7   2175923.561 9        21.000         104.000
  20599221.843   -19471711.812 7 -15103937.524 9        23.000         157.000
  21167108.195   -17170409.548 6 -12981670.632 9        18.000          66.000
 90  6 17 21 22 30.1420000  0  4 12 11 09 13
  23729063.054    -1296826.881 3                         6.000
  22182777.724     2828669.926 7   2204157.225 9        21.000         100.000
  20592487.994   -19507085.888 7 -15131501.706 9        23.000         161.000
  21158693.345   -17214617.783 6 -13016118.538 9        18.000          63.000
 90  6 17 21 22 45.2460000  0  4 12 11 09 13
  23718990.770    -1349755.045 3                         6.000
  22189685.973     2864971.273 7   2232443.940 9        21.000         102.000
  20585773.799   -19542373.014 7 -15158998.138 9        23.000         157.000
  21150306.250   -17258712.033 6 -13050477.625 9        18.000          67.000
 90  6 17 21 23  0.0940000  0  4 12 11 09 13
  23709082.715    -1401794.913 3                         6.000
  22196488.180     2900719.375 7   2260299.557 9        20.000         106.000
  20579188.020   -19576980.847 7 -15185965.257 9        23.000         156.000
  21142075.101   -17301951.706 6 -13084170.798 9        18.000          67.000
 90  6 17 21 23 15.1980000  0  4 12 11 09 13
  23699014.998    -1454737.066 4                         7.000
  22203420.846     2937150.254 7   2288687.213 9        21.000          91.000
  20572506.585   -19612098.857 7 -15213329.911 9        23.000         157.000
  21133728.172   -17345823.939 6 -13118356.888 9        18.000          63.000
 90  6 17 21 23 30.0460000  0  4 12 11 09 13
  23689107.638    -1506787.231 4                         7.000
  22210248.938     2973028.025 7   2316643.877 9        21.000         103.000
  20565952.064   -19646536.991 7 -15240164.799 9        23.000         160.000
  21125540.754   -17388841.834 6 -13151877.251 9        18.000          70.000
 90  6 17 21 23 45.1500000  0  4 12 11 09 13
  23679031.547    -1559741.895 4                         7.000
  22217204.250     3009587.556 7   2345131.772 9        20.000          99.000
  20559301.715   -19681484.181 7 -15267396.350 9        23.000         163.000
  21117235.912   -17432490.619 6 -13185889.216 9        18.000          60.000
 90  6 17 21 24  0.2540000  0  4 12 11 09 13
  23668955.892    -1612704.270 4                         7.000
  22224174.527     3046209.703 7   2373668.465 9        20.000         108.000
  20552667.801   -19716346.299 7 -15294561.602 9        23.000         157.000
  21108950.775   -17476028.091 6 -13219814.440 9        18.000          68.000
 90  6 17 21 24 15.1020000  0  5 12 11 09 13 18
  23659043.935    -1664774.429 4         0.27016         7.000          13.000
  22231036.320     3082273.706 7   2401770.243 9        20.000          94.000
  20546163.099   -19750532.642 7 -15321200.292 9        23.000         159.000
  21100825.271   -17518717.387 6 -13253078.765 9        18.000          70.000
  24202180.708                                           0.215 3         6.000
 90  6 17 21 24 30.2060000  0  5 12 11 09 13 18
  23648963.223    -1717748.282 4    -41277.949 6         7.000          14.000
  22238030.347     3119022.124 7   2430405.335 9        20.000         103.000
  20539561.241   -19785222.348 7 -15348231.202 9        23.000         156.000
  21092583.416   -17562030.617 6 -13286829.252 9        18.000          73.000
  24196146.946      -31709.284 3                                         6.000
 90  6 17 21 24 45.0540000  0  5 12 11 09 13 18
  23639055.179    -1769823.260 4    -81855.780 6         7.000          12.000
  22244918.014     3155215.395 7   2458607.830 9        20.000         103.000
  20533089.606   -19819232.559 7 -15374732.632 9        23.000         167.000
  21084502.992   -17604493.099 6 -13319916.835 9        18.000          67.000
  24190236.614      -62763.875 3                                         6.000
 90  6 17 21 25  0.1580000  0  5 12 11 09 13 18
  23628976.091    -1822784.652 4   -123124.278 5         7.000           5.000
  22251938.927     3192111.480 7   2487357.986 9        20.000         107.000
  20526525.248   -19853725.495 7 -15401610.220 9        23.000         165.000
  21076308.862   -17647558.397 6 -13353474.132 9        18.000          74.000
  24184254.082      -94221.899 3                                         5.000
 90  6 17 21 25 15.0060000  0  5 12 11 09 13 18
  23619069.211    -1874838.692 4   -163685.837 5         7.000          10.000
  22258855.514     3228457.732 7   2515679.691 9        20.000         100.000
  20520091.777   -19887533.238 7 -15427953.885 9        23.000         165.000
  21068274.539   -17689768.382 6 -13386364.958 9        18.000          78.000
  24178394.305     -125017.420 3                                         5.000
 90  6 17 21 25 30.1100000  0  5 12 11 09 13 18
  23608995.017    -1927788.051 4   -204944.952 6         7.000          13.000
  22265903.538     3265499.070 7   2544543.024 9        21.000         105.000
  20513565.256   -19921829.188 7 -15454677.979 9        23.000         171.000
  21060129.064   -17732586.420 6 -13419729.596 9        18.000          75.000
  24172456.668     -156219.655 3         0.18915         5.000           6.000
 90  6 17 21 25 45.2140000  0  5 12 11 09 13 18
  23598918.780    -1980726.131 4   -246195.365 5         7.000           6.000
  22272968.417     3302617.923 7   2573466.761 9        20.000         106.000
  20507058.613   -19956020.574 7 -15481320.588 9        23.000         167.000
  21052004.991   -17775274.504 6 -13452992.962 9        18.000          75.000
  24166542.219     -187288.028 3    -24208.929 5         6.000          10.000
 90  6 17 21 26  0.0620000  0  5 12 11 09 13 18
  23589024.606    -2032737.311 5   -286723.464 6         8.000          13.000
  22279928.805     3339201.432 7   2601973.344 9        20.000         102.000
  20500686.606   -19989511.553 7 -15507417.426 9        23.000         167.000
  21044047.639   -17817093.684 6 -13485579.265 9        18.000          70.000
  24160757.135     -217681.737 3    -47892.313 5         5.000          11.000
 90  6 17 21 26 15.1660000  0  5 12 11 09 13 18
  23579004.776    -2085369.772 4   -327735.675 5         7.000          11.000
  22287074.311     3376755.726 7   2631236.386 9        20.000         104.000
  20494273.585   -20023211.761 7 -15533677.300 9        23.000         176.000
  21036025.410   -17859240.744 6 -13518421.057 9        18.000          77.000
  24154951.395     -248203.644 3    -71675.569 5         5.000          11.000
 90  6 17 21 26 30.0140000  0  5 12 11 09 13 18
  23569162.354    -2137105.479 5   -368049.147 5         8.000           5.000
  22294113.551     3413741.120 7   2660056.126 9        21.000         108.000
  20487988.020   -20056244.690 7 -15559417.219 9        23.000         176.000
  21028164.265   -17900553.232 6 -13550612.535 9        18.000          71.000
  24149262.232     -278084.616 3    -94959.416 6         5.000          13.000
 90  6 17 21 26 45.1180000  0  5 12 11 09 13 18
  23559140.942    -2189780.679 4   -409094.671 6         7.000          13.000
  22301275.453     3451380.037 7   2689385.112 9        21.000         108.000
  20481602.101   -20089801.671 7 -15585565.486 9        23.000         165.000
  21020179.619   -17942508.086 6 -13583304.557 9        18.000          73.000
  24143492.033     -308407.462 3   -118587.573 6         5.000          13.000
 90  6 17 21 27  0.2220000  0  5 12 11 09 13 18
  23549106.546    -2242488.160 5   -450165.329 6         8.000          16.000
  22308443.955     3489050.241 7   2718738.468 9        21.000         107.000
  20475227.112   -20123296.961 7 -15611665.688 9        23.000         166.000
  21012213.973   -17984376.677 6 -13615929.367 9        19.000          68.000
  24137738.576     -338640.542 3   -142145.764 6         5.000          15.000
 90  6 17 21 27 15.0700000  0  5 12 11 09 13 18
  23539248.883    -2294296.778 5   -490535.596 5         8.000          10.000
  22315504.839     3526148.751 7   2747646.354 9        21.000         106.000
  20468979.874   -20156127.414 7 -15637247.830 9        23.000         169.000
  21004405.763   -18025414.792 6 -13647907.040 9        19.000          72.000
  24132105.780     -368238.147 3   -165208.808 5         5.000           7.000
 90  6 17 21 27 30.1740000  0  5 12 11 09 13 18
  23529217.930    -2347012.671 5   -531612.859 5         8.000          10.000
  22322694.241     3563934.682 7   2777089.885 9        21.000          99.000
  20462641.016   -20189444.564 7 -15663209.221 9        23.000         166.000
  20996480.049   -18067057.164 6 -13680355.575 9        19.000          68.000
  24126400.478     -398242.846 3   -188589.088 5         5.000           9.000
 90  6 17 21 27 45.0220000  0  5 12 11 09 13 18
  23519350.685    -2398862.902 4   -572015.578 6         7.000          17.000
  22329769.836     3601112.553 7   2806059.622 9        21.000         105.000
  20456418.918   -20222132.896 7 -15688680.626 9        23.000         167.000
  20988708.164   -18107906.142 6 -13712185.875 9        19.000          67.000
  24120806.786     -427651.897 3   -211505.187 5         6.000          10.000
 90  6 17 21 28  0.1260000  0  5 12 11 09 13 18
  23509314.379    -2451602.274 4   -613111.066 6         7.000          19.000
  22336979.371     3638997.039 7   2835579.953 9        20.000         103.000
  20450109.807   -20255286.344 7 -15714514.458 9        23.000         167.000
  20980822.463   -18149337.029 6 -13744469.615 9        19.000          70.000
  24115134.724     -457446.681 3   -234721.888 6         6.000          16.000
 90  6 17 21 28 15.2300000  0  5 12 11 09 13 18
  23499280.871    -2504336.062 5   -654202.237 6         8.000          22.000
  22344200.991     3676947.566 7   2865151.737 9        20.000         102.000
  20443821.616   -20288339.873 7 -15740270.427 9        23.000         166.000
  20972960.050   -18190644.113 6 -13776656.884 9        18.000          71.000
  24109482.980     -487117.172 3   -257841.699 5         5.000          10.000
 90  6 17 21 28 30.0780000  0  5 12 11 09 13 18
  23489415.690    -2556169.876 5   -694592.158 6         8.000          12.000
  22351312.430     3714319.273 7   2894272.501 9        20.000          99.000
  20437657.019   -20320735.099 7 -15765513.434 9        24.000         164.000
  20965257.923   -18231129.963 6 -13808204.234 9        19.000          70.000
  24103955.063     -516163.039 3   -280474.816 5         5.000          11.000
 90  6 17 21 28 45.1820000  0  5 12 11 09 13 18
  23479387.842    -2608877.551 5   -735662.984 6         8.000          17.000
  22358562.008     3752413.887 7   2923956.571 9        20.000          96.000
  20431407.882   -20353575.302 7 -15791103.174 9        24.000         166.000
  20957447.925   -18272177.088 6 -13840188.938 9        19.000          73.000
  24098364.212     -545572.172 3   -303390.989 6         5.000          18.000
 90  6 17 21 29  0.0300000  0  5 12 11 09 13 18
  23469525.991    -2660684.409 5   -776031.874 6         8.000          15.000
  22365701.386     3789927.591 7   2953187.982 9        20.000          93.000
  20425283.205   -20385759.208 7 -15816181.523 9        23.000         163.000
  20949790.562   -18312406.137 6 -13871536.181 9        19.000          70.000
  24092884.869     -574359.020 3   -325822.249 6         5.000          15.000
 90  6 17 21 29 15.1340000  0  5 12 11 09 13 18
  23459497.019    -2713386.507 5   -817098.370 6         8.000          17.000
  22372972.703     3828143.651 7   2982966.687 9        20.000          96.000
  20419070.046   -20418406.001 7 -15841620.555 9        24.000         158.000
  20942026.807   -18353214.101 6 -13903334.529 9        19.000          71.000
  24087331.149     -603525.285 3   -348549.195 6         5.000          14.000
 90  6 17 21 29 30.2380000  0  5 12 11 09 13 18
  23449468.078    -2766093.287 4   -858168.497 5         7.000          11.000
  22380254.152     3866412.596 7   3012786.603 9        20.000          95.000
  20412875.232   -20450962.592 7 -15866989.303 9        24.000         170.000
  20934283.913   -18393909.027 7 -13935044.786 9        20.000          74.000
  24081801.660     -632575.592 3   -371185.749 6         5.000          14.000
 90  6 17 21 29 45.0860000  0  5 12 11 09 13 18
  23439609.955    -2817902.164 5   -898538.978 6         8.000          17.000
  22387425.125     3904093.065 6   3042147.959 9        19.000         101.000
  20406803.859   -20482870.323 7 -15891852.455 9        24.000         163.000
  20926691.222   -18433794.891 6 -13966124.623 9        19.000          72.000
  24076390.443     -661010.702 3   -393342.935 6         5.000          16.000
 90  6 17 21 30  0.1900000  0  5 12 11 09 13 18
  23429580.626    -2870605.745 5   -939606.636 6         8.000          16.000
  22394728.721     3942477.631 7   3072057.964 9        20.000          94.000
  20400645.585   -20515235.524 7 -15917072.063 9        24.000         156.000
  20918991.353   -18474253.281 6 -13997650.572 9        19.000          76.000
  24070914.205     -689816.259 3   -415788.774 6         6.000          15.000
 90  6 17 21 30 15.0380000  0  5 12 11 09 13 18
  23419720.695    -2922410.578 5   -979973.911 6         8.000          14.000
  22401920.298     3980271.542 7   3101507.720 9        20.000          88.000
  20394609.209   -20546953.943 7 -15941787.703 9        24.000         165.000
  20911447.798   -18513905.722 6 -14028548.523 9        19.000          79.000
  24065552.112     -718009.779 3   -437757.745 5         6.000           9.000
 90  6 17 21 30 30.1420000  0  5 12 11 09 13 18
  23409693.481    -2975112.913 5  -1021040.578 6         9.000          21.000
  22409247.358     4018767.623 7   3131504.620 9        20.000          92.000
  20388486.117   -20579129.132 7 -15966859.251 9        24.000         164.000
  20903793.336   -18554129.351 6 -14059891.543 9        19.000          77.000
  24060113.120     -746573.763 3   -460015.379 6         5.000          12.000
 90  6 17 21 30 45.2460000  0  5 12 11 09 13 18
  23399663.825    -3027813.173 5  -1062105.628 6         8.000          19.000
  22416582.590     4057320.642 7   3161545.894 9        20.000          93.000
  20382381.672   -20611206.814 7 -15991854.826 9        24.000         164.000
  20896161.715   -18594233.242 6 -14091141.258 9        19.000          70.000
  24054700.819     -775014.791 3   -482177.185 6         5.000          15.000
 90  6 17 21 31  0.0940000  0  5 12 11 09 13 18
  23389804.966    -3079626.205 5  -1102479.339 6         8.000          14.000
  22423805.334     4095266.874 7   3191114.342 9        20.000          92.000
  20376397.597   -20642653.763 7 -16016358.928 9        24.000         157.000
  20888680.912   -18633548.954 7 -14121776.822 9        20.000          79.000
  24049400.099     -802862.800 3   -503876.901 6         6.000          13.000
 90  6 17 21 31 15.1980000  0  5 12 11 09 13 18
  23379776.495    -3132335.108 5  -1143551.106 6         8.000          18.000
  22431159.311     4133917.714 7   3221231.833 9        20.000          93.000
  20370328.521   -20674550.929 7 -16041213.842 9        24.000         168.000
  20881090.745   -18673429.064 7 -14152852.176 9        20.000          77.000
  24044034.881     -831074.728 3   -525860.188 5         6.000          10.000
 90  6 17 21 31 30.0460000  0  5 12 11 09 13 18
  23369915.155    -3184145.723 5  -1183922.928 6         9.000          20.000
  22438400.737     4171969.960 7   3250882.889 9        20.000          95.000
  20364381.129   -20705809.416 7 -16065571.085 9        24.000         171.000
  20873651.537   -18712514.031 6 -14183307.928 9        19.000          82.000
  24038777.830     -858687.911 3   -547376.906 6         5.000          15.000
 90  6 17 21 31 45.1500000  0  5 12 11 09 13 18
  23359885.642    -3236843.635 5  -1224986.151 6         8.000          24.000
  22445777.811     4210736.153 7   3281090.261 9        20.000          92.000
  20358348.317   -20737506.048 7 -16090269.742 9        24.000         168.000
  20866110.056   -18752150.590 7 -14214193.497 9        20.000          91.000
  24033453.646     -886655.004 3   -569169.428 6         6.000          13.000
 90  6 17 21 32  0.2540000  0  5 12 11 09 13 18
  23349857.763    -3289549.340 5  -1266055.447 6         8.000          19.000
  22453162.995     4249546.271 6   3311331.869 9        19.000          87.000
  20352332.626   -20769114.658 7 -16114899.807 9        24.000         175.000
  20858588.872   -18791677.766 7 -14244993.843 9        20.000          86.000
  24028156.032     -914512.001 3   -590876.160 6         6.000          13.000
 90  6 17 21 32 15.1020000  0  5 12 11 09 13 18
  23339995.197    -3341370.140 5  -1306435.201 6         8.000          23.000
  22460431.114     4287740.021 6   3341093.186 9        19.000          87.000
  20346436.187   -20800102.521 7 -16139046.180 9        24.000         170.000
  20851215.144   -18830429.418 7 -14275189.881 9        20.000          89.000
  24022961.172     -941789.332 3   -612131.195 6         6.000          17.000
 90  6 17 21 32 30.2060000  0  5 12 11 09 13 18
  23329965.827    -3394069.168 5  -1347499.266 6         8.000          23.000
  22467835.716     4326657.622 6   3371418.544 9        19.000          89.000
  20340457.719   -20831514.410 7 -16163522.953 9        24.000         175.000
  20843739.274   -18869718.139 7 -14305804.412 9        20.000          90.000
  24017710.782     -969403.136 3   -633648.395 6         6.000          19.000
 90  6 17 21 32 45.0540000  0  5 12 11 09 13 18
  23320110.012    -3445863.663 5  -1387858.517 6         9.000          23.000
  22475128.555     4364975.567 6   3401276.642 9        18.000          86.000
  20334602.457   -20862289.216 7 -16187503.302 9        24.000         171.000
  20836412.046   -18908215.972 7 -14335802.672 9        20.000          82.000
  24012570.941     -996420.000 3   -654700.458 6         6.000          21.000
 90  6 17 21 33  0.1580000  0  5 12 11 09 13 18
  23310090.909    -3498533.044 5  -1428899.510 6         9.000          23.000
  22482557.062     4404021.354 6   3431701.869 9        18.000          89.000
  20328665.750   -20893481.173 7 -16211808.705 9        24.000         170.000
  20828985.322   -18947243.644 7 -14366213.788 9        20.000          90.000
  24007366.990    -1023765.052 4   -676008.267 6         7.000          12.000
 90  6 17 21 33 15.0060000  0  5 12 11 09 13 18
  23300239.467    -3550302.754 5  -1469239.439 6         8.000          25.000
  22489872.683     4442459.825 6   3461653.878 9        19.000          86.000
  20322849.643   -20924043.895 7 -16235623.799 9        24.000         174.000
  20821707.637   -18985489.295 7 -14396015.541 9        20.000          87.000
  24002275.640    -1050521.841 4   -696857.709 5         7.000           9.000
 90  6 17 21 33 30.1100000  0  5 12 11 09 13 18
  23290215.909    -3602965.492 5  -1510275.248 7         8.000          26.000
  22497322.550     4481608.317 6   3492159.150 9        19.000          86.000
  20316951.620   -20955038.649 7 -16259775.526 9        24.000         184.000
  20814327.116   -19024279.190 7 -14426241.377 9        20.000          93.000
  23997119.812    -1077618.709 3   -717972.141 5         6.000          11.000
 90  6 17 21 33 45.2140000  0  5 12 11 09 13 18
  23280198.338    -3655620.095 5  -1551304.706 6         8.000          21.000
  22504783.878     4520812.467 6   3522707.795 9        19.000          81.000
  20311073.395   -20985929.097 7 -16283845.989 9        24.000         179.000
  20806967.925   -19062944.752 7 -14456370.327 9        20.000          90.000
  23991983.986    -1104585.003 3   -738984.785 6         6.000          14.000
 90  6 17 21 34  0.0620000  0  5 12 11 09 13 18
  23270347.181    -3707372.676 5  -1591631.299 6         8.000          21.000
  22512127.814     4559407.420 6   3552781.728 9        18.000          84.000
  20305314.411   -21016192.523 7 -16307427.858 9        24.000         180.000
  20799758.897   -19100832.149 7 -14485892.923 9        20.000          89.000
  23986964.388    -1130964.276 3   -759540.053 6         6.000          12.000
 90  6 17 21 34 15.1660000  0  5 12 11 09 13 18
  23260332.246    -3760011.814 5  -1632648.714 7         8.000          26.000
  22519607.550     4598719.462 6   3583414.447 9        18.000          87.000
  20299476.454   -21046876.424 7 -16331337.371 9        24.000         185.000
  20792449.770   -19139251.865 7 -14515830.308 9        21.000          87.000
  23981884.365    -1157670.114 4   -780349.807 5         7.000          10.000
 90  6 17 21 34 30.0140000  0  5 12 11 09 13 18
  23250484.052    -3811756.816 5  -1672969.398 7         8.000          28.000
  22526972.089     4637411.749 6   3613564.226 9        18.000          81.000
  20293753.244   -21076944.370 7 -16354766.913 9        24.000         173.000
  20785282.175   -19176905.267 7 -14545170.567 9        20.000          84.000
  23976908.681    -1183802.469 3   -800712.649 6         5.000          12.000
 90  6 17 21 34 45.1180000  0  5 12 11 09 13 18
  23240468.064    -3864384.671 5  -1713978.028 6         8.000          22.000
  22534472.347     4676825.338 6   3644276.059 9        19.000          80.000
  20287954.064   -21107425.578 7 -16378518.489 9        24.000         180.000
  20778018.046   -19215083.572 7 -14574919.842 9        20.000          83.000
  23971878.784    -1210256.347 3   -821326.013 6         6.000          18.000
 90  6 17 21 35  0.2220000  0  5 12 11 09 13 18
  23230453.005    -3917022.993 5  -1754994.808 7         8.000          28.000
  22541977.621     4716273.207 6   3675014.610 9        18.000          79.000
  20282170.063   -21137820.612 7 -16402202.912 9        24.000         175.000
  20770772.529   -19253156.576 6 -14604587.057 9        19.000          86.000
  23966863.659    -1236601.965 4   -841855.044 6         7.000          15.000
 90  6 17 21 35 15.0700000  0  5 12 11 09 13 18
  23220604.066    -3968771.476 5  -1795318.200 7         8.000          26.000
  22549366.054     4755093.097 6   3705263.826 9        18.000          86.000
  20276501.239   -21167608.659 7 -16425414.353 9        24.000         173.000
  20763672.354   -19290473.963 6 -14633665.492 9        19.000          77.000
  23961956.294    -1262387.995 3   -861948.041 6         6.000          18.000
 90  6 17 21 35 30.1740000  0  5 12 11 09 13 18
  23210591.183    -4021400.230 5  -1836327.524 7         9.000          28.000
  22556888.948     4794637.341 6   3736077.473 9        17.000          92.000
  20270755.535   -21197802.269 7 -16448941.827 9        24.000         179.000
  20756469.251   -19328308.319 6 -14663146.749 9        19.000          89.000
  23956989.783    -1288489.455 3   -882286.834 6         6.000          13.000
 90  6 17 21 35 45.0220000  0  5 12 11 09 13 18
  23200742.979    -4073128.081 5  -1876634.840 7         8.000          28.000
  22564296.013     4833561.899 6   3766408.244 9        17.000          84.000
  20265127.633   -21227381.013 7 -16471990.172 9        24.000         169.000
  20749416.127   -19365379.895 7 -14692033.635 9        20.000          84.000
  23952132.032    -1314026.688 4   -902185.959 5         7.000           8.000
 90  6 17 21 36  0.1260000  0  5 12 11 09 13 18
  23190737.043    -4125736.440 5  -1917628.268 7         8.000          26.000
  22571842.423     4873210.772 6   3797303.412 9        17.000          83.000
  20259422.616   -21257362.415 7 -16495352.287 9        24.000         172.000
  20742262.363   -19402965.042 6 -14721320.709 9        19.000          85.000
  23947212.041    -1339878.442 4   -922330.145 6         7.000          14.000
 90  6 17 21 36 15.2300000  0  5 12 11 09 13 18
  23180724.487    -4178338.780 5  -1958617.007 7         8.000          27.000
  22579396.341     4912907.411 6   3828235.816 9        18.000          77.000
  20253736.886   -21287240.788 7 -16518634.112 9        23.000         173.000
  20735134.158   -19440428.939 7 -14750513.296 9        20.000          85.000
  23942314.492    -1365608.375 4   -942379.448 6         7.000          13.000
 90  6 17 21 36 30.0780000  0  5 12 11 09 13 18
  23170883.628    -4230042.141 5  -1998905.254 7         8.000          27.000
  22586832.448     4951978.570 6   3858680.826 9        17.000          81.000
  20248167.230   -21316510.813 7 -16541441.901 9        23.000         169.000
  20728147.453   -19477138.363 7 -14779117.991 9        20.000          86.000
  23937525.174    -1390783.077 4   -961996.074 6         7.000          12.000
 90  6 17 21 36 45.1820000  0  5 12 11 09 13 18
  23160878.253    -4282626.759 5  -2039880.193 7         8.000          29.000
  22594405.130     4991773.576 6   3889689.870 9        17.000          93.000
  20242519.725   -21346179.007 7 -16564559.954 9        23.000         167.000
  20721066.208   -19514356.594 7 -14808119.152 9        20.000          88.000
  23932676.096    -1416268.230 4   -981854.612 6         7.000          13.000
 90  6 17 21 37  0.0300000  0  5 12 11 09 13 18
  23151044.116    -4334311.468 5  -2080153.896 7         8.000          29.000
  22601857.663     5030941.567 6   3920210.326 9        18.000          86.000
  20236989.848   -21375240.995 7 -16587205.634 9        23.000         164.000
  20714126.626   -19550823.312 7 -14836534.723 9        20.000          89.000
  23927930.049    -1441200.257 4  -1001282.174 6         7.000          18.000
 90  6 17 21 37 15.1340000  0  5 12 11 09 13 18
  23141039.988    -4386886.913 5  -2121121.669 7         8.000          30.000
  22609447.518     5070824.180 6   3951287.636 9        18.000          84.000
  20231381.181   -21404707.298 7 -16610166.365 9        23.000         164.000
  20707091.838   -19587804.539 7 -14865351.201 9        21.000          91.000
  23923125.969    -1466446.561 4  -1020954.586 5         7.000           7.000
 90  6 17 21 37 30.2380000  0  5 12 11 09 13 18
  23131033.551    -4439458.531 5  -2162086.464 7         8.000          28.000
  22617046.331     5110749.451 6   3982398.186 9        17.000          88.000
  20225796.193   -21434072.412 7 -16633048.254 9        23.000         165.000
  20700075.530   -19624666.945 7 -14894075.104 9        20.000          91.000
  23918346.662    -1491570.713 4  -1040531.869 6         7.000          14.000
 90  6 17 21 37 45.0860000  0  5 12 11 09 13 18
  23121201.630    -4491129.901 5  -2202349.776 7         8.000          26.000
  22624522.184     5150044.344 6   4013017.523 9        17.000          81.000
  20220322.274   -21462835.783 7 -16655461.255 9        23.000         169.000
  20693201.673   -19660783.744 7 -14922218.007 9        21.000          98.000
  23913668.392    -1516144.352 3  -1059680.126 5         6.000          10.000
 90  6 17 21 38  0.1900000  0  5 12 11 09 13 18
  23111203.089    -4543677.972 5  -2243296.235 7         9.000          27.000
  22632139.814     5190068.092 6   4044204.810 9        17.000          77.000
  20214776.063   -21491984.365 7 -16678174.408 9        23.000         163.000
  20686233.918   -19697395.748 7 -14950746.783 9        21.000          95.000
  23908935.277    -1541009.537 4  -1079055.570 6         7.000          12.000
 90  6 17 21 38 15.0380000  0  5 12 11 09 13 18
  23101373.416    -4595325.184 5  -2283540.719 7         9.000          31.000
  22639635.577     5229459.490 6   4074899.356 9        17.000          73.000
  20209341.033   -21520533.845 7 -16700420.736 9        23.000         161.000
  20679409.236   -19733265.833 7 -14978697.449 9        21.000          95.000
  23904310.505    -1565326.168 4  -1098003.595 5         7.000          10.000
 90  6 17 21 38 30.1420000  0  5 12 11 09 13 18
  23091377.725    -4647854.258 5  -2324472.365 7         9.000          34.000
  22647268.222     5269574.614 6   4106157.844 9        17.000          80.000
  20203835.366   -21549470.339 7 -16722968.638 9        23.000         166.000
  20672489.072   -19769632.673 7 -15007035.193 9        21.000          91.000
  23899627.976    -1589935.033 3  -1117179.287 6         6.000          13.000
 90  6 17 21 38 45.2460000  0  5 12 11 09 13 18
  23081383.299    -4700376.364 5  -2365398.579 6         9.000          25.000
  22654910.123     5309732.292 6   4137449.486 9        17.000          79.000
  20198348.525   -21578302.194 7 -16745434.992 9        24.000         165.000
  20665592.351   -19805878.810 7 -15035278.884 9        21.000          93.000
  23894968.349    -1614417.824 3  -1136256.783 5         6.000          10.000
 90  6 17 21 39  0.0940000  0  5 12 11 09 13 18
  23071558.356    -4752003.118 5  -2405627.136 7         9.000          31.000
  22662429.687     5349248.727 6   4168241.450 9        17.000          79.000
  20192973.990   -21606545.269 7 -16767442.570 9        23.000         164.000
  20658833.066   -19841394.537 7 -15062953.414 9        21.000          88.000
  23890410.128    -1638364.049 3  -1154916.172 6         6.000          14.000
 90  6 17 21 39 15.1980000  0  5 12 11 09 13 18
  23061567.701    -4804508.822 5  -2446540.571 6         9.000          23.000
  22670088.647     5389492.002 6   4199599.795 9        18.000          80.000
  20187528.204   -21635167.167 7 -16789745.325 9        23.000         159.000
  20651980.792   -19877398.742 7 -15091008.589 9        21.000          94.000
  23885796.500    -1662593.214 3  -1173796.015 6         6.000          15.000
 90  6 17 21 39 30.0460000  0  5 12 11 09 13 18
  23051744.647    -4856117.136 5  -2486754.738 7         9.000          29.000
  22677624.504     5429093.685 6   4230458.195 9        17.000          76.000
  20182192.150   -21663201.220 7 -16811590.024 9        23.000         163.000
  20645268.916   -19912674.485 7 -15118496.128 9        21.000         100.000
  23881293.779    -1686287.430 4  -1192259.016 6         7.000          14.000
 90  6 17 21 39 45.1500000  0  5 12 11 09 13 18
  23041757.803    -4908604.562 5  -2527653.957 6         9.000          24.000
  22685299.511     5469421.772 6   4261882.627 9        18.000          78.000
  20176786.500   -21691610.997 7 -16833727.492 9        23.000         164.000
  20638464.796   -19948435.480 7 -15146361.789 9        21.000          96.000
  23876726.160    -1710261.893 3  -1210940.398 6         6.000          16.000
 90  6 17 21 40  0.2540000  0  5 12 11 09 13 18
  23031771.224    -4961083.869 5  -2568546.824 6         9.000          25.000
  22692981.220     5509790.532 6   4293338.756 9        17.000          73.000
  20171402.199   -21719915.031 7 -16855782.564 9        24.000         166.000
  20631680.035   -19984075.324 7 -15174133.035 9        21.000          99.000
  23872191.945    -1734110.987 3  -1229524.100 6         6.000          12.000
 90  6 17 21 40 15.1020000  0  5 12 11 09 13 18
  23021954.779    -5012665.063 5  -2608739.873 6         9.000          21.000
  22700538.938     5549514.860 6   4324292.714 9        17.000          70.000
  20166125.791   -21747635.151 7 -16877382.640 9        23.000         161.000
  20625036.886   -20018992.414 7 -15201341.108 9        21.000         103.000
  23867755.132    -1757434.170 3  -1247697.984 5         6.000          11.000
 90  6 17 21 40 30.2060000  0  5 12 11 09 13 18
  23011972.685    -5065126.202 5  -2649618.583 7        10.000          29.000
  22708236.817     5589964.639 6   4355811.964 9        17.000          71.000
  20160779.174   -21775727.063 7 -16899272.427 9        23.000         161.000
  20618302.148   -20054390.194 7 -15228923.743 9        21.000          95.000
  23863261.339    -1781036.456 4  -1266089.390 6         7.000          19.000
 90  6 17 21 40 45.0540000  0  5 12 11 09 13 18
  23002160.479    -5116690.264 5  -2689798.292 7         9.000          28.000
  22715811.706     5629766.803 6   4386826.594 9        17.000          73.000
  20155544.945   -21803239.290 7 -16920710.511 9        23.000         151.000
  20611701.730   -20089070.166 7 -15255947.042 9        21.000          95.000
  23858867.807    -1804119.245 4  -1284075.973 6         7.000          12.000
 90  6 17 21 41  0.1580000  0  5 12 11 09 13 18
  22992182.196    -5169129.390 5  -2730659.862 7        10.000          27.000
  22723524.550     5670299.401 6   4418410.392 9        17.000          70.000
  20150241.354   -21831114.529 7 -16942431.456 9        23.000         156.000
  20605010.447   -20124222.495 7 -15283338.417 9        21.000          95.000
  23854423.904    -1827473.110 3  -1302273.741 5         6.000           9.000
 90  6 17 21 41 15.0060000  0  5 12 11 09 13 18
  22982374.760    -5220665.486 5  -2770817.777 6        10.000          25.000
  22731115.600     5710188.211 6   4449492.517 9        17.000          78.000
  20145046.872   -21858407.648 7 -16963698.809 9        23.000         152.000
  20598460.400   -20158655.259 7 -15310169.083 9        21.000          95.000
  23850079.181    -1850306.102 4  -1320065.661 6         7.000          16.000
 90  6 17 21 41 30.1100000  0  5 12 11 09 13 18
  22972400.951    -5273079.021 5  -2811659.417 7        10.000          28.000
  22738844.655     5750804.677 6   4481141.652 9        17.000          78.000
  20139785.031   -21886062.938 7 -16985248.370 9        23.000         149.000
  20591818.396   -20193559.205 7 -15337366.913 9        21.000          95.000
  23845682.013    -1873409.026 4  -1338067.939 6         7.000          15.000
 90  6 17 21 41 45.2140000  0  5 12 11 09 13 18
  22962427.550    -5325482.515 5  -2852493.219 7        10.000          35.000
  22746581.066     5791459.666 6   4512820.810 9        17.000          72.000
  20134542.538   -21913610.160 7 -17006713.725 9        23.000         152.000
  20585196.986   -20228341.191 7 -15364469.707 9        21.000          93.000
  23841309.699    -1896390.155 4  -1355975.342 6         7.000          18.000
 90  6 17 21 42  0.0620000  0  5 12 11 09 13 18
  22952628.552    -5376988.295 5  -2892627.499 7        10.000          27.000
  22754194.098     5831462.281 6   4543991.628 9        17.000          74.000
  20129406.885   -21940585.290 7 -17027733.292 9        23.000         154.000
  20578716.718   -20262414.895 7 -15391020.586 9        21.000          95.000
  23837031.762    -1918863.958 4  -1373487.394 6         7.000          19.000
 90  6 17 21 42 15.1660000  0  5 12 11 09 13 18
  22942658.727    -5429367.677 5  -2933442.518 7        10.000          28.000
  22761944.034     5872196.090 6   4575732.203 9        17.000          73.000
  20124208.317   -21967913.564 7 -17049028.040 9        23.000         150.000
  20572141.041   -20296950.724 7 -15417931.568 9        21.000          95.000
  23832705.569    -1941600.535 5  -1391204.182 6         8.000          17.000
 90  6 17 21 42 30.0140000  0  5 12 11 09 13 18
  22932864.919    -5480841.916 5  -2973552.249 7        10.000          29.000
  22769571.837     5912282.778 6   4606968.527 9        17.000          73.000
  20119117.171   -21994665.499 7 -17069873.691 9        23.000         148.000
  20565706.119   -20330775.204 7 -15444288.257 9        21.000          98.000
  23828475.184    -1963825.640 4  -1408522.445 6         7.000          19.000
 90  6 17 21 42 45.1180000  0  5 12 11 09 13 18
  22922901.692    -5533189.914 5  -3014342.837 6        11.000          22.000
  22777340.384     5953100.022 6   4638774.126 9        17.000          69.000
  20113958.800   -22021767.690 7 -17090992.269 9        23.000         155.000
  20559185.001   -20365058.928 7 -15471002.792 9        21.000          97.000
  23824196.911    -1986309.914 4  -1426042.660 6         7.000          19.000
 90  6 17 21 43  0.2220000  0  5 12 11 09 13 18
  22912944.298    -5585522.437 5  -3055121.351 7        10.000          26.000
  22785115.504     5993958.391 6   4670611.768 9        16.000          68.000
  20108825.487   -22048755.990 7 -17112022.094 9        23.000         156.000
  20552680.228   -20399215.860 7 -15497618.537 9        21.000          96.000
  23819945.002    -2008667.355 5  -1443464.020 6         8.000          15.000
 90  6 17 21 43 15.0700000  0  5 12 11 09 13 18
  22903160.522    -5636951.818 5  -3095196.097 7        11.000          29.000
  22792765.720     6034164.691 6   4701941.294 9        16.000          69.000
  20103796.766   -22075174.822 7 -17132608.184 9        23.000         156.000
  20546315.852   -20432669.305 7 -15523686.106 9        21.000          91.000
  23815785.531    -2030521.191 5  -1460493.003 6         8.000          16.000
 90  6 17 21 43 30.1740000  0  5 12 11 09 13 18
  22893207.766    -5689249.133 5  -3135947.191 6        11.000          21.000
  22800557.252     6075106.909 6   4733844.268 9        16.000          78.000
  20098705.202   -22101932.843 7 -17153458.578 9        23.000         155.000
  20539866.149   -20466571.096 7 -15550103.030 9        21.000          92.000
  23811580.940    -2052620.840 5  -1477713.472 6         8.000          16.000
 90  6 17 21 43 45.0220000  0  5 12 11 09 13 18
  22883426.287    -5740655.667 5  -3176004.162 6        11.000          20.000
  22808221.687     6115382.588 6   4765227.862 9        16.000          72.000
  20093719.222   -22128137.134 7 -17173877.487 9        23.000         151.000
  20533544.319   -20499786.088 7 -15575984.795 9        21.000          91.000
  23807467.509    -2074230.882 5  -1494552.442 6         8.000          17.000
 90  6 17 21 44  0.1260000  0  5 12 11 09 13 18
  22873475.411    -5792943.169 5  -3216747.596 7        11.000          27.000
  22816024.282     6156380.744 6   4797174.425 9        15.000          69.000
  20088664.218   -22154690.189 7 -17194568.169 9        23.000         157.000
  20527135.844   -20533458.789 7 -15602223.213 9        21.000          96.000
  23803307.343    -2096095.269 5  -1511589.638 6         8.000          19.000
 90  6 17 21 44 15.2300000  0  5 12 11 09 13 18
  22863527.538    -5845213.200 5  -3257477.406 7        11.000          29.000
  22823832.117     6197418.760 6   4829152.036 9        15.000          72.000
  20083635.646   -22181127.351 7 -17215168.536 9        23.000         158.000
  20520752.765   -20567003.831 7 -15628362.159 9        22.000          97.000
  23799169.426    -2117826.602 4  -1528523.146 6         7.000          17.000
 90  6 17 21 44 30.0780000  0  5 12 11 09 13 18
  22853752.076    -5896585.379 5  -3297507.603 7        11.000          26.000
  22831514.755     6237794.518 6   4860613.607 9        15.000          80.000
  20078709.383   -22207008.264 7 -17235335.473 9        23.000         159.000
  20514500.889   -20599860.772 7 -15653964.921 9        22.000          97.000
  23795132.169    -2139064.720 5  -1545072.294 6         8.000          17.000
 90  6 17 21 44 45.1820000  0  5 12 11 09 13 18
  22843810.097    -5948827.095 6  -3338215.361 7        12.000          28.000
  22839337.341     6278903.685 6   4892646.673 9        15.000          74.000
  20073720.817   -22233221.612 7 -17255761.443 9        23.000         153.000
  20508164.206   -20633159.195 7 -15679911.689 9        22.000          95.000
  23791040.047    -2160537.223 4  -1561804.113 6         7.000          21.000
 90  6 17 21 45  0.0300000  0  5 12 11 09 13 18
  22834040.479    -6000167.176 5  -3378220.546 6        11.000          23.000
  22847035.414     6319352.246 6   4924164.974 9        15.000          74.000
  20068839.102   -22258878.673 7 -17275753.946 9        23.000         151.000
  20501959.821   -20665770.112 7 -15705322.747 9        22.000          94.000
  23787052.569    -2181514.412 5  -1578149.949 6         8.000          15.000
 90  6 17 21 45 15.1340000  0  5 12 11 09 13 18
  22824108.102    -6052372.047 6  -3418899.594 7        12.000          29.000
  22854873.435     6360538.347 6   4956257.987 9        15.000          69.000
  20063893.399   -22284859.947 7 -17295999.087 9        23.000         152.000
  20495671.763   -20698814.172 7 -15731071.310 9        22.000          93.000
  23783016.671    -2202714.704 4  -1594669.692 5         7.000           9.000
 90  6 17 21 45 30.2380000  0  5 12 11 09 13 18
  22814175.112    -6104562.074 6  -3459567.070 7        12.000          28.000
  22862717.728     6401758.625 6   4988377.624 9        15.000          74.000
  20058973.694   -22310727.906 7 -17316155.928 9        23.000         154.000
  20489405.402   -20731734.100 7 -15756723.155 9        22.000          97.000
  23779011.153    -2223780.654 4  -1611084.637 6         7.000          23.000
 90  6 17 21 45 45.0860000  0  5 12 11 09 13 18
  22804415.342    -6155851.869 6  -3499533.088 7        12.000          28.000
  22870435.353     6442314.275 6   5019979.372 9        15.000          69.000
  20054152.382   -22336045.604 7 -17335883.994 9        23.000         149.000
  20483270.173   -20763974.034 7 -15781845.131 9        21.000          93.000
  23775095.365    -2244358.253 5  -1627119.153 6         8.000          24.000
 90  6 17 21 46  0.1900000  0  5 12 11 09 13 18
  22794487.541    -6208013.723 6  -3540178.605 7        12.000          32.000
  22878291.301     6483599.601 6   5052149.706 9        15.000          60.000
  20049275.989   -22361689.645 7 -17355866.354 9        23.000         146.000
  20477051.170   -20796649.469 7 -15807306.468 9        21.000          94.000
  23771134.007    -2265162.815 4  -1643330.477 6         7.000          20.000
 90  6 17 21 46 15.0380000  0  5 12 11 09 13 18
  22784733.532    -6259271.068 6  -3580119.322 6        12.000          19.000
  22886021.154     6524222.661 6   5083803.982 9        15.000          67.000
  20044499.500   -22386782.521 7 -17375419.227 9        23.000         151.000
  20470964.177   -20828644.816 7 -15832237.855 9        21.000         100.000
  23767268.355    -2285482.250 4  -1659163.802 6         7.000          14.000
 90  6 17 21 46 30.1420000  0  5 12 11 09 13 18
  22774816.184    -6311392.794 6  -3620733.594 7        12.000          30.000
  22893892.639     6565582.191 6   5116032.126 9        15.000          58.000
  20039664.765   -22412190.879 7 -17395217.940 9        23.000         153.000
  20464793.624   -20861064.831 7 -15857500.159 9        21.000         103.000
  23763359.646    -2306020.168 5  -1675167.369 5         8.000          11.000
 90  6 17 21 46 45.2460000  0  5 12 11 09 13 18
  22764902.603    -6363494.894 6  -3661332.564 7        12.000          33.000
  22901769.416     6606977.615 6   5148288.245 9        15.000          64.000
  20034851.492   -22437480.966 7 -17414924.489 9        23.000         146.000
  20458650.111   -20893356.979 7 -15882662.827 9        21.000         105.000
  23759476.996    -2326426.472 5  -1691068.375 6         8.000          19.000
 90  6 17 21 47  0.0940000  0  5 12 11 09 13 18
  22755156.572    -6414695.889 6  -3701229.375 7        12.000          35.000
  22909520.465     6647704.756 6   5180023.630 9        15.000          66.000
  20030144.375   -22462228.304 7 -17434208.119 9        23.000         146.000
  20452631.622   -20924978.600 7 -15907303.000 9        21.000          96.000
  23755678.968    -2346361.425 4  -1706602.079 6         7.000          22.000
 90  6 17 21 47 15.1980000  0  5 12 11 09 13 18
  22745251.449    -6466761.305 6  -3741799.737 7        12.000          32.000
  22917409.306     6689167.456 6   5212332.164 9        15.000          70.000
  20025374.312   -22487286.119 7 -17453733.681 9        23.000         146.000
  20446534.639   -20957020.018 7 -15932270.293 9        21.000          98.000
  23751851.205    -2366513.721 5  -1722305.148 6         8.000          22.000
 90  6 17 21 47 30.0460000  0  5 12 11 09 13 18
  22735514.315    -6517928.045 6  -3781669.855 7        12.000          34.000
  22925172.225     6729957.791 6   5244116.780 9        15.000          67.000
  20020708.413   -22511806.800 7 -17472840.693 9        23.000         148.000
  20440563.017   -20988397.157 7 -15956719.966 9        21.000          95.000
  23748100.024    -2386204.740 4  -1737648.828 6         7.000          15.000
 90  6 17 21 47 45.1500000  0  5 12 11 09 13 18
  22725613.166    -6569956.642 6  -3822211.549 7        12.000          32.000
  22933075.367     6771485.532 6   5276475.996 9        15.000          65.000
  20015983.787   -22536632.135 7 -17492185.093 9        23.000         151.000
  20434516.191   -21020188.514 7 -15981492.407 9        21.000          97.000
  23744312.089    -2406110.746 5  -1753159.975 6         8.000          12.000
 90  6 17 21 48  0.2540000  0  5 12 11 09 13 18
  22715715.112    -6621962.733 6  -3862735.702 7        12.000          39.000
  22940983.963     6813049.193 6   5308863.214 9        15.000          65.000
  20011283.688   -22561335.977 7 -17511434.831 9        23.000         146.000
  20428488.395   -21051849.969 7 -16006163.617 9        22.000         102.000
  23740549.223    -2425890.141 5  -1768572.497 5         8.000          11.000
 90  6 17 21 48 15.1020000  0  5 12 11 09 13 18
  22705991.482    -6673064.622 6  -3902555.277 7        12.000          34.000
  22948766.751     6853943.624 6   5340728.947 9        15.000          68.000
  20006683.595   -22585502.173 7 -17530265.617 9        23.000         150.000
  20422592.825   -21082847.569 7 -16030317.552 9        22.000          93.000
  23736872.705    -2445211.445 5  -1783628.046 6         8.000          24.000
 90  6 17 21 48 30.2060000  0  5 12 11 09 13 18
  22696103.051    -6725030.941 6  -3943048.443 7        12.000          36.000
  22956687.575     6895571.739 6   5373166.385 9        15.000          68.000
  20002029.760   -22609970.322 7 -17549331.699 9        23.000         143.000
  20416612.071   -21114256.921 7 -16054792.326 9        22.000         100.000
  23733156.286    -2464746.360 5  -1798850.049 6         8.000          18.000
 90  6 17 21 48 45.0540000  0  5 12 11 09 13 18
  22686387.215    -6776089.566 6  -3982834.311 7        12.000          38.000
  22964480.445     6936532.358 6   5405083.694 9        15.000          67.000
  19997473.470   -22633900.616 7 -17567978.669 9        23.000         146.000
  20410764.829   -21145002.992 7 -16078750.257 9        23.000          96.000
  23729527.759    -2483821.476 5  -1813713.773 6         8.000          13.000
 90  6 17 21 49  0.1580000  0  5 12 11 09 13 18
  22676506.160    -6828009.245 6  -4023291.118 8        12.000          41.000
  22972416.162     6978229.361 6   5437574.811 9        15.000          61.000
  19992865.154   -22658126.201 7 -17586855.739 9        22.000         144.000
  20404834.517   -21176154.364 7 -16103024.008 9        23.000          98.000
  23725859.393    -2503103.051 5  -1828738.402 6         8.000          13.000
 90  6 17 21 49 15.0060000  0  5 12 11 09 13 18
  22666797.822    -6879033.342 6  -4063050.078 8        12.000          41.000
  22980222.414     7019245.256 6   5469535.192 9        14.000          62.000
  19988354.087   -22681829.473 7 -17605325.809 9        22.000         139.000
  20399032.120   -21206658.578 7 -16126793.488 9        23.000         100.000
  23722272.054    -2521940.054 5  -1843416.561 5         8.000          11.000
 90  6 17 21 49 30.1100000  0  5 12 11 09 13 18
  22656924.019    -6930915.463 6  -4103477.622 7        12.000          38.000
  22988166.845     7060999.510 6   5502070.911 9        14.000          61.000
  19983788.675   -22705821.860 7 -17624021.163 9        23.000         143.000
  20393147.490   -21237562.198 7 -16150874.179 9        22.000         101.000
  23718648.859    -2540976.308 5  -1858250.026 6         8.000          19.000
 90  6 17 21 49 45.2140000  0  5 12 11 09 13 18
  22647055.477    -6982773.847 6  -4143886.674 8        12.000          44.000
  22996119.643     7102786.623 6   5534632.232 8        15.000          53.000
  19979245.593   -22729691.625 7 -17642620.969 9        23.000         143.000
  20387293.353   -21268336.370 7 -16174854.013 9        22.000          92.000
  23715048.730    -2559882.993 5  -1872982.476 6         8.000          17.000
 90  6 17 21 50  0.0620000  0  5 12 11 09 13 18
  22637360.082    -7033721.307 6  -4183585.915 8        12.000          47.000
  23003944.159     7143905.721 6   5566673.041 8        15.000          53.000
  19974803.683   -22753028.462 7 -17660805.508 9        22.000         147.000
  20381562.531   -21298454.264 7 -16198322.460 9        22.000         100.000
  23711543.695    -2578332.816 5  -1887358.969 6         8.000          16.000
 90  6 17 21 50 15.1660000  0  5 12 11 09 13 18
  22627505.494    -7085518.026 6  -4223946.922 8        12.000          45.000
  23011911.339     7185770.614 6   5599294.984 9        14.000          59.000
  19970312.044   -22776640.747 7 -17679204.675 9        23.000         145.000
  20375757.353   -21328957.916 7 -16222091.490 9        22.000          89.000
  23707994.468    -2596966.029 5  -1901878.377 6         8.000          18.000
 90  6 17 21 50 30.0140000  0  5 12 11 09 13 18
  22617819.191    -7136413.990 6  -4263606.039 8        12.000          48.000
  23019747.030     7226955.788 6   5631387.274 9        14.000          60.000
  19965916.705   -22799733.604 7 -17697199.101 9        22.000         137.000
  20370076.127   -21358819.348 7 -16245360.097 9        22.000         100.000
  23704535.135    -2615154.505 5  -1916051.213 6         9.000          20.000
 90  6 17 21 50 45.1180000  0  5 12 11 09 13 18
  22607968.811    -7188169.905 6  -4303935.232 8        12.000          40.000
  23027724.641     7268875.159 6   5664051.656 9        14.000          63.000
  19961470.310   -22823109.150 7 -17715413.804 9        23.000         145.000
  20364316.050   -21389074.192 7 -16268935.260 9        22.000          95.000
  23701034.859    -2633529.282 5  -1930369.216 6         9.000          17.000
 90  6 17 21 51  0.2220000  0  5 12 11 09 13 18
  22598125.205    -7239901.861 6  -4344245.775 8        12.000          44.000
  23035707.123     7310824.611 6   5696739.479 9        14.000          59.000
  19957043.783   -22846361.841 7 -17733532.773 9        23.000         143.000
  20358585.832   -21419200.513 7 -16292410.268 9        22.000          90.000
  23697565.996    -2651770.567 5  -1944583.221 6         8.000          19.000
 90  6 17 21 51 15.0700000  0  5 12 11 09 13 18
  22588452.059    -7290729.328 5  -4383851.499 8        11.000          47.000
  23043561.140     7352095.991 6   5728898.927 9        14.000          62.000
  19952719.746   -22869096.723 7 -17751248.251 9        23.000         149.000
  20352973.619   -21448686.886 7 -16315386.615 9        22.000         100.000
  23694179.109    -2669568.030 5  -1958451.388 6         8.000          16.000
 90  6 17 21 51 30.1740000  0  5 12 11 09 13 18
  22578616.798    -7342413.790 6  -4424125.015 8        12.000          49.000
  23051555.994     7394103.035 6   5761631.640 9        14.000          56.000
  19948339.024   -22892106.285 7 -17769177.786 9        23.000         145.000
  20347289.053   -21478559.263 7 -16338663.746 9        22.000          92.000
  23690760.187    -2687544.120 5  -1972458.750 6         8.000          22.000
 90  6 17 21 51 45.0220000  0  5 12 11 09 13 18
  22568953.182    -7393205.325 6  -4463702.769 8        13.000          50.000
  23059417.948     7435419.114 6   5793825.929 9        14.000          55.000
  19944056.348   -22914612.710 7 -17786715.232 9        22.000         144.000
  20341724.177   -21507807.191 7 -16361454.298 9        22.000         100.000
  23687415.815    -2705091.487 5  -1986132.018 6         8.000          22.000
 90  6 17 21 52  0.1260000  0  5 12 11 09 13 18
  22559125.716    -7444842.714 6  -4503939.599 9        12.000          55.000
  23067421.841     7477480.925 6   5826601.318 9        14.000          54.000
  19939724.996   -22937379.436 7 -17804455.526 9        23.000         143.000
  20336087.673   -21537426.944 7 -16384534.581 9        22.000          94.000
  23684047.663    -2722802.391 4  -1999932.706 6         7.000          20.000
 90  6 17 21 52 15.2300000  0  5 12 11 09 13 18
  22549305.164    -7496455.961 6  -4544157.635 9        13.000          62.000
  23075429.882     7519569.789 6   5859397.784 9        13.000          55.000
  19935414.759   -22960023.350 7 -17822100.124 9        23.000         140.000
  20330475.093   -21566919.313 7 -16407515.600 9        22.000          96.000
  23680703.042    -2740380.543 5  -2013629.971 6         8.000          25.000
 90  6 17 21 52 30.0780000  0  5 12 11 09 13 18
  22539654.747    -7547167.222 6  -4583672.818 9        13.000          63.000
  23083309.519     7560974.750 6   5891661.334 9        14.000          61.000
  19931203.783   -22982160.151 7 -17839349.571 9        22.000         142.000
  20324980.039   -21595784.119 7 -16430007.611 9        22.000          92.000
  23677439.961    -2757528.433 5  -2026991.965 6         8.000          21.000
 90  6 17 21 52 45.1820000  0  5 12 11 09 13 18
  22529844.248    -7598726.743 6  -4623848.982 8        13.000          52.000
  23091330.400     7603121.426 6   5924502.827 9        13.000          61.000
  19926941.282   -23004554.755 7 -17856799.900 9        23.000         142.000
  20319418.800   -21625018.662 7 -16452787.732 9        22.000          95.000
  23674145.162    -2774839.205 5  -2040480.896 6         8.000          24.000
 90  6 17 21 53  0.0300000  0  5 12 11 09 13 18
  22520201.839    -7649390.044 6  -4663326.821 9        13.000          57.000
  23099217.995     7644577.232 6   5956805.997 9        14.000          60.000
  19922774.987   -23026451.335 7 -17873862.160 9        22.000         145.000
  20313972.819   -21653635.446 7 -16475086.476 9        23.000         100.000
  23670930.982    -2791732.082 5  -2053644.179 6         8.000          21.000
 90  6 17 21 53 15.1340000  0  5 12 11 09 13 18
  22510397.898    -7700905.115 6  -4703468.355 8        13.000          50.000
  23107247.763     7686769.960 6   5989683.387 9        14.000          61.000
  19918558.658   -23048606.028 7 -17891125.539 9        22.000         144.000
  20308456.313   -21682622.657 7 -16497673.865 9        23.000          95.000
  23667689.241    -2808791.502 5  -2066937.235 6         9.000          18.000
 90  6 17 21 53 30.2380000  0  5 12 11 09 13 18
  22500600.955    -7752389.286 6  -4743585.809 8        13.000          50.000
  23115282.497     7728993.678 6   6022584.923 9        13.000          54.000
  19914367.776   -23070630.965 7 -17908287.831 9        23.000         151.000
  20302965.866   -21711476.924 7 -16520157.668 9        22.000          96.000
  23664462.454    -2825716.162 5  -2080125.284 6         8.000          21.000
 90  6 17 21 53 45.0860000  0  5 12 11 09 13 18
  22490973.940    -7802970.674 6  -4782999.814 8        12.000          45.000
  23123187.559     7770531.297 6   6054951.832 9        14.000          58.000
  19910272.201   -23092156.272 7 -17925060.786 9        23.000         153.000
  20297592.290   -21739712.793 7 -16542159.599 9        23.000         101.000
  23661324.468    -2842222.819 5  -2092987.639 6         8.000          19.000
 90  6 17 21 54  0.1900000  0  5 12 11 09 13 18
  22481189.862    -7854394.945 6  -4823070.602 8        13.000          51.000
  23131233.059     7812812.991 6   6087898.553 9        14.000          54.000
  19906127.633   -23113925.644 7 -17942023.927 9        23.000         150.000
  20292151.509   -21768305.778 7 -16564439.798 9        23.000         101.000
  23658156.021    -2858881.531 5  -2105968.445 6         8.000          17.000
 90  6 17 21 54 15.0380000  0  5 12 11 09 13 18
  22471573.655    -7904919.625 6  -4862440.413 9        13.000          55.000
  23139148.428     7854404.379 6   6120307.372 8        14.000          50.000
  19902081.479   -23135201.883 7 -17958602.805 9        23.000         147.000
  20286827.294   -21796287.083 7 -16586243.371 9        23.000          98.000
  23655064.361    -2875128.833 5  -2118628.684 6         9.000          17.000
 90  6 17 21 54 30.1420000  0  5 12 11 09 13 18
  22461799.185    -7956298.922 6  -4902476.165 8        13.000          52.000
  23147201.345     7896726.925 6   6153285.918 9        13.000          54.000
  19897983.575   -23156730.655 7 -17975378.462 9        23.000         150.000
  20281432.716   -21824634.151 7 -16608331.950 9        23.000         100.000
  23651939.073    -2891537.214 5  -2131414.452 6         8.000          25.000
 90  6 17 21 54 45.2460000  0  5 12 11 09 13 18
  22452026.563    -8007651.044 6  -4942490.716 8        13.000          42.000
  23155260.124     7939073.507 6   6186283.199 8        13.000          52.000
  19893909.912   -23178133.743 7 -17992056.191 9        22.000         144.000
  20276062.277   -21852853.344 7 -16630320.886 9        23.000         107.000
  23648840.252    -2907814.328 4  -2144097.933 6         7.000          24.000
 90  6 17 21 55  0.0940000  0  5 12 11 09 13 18
  22442427.783    -8058092.424 6  -4981795.625 8        13.000          49.000
  23163188.150     7980739.005 6   6218749.756 9        14.000          56.000
  19889933.496   -23199037.887 7 -18008345.120 9        23.000         154.000
  20270808.995   -21880456.011 7 -16651829.415 9        23.000         108.000
  23645822.437    -2923673.942 4  -2156456.063 6         7.000          17.000
 90  6 17 21 55 15.1980000  0  5 12 11 09 13 18
  22432669.739    -8109377.287 6  -5021757.797 8        14.000          47.000
  23171259.045     8023144.694 6   6251793.096 8        14.000          50.000
  19885908.192   -23220178.600 7 -18024818.401 9        22.000         149.000
  20265492.318   -21908409.124 7 -16673611.019 9        23.000         106.000
  23642777.328    -2939677.852 4  -2168926.659 6         7.000          19.000
 90  6 17 21 55 30.0460000  0  5 12 11 09 13 18
  22423077.099    -8159772.442 6  -5061026.691 8        13.000          53.000
  23179194.640     8064847.204 6   6284288.488 9        13.000          55.000
  19881977.408   -23240844.636 7 -18040921.794 9        22.000         152.000
  20260283.861   -21935770.655 7 -16694931.659 9        23.000         107.000
  23639809.262    -2955288.050 4  -2181090.445 7         7.000          27.000
 90  6 17 21 55 45.1500000  0  5 12 11 09 13 18
  22413329.259    -8210999.444 6  -5100943.764 9        14.000          55.000
  23187272.808     8107300.303 6   6317368.763 8        14.000          50.000
  19878002.402   -23261732.379 7 -18057197.955 9        23.000         147.000
  20255012.979   -21963468.033 7 -16716513.980 9        22.000         105.000
  23636809.936    -2971026.425 4  -2193354.137 7         7.000          28.000
 90  6 17 21 56  0.2540000  0  5 12 11 09 13 18
  22403588.866    -8262196.359 6  -5140837.392 8        14.000          44.000
  23195357.228     8149777.329 6   6350467.691 8        14.000          53.000
  19874050.463   -23282491.490 7 -18073373.881 9        22.000         143.000
  20249767.533   -21991035.760 7 -16737995.293 9        23.000         106.000
  23633844.372    -2986629.488 5  -2205512.354 6         8.000          22.000
 90  6 17 21 56 15.1020000  0  5 12 11 09 13 18
  22394015.737    -8312498.377 6  -5180033.712 8        14.000          41.000
  23203305.275     8191554.991 6   6383021.656 8        13.000          50.000
  19870191.870   -23302775.896 7 -18089179.903 9        22.000         142.000
  20244632.451   -22018012.555 7 -16759016.127 9        23.000         104.000
  23630950.417    -3001839.986 4  -2217364.690 6         7.000          24.000
 90  6 17 21 56 30.2060000  0  5 12 11 09 13 18
  22384284.722    -8363635.981 6  -5219881.138 8        13.000          44.000
  23211398.939     8234077.253 6   6416155.820 8        13.000          48.000
  19866287.921   -23323280.915 7 -18105157.834 9        22.000         143.000
  20239437.417   -22045325.022 7 -16780298.528 9        23.000         105.000
  23628033.671    -3017180.247 5  -2229318.163 6         8.000          22.000
 90  6 17 21 56 45.0540000  0  5 12 11 09 13 18
  22374724.617    -8413880.001 6  -5259032.248 8        14.000          49.000
  23219356.190     8275897.830 6   6448743.228 9        13.000          55.000
  19862478.299   -23343315.847 7 -18120769.465 9        22.000         149.000
  20234349.867   -22072051.965 7 -16801124.674 9        23.000         102.000
  23625187.482    -3032134.587 5  -2240970.886 7         8.000          27.000
 90  6 17 21 57  0.1580000  0  5 12 11 09 13 18
  22365004.093    -8464958.158 6  -5298833.343 8        14.000          44.000
  23227457.179     8318463.113 6   6481910.925 9        13.000          54.000
  19858623.966   -23363566.720 7 -18136549.358 9        22.000         139.000
  20229201.107   -22099110.105 7 -16822208.897 9        23.000         107.000
  23622314.314    -3047215.347 4  -2252722.149 6         7.000          23.000
 90  6 17 21 57 15.0060000  0  5 12 11 09 13 18
  22355454.735    -8515143.540 6  -5337938.785 8        14.000          44.000
  23235421.591     8360325.143 6   6514530.628 8        13.000          52.000
  19854857.452   -23383351.583 7 -18151966.131 9        22.000         143.000
  20224163.550   -22125587.178 7 -16842840.338 9        23.000         108.000
  23619520.651    -3061916.862 5  -2264177.901 6         8.000          20.000
 90  6 17 21 57 30.1100000  0  5 12 11 09 13 18
  22345742.781    -8566164.622 6  -5377695.411 8        14.000          50.000
  23243530.118     8402928.814 6   6547728.232 8        13.000          52.000
  19851054.287   -23403350.569 7 -18167549.745 9        22.000         145.000
  20219059.972   -22152394.307 7 -16863728.967 9        23.000         111.000
  23616693.697    -3076744.660 4  -2275732.024 6         7.000          20.000
 90  6 17 21 57 45.2140000  0  5 12 11 09 13 18
  22336042.361    -8617150.513 6  -5417424.613 8        14.000          42.000
  23251642.343     8445557.180 6   6580945.082 8        13.000          48.000
  19847272.072   -23423216.284 7 -18183029.521 9        22.000         142.000
  20213988.327   -22179068.828 7 -16884514.267 9        23.000         108.000
  23613900.392    -3091438.604 4  -2287181.833 6         7.000          21.000
 90  6 17 21 58  0.0620000  0  5 12 11 09 13 18
  22326511.584    -8667236.167 6  -5456452.339 8        14.000          44.000
  23259620.556     8487488.271 6   6613618.592 8        12.000          51.000
  19843581.243   -23442613.619 7 -18198144.327 9        22.000         145.000
  20209019.324   -22205160.373 7 -16904845.298 9        23.000         116.000
  23611178.572    -3105753.335 4  -2298336.195 6         7.000          16.000
 90  6 17 21 58 15.1660000  0  5 12 11 09 13 18
  22316821.195    -8718156.160 6  -5496130.191 8        14.000          50.000
  23267740.626     8530159.930 6   6646869.174 8        13.000          45.000
  19839852.005   -23462219.131 7 -18213421.345 9        22.000         139.000
  20203992.677   -22231576.827 7 -16925429.506 9        23.000         113.000
  23608428.130    -3120191.433 4  -2309586.689 6         7.000          13.000
 90  6 17 21 58 30.0140000  0  5 12 11 09 13 18
  22307302.635    -8768184.845 6  -5535113.515 8        14.000          48.000
  23275726.153     8572124.606 6   6679568.861 8        13.000          47.000
  19836206.316   -23481368.569 7 -18228342.978 9        22.000         139.000
  20199075.271   -22257423.364 7 -16945569.623 9        23.000         118.000
  23605751.134    -3134264.621 4  -2320552.794 6         7.000          16.000
 90  6 17 21 58 45.1180000  0  5 12 11 09 13 18
  22297624.310    -8819042.050 6  -5574742.436 8        14.000          47.000
  23283853.823     8614834.176 6   6712848.985 8        13.000          45.000
  19832525.651   -23500716.845 7 -18243419.559 9        22.000         136.000
  20194095.215   -22283586.039 7 -16965956.084 9        23.000         108.000
  23603050.797    -3148451.611 4  -2331607.601 5         7.000          10.000
 90  6 17 21 59  0.2220000  0  5 12 11 09 13 18
  22287952.727    -8869865.233 6  -5614344.859 8        15.000          51.000
  23291984.231     8657564.266 6   6746145.108 8        12.000          45.000
  19828867.418   -23519933.368 7 -18258393.460 9        22.000         142.000
  20189142.332   -22309618.818 7 -16986241.328 9        22.000         114.000
  23600374.568    -3162508.199 5  -2342560.793 6         8.000          18.000
 90  6 17 21 59 15.0700000  0  5 12 11 09 13 18
  22278451.237    -8919793.423 6  -5653249.885 9        14.000          55.000
  23299981.771     8699590.053 6   6778892.402 8        12.000          40.000
  19825297.189   -23538695.210 7 -18273013.079 9        22.000         135.000
  20184297.168   -22335083.630 7 -17006083.999 9        23.000         118.000
  23597770.978    -3176198.509 5  -2353228.599 6         8.000          24.000
 90  6 17 21 59 30.1740000  0  5 12 11 09 13 18
  22268793.261    -8970549.012 6  -5692799.622 8        14.000          53.000
  23308120.494     8742359.268 6   6812219.011 8        12.000          41.000
  19821690.645   -23557650.143 7 -18287783.150 9        22.000         134.000
  20179390.232   -22360859.525 7 -17026169.070 9        23.000         114.000
  23595145.569    -3189994.958 5  -2363979.073 6         8.000          16.000
 90  6 17 21 59 45.0220000  0  5 12 11 09 13 18
  22259302.732    -9020413.504 6  -5731655.009 8        14.000          48.000
  23316125.102     8784419.536 6   6844993.181 7        12.000          39.000
  19818168.100   -23576157.668 7 -18302204.600 9        22.000         134.000
  20174594.213   -22386074.991 7 -17045817.449 9        23.000         115.000
  23592587.621    -3203431.843 5  -2374449.389 6         8.000          18.000
 90  6 17 22  0  0.1260000  0  5 12 11 09 13 18
  22249659.465    -9071099.622 6  -5771150.620 8        14.000          52.000
  23324271.629     8827227.254 6   6878349.795 7        12.000          35.000
  19814612.816   -23594849.594 7 -18316769.732 9        22.000         132.000
  20169735.279   -22411593.407 7 -17065701.886 9        23.000         115.000
  23590014.596    -3216965.763 4  -2384995.306 6         7.000          20.000
 90  6 17 22  0 15.2300000  0  5 12 11 09 13 18
  22240019.570    -9121752.480 6  -5810620.319 8        14.000          48.000
  23332421.906     8870051.646 6   6911719.403 8        12.000          40.000
  19811078.340   -23613410.700 7 -18331232.928 9        21.000         130.000
  20164905.826   -22436984.333 7 -17085486.992 9        23.000         118.000
  23587464.013    -3230368.499 5  -2395438.998 6         8.000          14.000
 90  6 17 22  0 30.0780000  0  5 12 11 09 13 18
  22230549.584    -9171508.796 6  -5849391.399 9        14.000          54.000
  23340435.197     8912171.526 6   6944540.029 8        12.000          41.000
  19807633.513   -23631524.043 7 -18345347.215 9        21.000         132.000
  20160180.833   -22461815.304 7 -17104835.763 9        24.000         113.000
  23584981.371    -3243408.640 5  -2405600.142 6         8.000          18.000
 90  6 17 22  0 45.1820000  0  5 12 11 09 13 18
  22220925.532    -9222088.133 6  -5888803.807 8        14.000          52.000
  23348590.867     8955034.974 6   6977940.054 7        12.000          37.000
  19804152.370   -23649818.213 7 -18359602.407 9        21.000         130.000
  20155399.156   -22486946.440 7 -17124418.431 9        24.000         114.000
  23582482.293    -3256540.103 5  -2415832.467 6         8.000          17.000
 90  6 17 22  1  0.0300000  0  5 12 11 09 13 18
  22211473.249    -9271768.272 6  -5927515.537 8        14.000          52.000
  23356614.353     8997195.941 6   7010792.697 8        12.000          40.000
  19800753.307   -23667665.534 7 -18373509.406 9        21.000         132.000
  20150721.878   -22511518.705 7 -17143565.609 9        23.000         111.000
  23580052.494    -3269310.741 5  -2425783.611 6         8.000          24.000
 90  6 17 22  1 15.1340000  0  5 12 11 09 13 18
  22201862.150    -9322267.332 6  -5966865.390 8        14.000          53.000
  23364781.341     9040102.721 6   7044226.488 8        12.000          42.000
  19797327.020   -23685686.452 7 -18387551.669 9        22.000         129.000
  20145989.459   -22536384.703 7 -17162941.672 9        23.000         115.000
  23577604.778    -3282167.226 5  -2435801.656 6         8.000          13.000
 90  6 17 22  1 30.2380000  0  5 12 11 09 13 18
  22192258.356    -9372735.780 6  -6006191.380 9        14.000          54.000
  23372946.266     9083020.743 6   7077669.039 7        12.000          37.000
  19793919.611   -23703579.318 7 -18401494.160 9        21.000         131.000
  20141281.770   -22561127.157 7 -17182221.475 9        23.000         117.000
  23575182.907    -3294896.278 5  -2445720.408 6         8.000          19.000
 90  6 17 22  1 45.0860000  0  5 12 11 09 13 18
  22182821.009    -9422324.543 6  -6044831.904 8        13.000          44.000
  23380975.953     9125215.961 5   7110548.368 8        11.000          41.000
  19790596.865   -23721049.833 7 -18415107.541 9        22.000         128.000
  20136673.997   -22585335.738 7 -17201085.266 9        24.000         115.000
  23572826.514    -3307291.703 5  -2455379.210 6         8.000          19.000
 90  6 17 22  2  0.1900000  0  5 12 11 09 13 18
  22173231.443    -9472727.820 6  -6084107.112 8        14.000          50.000
  23389148.743     9168158.531 5   7144010.056 7        11.000          38.000
  19787241.410   -23738684.646 7 -18428848.950 9        22.000         132.000
  20132012.971   -22609829.979 7 -17220171.650 9        24.000         109.000
  23570451.714    -3319765.014 5  -2465098.663 6         8.000          16.000
 90  6 17 22  2 15.0380000  0  5 12 11 09 13 18
  22163809.202    -9522237.137 6  -6122685.742 8        14.000          44.000
  23397183.884     9210392.060 5   7176919.233 7        11.000          39.000
  19783967.681   -23755886.389 7 -18442252.897 9        22.000         134.000
  20127456.519   -22633779.981 7 -17238833.953 9        24.000         118.000
  23568141.831    -3331894.353 4  -2474550.098 6         7.000          21.000
 90  6 17 22  2 30.1420000  0  5 12 11 09 13 18
  22154232.774    -9572562.556 6  -6161900.287 8        14.000          45.000
  23405363.611     9253369.346 5   7210407.960 8        11.000          40.000
  19780664.312   -23773250.960 7 -18455783.725 9        22.000         135.000
  20122843.607   -22658014.615 7 -17257718.031 9        24.000         114.000
  23565821.192    -3344101.497 4  -2484062.160 6         7.000          12.000
 90  6 17 22  2 45.2460000  0  5 12 11 09 13 18
  22144663.710    -9622846.377 6  -6201082.420 9        14.000          60.000
  23413544.339     9296365.622 5   7243911.489 7        11.000          38.000
  19777384.447   -23790477.098 7 -18469206.688 9        22.000         131.000
  20118257.428   -22682116.477 7 -17276498.681 9        24.000         119.000
  23563524.476    -3356174.163 5  -2493469.437 5         8.000           8.000
 90  6 17 22  3  0.0940000  0  5 12 11 09 13 18
  22135265.424    -9672237.256 6  -6239568.752 9        15.000          56.000
  23421592.576     9338651.067 5   7276861.123 7        11.000          34.000
  19774190.779   -23807276.273 7 -18482296.947 9        22.000         137.000
  20113773.095   -22705680.943 7 -17294860.560 9        24.000         124.000
  23561290.625    -3367911.119 5  -2502615.145 6         8.000          17.000
 90  6 17 22  3 15.1980000  0  5 12 11 09 13 18
  22125712.562    -9722439.588 6  -6278687.398 9        14.000          57.000
  23429782.406     9381682.098 5   7310391.733 8        11.000          40.000
  19770961.193   -23824229.044 7 -18495506.892 9        22.000         131.000
  20109238.820   -22729521.843 7 -17313437.850 9        24.000         123.000
  23559044.046    -3379718.274 4  -2511815.550 5         7.000          10.000
 90  6 17 22  3 30.0460000  0  5 12 11 09 13 18
  22116328.720    -9771752.510 6  -6317112.985 9        14.000          61.000
  23437835.148     9423998.678 5   7343365.623 7        11.000          34.000
  19767817.293   -23840761.772 7 -18508389.531 9        22.000         139.000
  20104800.138   -22752832.096 7 -17331601.642 9        24.000         121.000
  23556856.224    -3391195.631 4  -2520758.949 5         7.000          11.000
 90  6 17 22  3 45.1500000  0  5 12 11 09 13 18
  22106788.760    -9821881.134 6  -6356174.170 9        14.000          61.000
  23446027.592     9467054.621 6   7376915.648 8        12.000          42.000
  19764639.774   -23857449.054 7 -18521392.606 9        22.000         131.000
  20100313.118   -22776420.925 7 -17349982.519 9        25.000         125.000
  23554661.006    -3402744.787 4  -2529758.307 5         7.000           8.000
 90  6 17 22  4  0.2540000  0  5 12 11 09 13 18
  22097257.523    -9871970.353 6  -6395204.665 9        14.000          63.000
  23454223.489     9510124.193 6   7410476.305 7        12.000          34.000
  19761492.084   -23874000.677 7 -18534289.970 9        22.000         129.000
  20095848.163   -22799881.060 7 -17368263.104 9        24.000         124.000
  23552489.723    -3414162.166 4  -2538654.995 5         7.000          10.000
 90  6 17 22  4 15.1020000  0  5 12 11 09 13 18
  22087891.129    -9921175.053 6  -6433545.929 9        14.000          56.000
  23462281.452     9552473.576 6   7443475.767 8        12.000          43.000
  19758419.138   -23890142.290 7 -18546867.847 9        21.000         129.000
  20091482.234   -22822821.184 7 -17386138.493 9        24.000         131.000
  23550377.105    -3425261.120 4  -2547303.548 6         7.000          13.000
 90  6 17 22  4 30.2060000  0  5 12 11 09 13 18
  22078376.645    -9971191.470 6  -6472519.694 9        14.000          61.000
  23470480.464     9595563.203 5   7477052.039 8        11.000          41.000
  19755320.144   -23906429.870 7 -18559559.460 9        22.000         125.000
  20087065.954   -22846032.111 7 -17404224.896 9        24.000         126.000
  23548250.370    -3436423.706 4  -2556001.680 6         7.000          16.000
 90  6 17 22  4 45.0540000  0  5 12 11 09 13 18
  22069026.575   -10020317.387 6  -6510799.560 9        14.000          60.000
  23478542.747     9637938.570 5   7510071.742 7        10.000          37.000
  19752300.531   -23922304.802 7 -18571929.534 9        22.000         126.000
  20082746.640   -22868720.538 7 -17421904.154 9        24.000         128.000
  23546190.738    -3447264.459 4  -2564449.038 6         7.000          20.000
 90  6 17 22  5  0.1580000  0  5 12 11 09 13 18
  22059523.737   -10070253.661 6  -6549710.883 9        14.000          64.000
  23486749.789     9681053.344 5   7543667.602 8        11.000          40.000
  19749251.080   -23938321.600 7 -18584410.157 9        22.000         125.000
  20078380.066   -22891676.091 7 -17439791.564 9        25.000         123.000
  23544112.924    -3458163.878 4  -2572942.105 6         7.000          19.000
 90  6 17 22  5 15.0060000  0  5 12 11 09 13 18
  22050192.013   -10119298.000 6  -6587927.179 9        14.000          60.000
  23494818.579     9723454.948 5   7576707.758 7        11.000          38.000
  19746282.809   -23953927.672 7 -18596570.731 9        22.000         121.000
  20074110.771   -22914111.612 7 -17457273.754 9        25.000         126.000
  23542099.046    -3468743.102 4  -2581185.662 6         7.000          19.000
 90  6 17 22  5 30.1100000  0  5 12 11 09 13 18
  22040704.834   -10169149.022 6  -6626772.079 9        14.000          61.000
  23503028.267     9766597.647 5   7610325.384 7        11.000          36.000
  19743285.609   -23969668.523 7 -18608836.327 9        22.000         122.000
  20069791.697   -22936808.259 7 -17474959.417 9        24.000         128.000
  23540081.071    -3479375.309 4  -2589470.501 6         7.000          22.000
 90  6 17 22  5 45.2140000  0  5 12 11 09 13 18
  22031225.736   -10218955.996 6  -6665582.638 9        14.000          65.000
  23511240.896     9809754.407 5   7643953.970 7        11.000          35.000
  19740318.564   -23985269.438 7 -18620992.878 9        22.000         118.000
  20065496.772   -22959373.754 7 -17492542.889 9        24.000         121.000
  23538079.401    -3489873.258 4  -2597650.760 6         7.000          14.000
 90  6 17 22  6  0.0620000  0  5 12 11 09 13 18
  22021916.476   -10267875.962 6  -6703702.036 9        14.000          65.000
  23519316.643     9852192.689 5   7677022.693 7        11.000          39.000
  19737423.648   -24000469.742 7 -18632837.274 9        22.000         120.000
  20061300.607   -22981429.531 7 -17509729.174 9        24.000         125.000
  23536142.218    -3500062.013 4  -2605590.037 6         7.000          13.000
 90  6 17 22  6 15.1660000  0  5 12 11 09 13 18
  22012455.898   -10317597.879 6  -6742446.321 9        14.000          66.000
  23527533.563     9895373.367 5   7710669.927 7        11.000          37.000
  19734509.722   -24015795.570 7 -18644779.476 9        22.000         122.000
  20057053.755   -23003738.377 7 -17527112.659 9        24.000         124.000
  23534194.044    -3510293.900 4  -2613562.941 6         7.000          13.000
 90  6 17 22  6 30.0140000  0  5 12 11 09 13 18
  22003160.734   -10366442.761 6  -6780507.214 9        14.000          71.000
  23535610.862     9937825.591 5   7743749.533 7        11.000          39.000
  19731665.361   -24030734.370 7 -18656420.093 9        22.000         120.000
  20052904.151   -23025551.127 7 -17544109.570 9        24.000         128.000
  23532307.559    -3520229.364 4  -2621304.900 6         7.000          24.000
 90  6 17 22  6 45.1180000  0  5 12 11 09 13 18
  21993713.415   -10416086.275 6  -6819190.411 9        14.000          63.000
  23543832.542     9981021.226 5   7777408.412 7        11.000          38.000
  19728801.519   -24045792.726 7 -18668153.876 9        22.000         115.000
  20048706.086   -23047611.659 7 -17561299.565 9        24.000         127.000
  23530405.854    -3530203.269 4  -2629076.775 6         7.000          14.000
 90  6 17 22  7  0.2220000  0  5 12 11 09 13 18
  21984277.650   -10465677.916 6  -6857833.191 9        15.000          63.000
  23552055.223    10024235.808 5   7811082.040 8        10.000          47.000
  19725962.419   -24060703.771 7 -18679772.876 9        22.000         114.000
  20044533.222   -23069535.156 7 -17578382.774 9        24.000         127.000
  23528532.884    -3540037.522 4  -2636739.856 6         7.000          19.000
 90  6 17 22  7 15.0700000  0  5 12 11 09 13 18
  21975008.821   -10514384.346 6  -6895786.197 9        15.000          72.000
  23560141.563    10066729.767 5   7844194.157 7        10.000          39.000
  19723200.239   -24075224.585 7 -18691087.792 9        22.000         113.000
  20040456.330   -23090959.802 7 -17595077.273 9        24.000         122.000
  23526719.530    -3549576.810 4  -2644173.090 6         7.000          18.000
 90  6 17 22  7 30.1740000  0  5 12 11 09 13 18
  21965589.881   -10563883.813 6  -6934357.140 9        15.000          75.000
  23568371.354    10109969.388 5   7877887.296 7        11.000          37.000
  19720414.575   -24089854.576 7 -18702487.786 9        22.000         113.000
  20036334.450   -23112623.326 7 -17611957.911 9        24.000         127.000
  23524900.179    -3559149.883 4  -2651632.632 6         7.000          13.000
 90  6 17 22  7 45.0220000  0  5 12 11 09 13 18
  21956339.061   -10612498.230 6  -6972238.450 9        15.000          70.000
  23576460.482    10152488.246 5   7911018.807 7        11.000          37.000
  19717705.411   -24104097.851 7 -18713586.443 9        22.000         112.000
  20032306.335   -23133791.577 7 -17628452.619 9        24.000         125.000
  23523128.850    -3568431.682 4  -2658865.221 6         7.000          17.000
 90  6 17 22  8  0.1260000  0  5 12 11 09 13 18
  21946934.575   -10661909.294 6  -7010740.517 9        14.000          73.000
  23584694.186    10195746.672 5   7944726.612 7        11.000          32.000
  19714974.705   -24118450.935 7 -18724770.657 9        22.000         118.000
  20028231.016   -23155200.169 7 -17645134.599 9        24.000         125.000
  23521357.827    -3577747.308 4  -2666124.151 6         7.000          14.000
 90  6 17 22  8 15.2300000  0  5 12 11 09 13 18
  21937540.978   -10711277.545 6  -7049209.221 9        15.000          68.000
  23592925.366    10239011.977 5   7978439.777 7        11.000          38.000
  19712267.809   -24132666.350 7 -18735847.604 9        22.000         114.000
  20024183.523   -23176482.407 7 -17661718.126 9        25.000         132.000
  23519611.781    -3586935.181 5  -2673283.573 6         8.000          18.000
 90  6 17 22  8 30.0780000  0  5 12 11 09 13 18
  21928313.787   -10759768.723 6  -7086994.499 9        15.000          66.000
  23601020.143    10281548.653 5   8011585.184 8        11.000          40.000
  19709635.801   -24146508.112 7 -18746633.398 9        22.000         116.000
  20020223.942   -23197282.687 7 -17677926.110 9        25.000         122.000
  23517916.882    -3595845.571 5  -2680226.742 6         8.000          23.000
 90  6 17 22  8 45.1820000  0  5 12 11 09 13 18
  21918933.020   -10809058.921 6  -7125402.398 9        15.000          75.000
  23609256.268    10324819.012 5   8045302.292 7        11.000          37.000
  19706979.093   -24160457.507 7 -18757503.058 9        22.000         111.000
  20016220.865   -23218322.268 7 -17694320.552 9        24.000         128.000
  23516213.606    -3604791.062 5  -2687197.275 6         9.000          22.000
 90  6 17 22  9  0.0300000  0  5 12 11 09 13 18
  21909720.600   -10857478.372 6  -7163131.782 9        15.000          68.000
  23617350.330    10367354.541 5   8078446.784 7        10.000          36.000
  19704396.230   -24174042.955 7 -18768089.119 9        22.000         108.000
  20012307.517   -23238889.795 7 -17710347.159 9        25.000         126.000
  23514559.659    -3613469.833 5  -2693959.977 6         8.000          24.000
 90  6 17 22  9 15.1340000  0  5 12 11 09 13 18
  21900355.269   -10906688.382 6  -7201477.188 9        15.000          73.000
  23625583.839    10410629.449 5   8112167.427 7        10.000          33.000
  19701790.996   -24187724.933 7 -18778750.401 9        22.000         114.000
  20008349.846   -23259686.574 7 -17726552.410 9        24.000         138.000
  23512906.745    -3622172.371 5  -2700741.202 6         9.000          19.000
 90  6 17 22  9 30.2380000  0  5 12 11 09 13 18
  21891000.194   -10955848.201 6  -7239783.498 9        15.000          73.000
  23633822.037    10453915.694 5   8145896.900 7        11.000          27.000
  19699215.212   -24201262.279 7 -18789298.986 9        22.000         112.000
  20004416.957   -23280351.469 7 -17742654.887 9        24.000         134.000
  23511274.515    -3630741.662 5  -2707418.618 6         8.000          20.000
 90  6 17 22  9 45.0860000  0  5 12 11 09 13 18
  21881812.326   -11004126.866 6  -7277403.171 9        16.000          73.000
  23641920.236    10496477.781 5   8179062.118 7        10.000          26.000
  19696709.811   -24214430.391 7 -18799559.850 9        22.000         108.000
  20000574.381   -23300539.033 7 -17758385.417 9        24.000         129.000
  23509700.400    -3639034.858 5  -2713880.853 7         9.000          29.000
 90  6 17 22 10  0.1900000  0  5 12 11 09 13 18
  21872477.762   -11053192.232 6  -7315635.871 9        16.000          69.000
  23650162.531    10539779.559 5   8212803.706 7        10.000          28.000
  19694186.074   -24227686.631 7 -18809889.392 9        22.000         110.000
  19996692.057   -23320948.861 7 -17774289.158 9        24.000         137.000
  23508116.744    -3647341.810 5  -2720353.827 7         9.000          28.000
 90  6 17 22 10 15.0380000  0  5 12 11 09 13 18
  21863306.325   -11101378.279 6  -7353183.392 9        15.000          64.000
  23658263.131    10582355.371 5   8245979.613 7        10.000          26.000
  19691735.415   -24240578.890 7 -18819935.309 9        23.000         108.000
  19992896.654   -23340886.863 7 -17789825.225 9        23.000         126.000
  23506585.635    -3655379.632 5  -2726617.071 6         9.000          23.000
 90  6 17 22 10 30.1420000  0  5 12 11 09 13 18
  21853988.248   -11150345.702 6  -7391339.771 9        15.000          60.000
  23666505.792    10625673.724 5   8279734.111 7        10.000          38.000
  19689264.592   -24253551.106 7 -18830043.529 9        22.000         103.000
  19989062.240   -23361039.823 7 -17805528.800 9        24.000         131.000
  23505053.494    -3663425.593 5  -2732886.674 7         9.000          26.000
 90  6 17 22 10 45.2460000  0  5 12 11 09 13 18
  21844680.643   -11199263.470 6  -7429457.448 9        15.000          68.000
  23674751.161    10668999.824 5   8313494.640 7        10.000          28.000
  19686822.883   -24266379.816 7 -18840039.930 9        23.000         103.000
  19985252.045   -23381063.330 7 -17821131.498 9        23.000         134.000
  23503549.904    -3671341.317 5  -2739054.811 7         8.000          27.000
 90  6 17 22 11  0.0940000  0  5 12 11 09 13 18
  21835537.021   -11247306.284 6  -7466893.349 9        16.000          70.000
  23682855.990    10711595.781 5   8346686.220 7        10.000          34.000
  19684450.381   -24278854.168 7 -18849760.204 9        22.000         105.000
  19981528.813   -23400624.373 7 -17836373.838 9        24.000         127.000
  23502091.945    -3678999.631 4  -2745022.339 6         7.000          22.000
 90  6 17 22 11 15.1980000  0  5 12 11 09 13 18
  21826247.220   -11296127.011 6  -7504935.430 9        16.000          66.000
  23691103.264    10754933.770 5   8380456.013 6        10.000          19.000
  19682062.372   -24291400.507 7 -18859536.574 9        22.000         103.000
  19977768.387   -23420393.959 7 -17851778.675 9        24.000         131.000
  23500635.621    -3686660.508 4  -2750991.865 6         7.000          24.000
 90  6 17 22 11 30.0460000  0  5 12 11 09 13 18
  21817124.591   -11344071.317 6  -7542294.572 9        16.000          65.000
  23699211.607    10797543.439 5   8413658.299 6        10.000          24.000
  19679742.121   -24303594.348 7 -18869038.273 9        22.000         100.000
  19974093.257   -23439703.074 7 -17866824.704 9        24.000         123.000
  23499225.837    -3694065.004 4  -2756761.617 6         7.000          20.000
 90  6 17 22 11 45.1500000  0  5 12 11 09 13 18
  21807853.229   -11392787.414 6  -7580255.119 9        16.000          61.000
  23707461.879    10840898.557 5   8447441.457 7        10.000          27.000
  19677410.919   -24315851.191 7 -18878589.059 9        22.000         109.000
  19970379.474   -23459212.888 7 -17882027.126 9        24.000         130.000
  23497815.880    -3701462.623 4  -2762525.991 6         7.000          23.000
 90  6 17 22 12  0.2540000  0  5 12 11 09 13 18
  21798592.623   -11441454.049 6  -7618177.101 9        16.000          68.000
  23715713.061    10884258.080 5   8481228.046 6        10.000          24.000
  19675104.448   -24327965.621 7 -18888028.878 9        22.000          99.000
  19966692.392   -23478595.657 7 -17897130.545 9        24.000         137.000
  23496432.666    -3708732.319 4  -2768190.712 7         7.000          27.000
 90  6 17 22 12 15.1020000  0  5 12 11 09 13 18
  21789498.045   -11489243.660 6  -7655415.721 9        17.000          71.000
  23723825.480    10926890.454 5   8514448.033 6        11.000          24.000
  19672864.110   -24339731.950 7 -18897197.447 9        22.000         100.000
  19963091.589   -23497522.375 7 -17911878.609 9        24.000         134.000
  23495095.604    -3715752.049 4  -2773660.658 6         7.000          21.000
 90  6 17 22 12 30.2060000  0  5 12 11 09 13 18
  21780256.379   -11537805.053 6  -7693255.706 9        16.000          71.000
  23732081.074    10970264.426 5   8548245.866 7        11.000          34.000
  19670616.570   -24351556.975 7 -18906411.750 9        23.000          98.000
  19959449.209   -23516646.928 7 -17926780.825 9        24.000         140.000
  23493763.465    -3722763.867 4  -2779124.429 6         7.000          24.000
 90  6 17 22 12 45.0540000  0  5 12 11 09 13 18
  21771181.924   -11585495.925 6  -7730417.365 9        16.000          74.000
  23740193.401    11012904.998 5   8581472.231 7        10.000          28.000
  19668429.514   -24363043.799 7 -18915362.532 9        22.000          93.000
  19955895.630   -23535325.405 7 -17941335.447 9        24.000         141.000
  23492471.156    -3729533.985 3  -2784399.861 6         6.000          21.000
 90  6 17 22 13  0.1580000  0  5 12 11 09 13 18
  21761961.648   -11633955.584 6  -7768178.085 9        17.000          71.000
  23748449.711    11056287.165 5   8615276.453 7        10.000          34.000
  19666231.651   -24374583.546 7 -18924354.545 9        22.000          97.000
  19952305.501   -23554196.966 7 -17956040.525 9        24.000         143.000
  23491190.941    -3736290.495 4  -2789664.697 6         7.000          14.000
 90  6 17 22 13 15.0060000  0  5 12 11 09 13 18
  21752905.346   -11681546.415 6  -7805261.800 9        16.000          71.000
  23756565.807    11098934.817 5   8648508.338 7        10.000          30.000
  19664101.095   -24385790.237 7 -18933087.030 9        22.000         100.000
  19948798.841   -23572627.430 7 -17970401.902 9        24.000         134.000
  23489949.390    -3742808.322 4  -2794743.532 6         7.000          23.000
 90  6 17 22 13 30.1100000  0  5 12 11 09 13 18
  21743701.395   -11729904.094 6  -7842943.052 9        17.000          70.000
  23764822.433    11142323.282 5   8682317.459 7        10.000          30.000
  19661959.629   -24397045.030 7 -18941857.000 9        23.000          98.000
  19945253.189   -23591247.287 7 -17984910.852 9        24.000         142.000
  23488715.757    -3749306.055 4  -2799806.713 6         7.000          16.000
 90  6 17 22 13 45.2140000  0  5 12 11 09 13 18
  21734511.642   -11778207.638 6  -7880582.117 9        17.000          69.000
  23773080.111    11185716.775 5   8716130.527 7        10.000          29.000
  19659846.439   -24408153.609 7 -18950513.040 9        23.000          99.000
  19941735.271   -23609738.030 7 -17999319.186 9        25.000         141.000
  23487499.611    -3755671.247 3  -2804766.620 6         6.000          20.000
 90  6 17 22 14  0.0620000  0  5 12 11 09 13 18
  21725483.942   -11825642.823 6  -7917544.545 9        17.000          76.000
  23781197.444    11228375.980 5   8749371.403 7         9.000          32.000
  19657792.651   -24418934.580 7 -18958913.794 9        23.000          98.000
  19938301.690   -23627793.057 7 -18013388.011 9        25.000         138.000
  23486337.760    -3761803.603 4  -2809545.096 7         7.000          26.000
 90  6 17 22 14 15.1660000  0  5 12 11 09 13 18
  21716311.525   -11873840.946 6  -7955101.462 9        17.000          76.000
  23789454.386    11271775.496 5   8783189.160 7         9.000          34.000
  19655734.674   -24429755.758 7 -18967345.892 9        22.000         104.000
  19934830.874   -23646031.235 7 -18027599.539 9        25.000         139.000
  23485176.133    -3767910.500 4  -2814303.727 6         7.000          21.000
 90  6 17 22 14 30.0140000  0  5 12 11 09 13 18
  21707303.367   -11921172.422 6  -7991983.089 9        17.000          73.000
  23797575.774    11314439.410 5   8816433.706 7        10.000          29.000
  19653737.753   -24440254.521 7 -18975526.744 9        22.000         101.000
  19931439.880   -23663838.868 7 -18041475.588 9        24.000         140.000
  23484054.447    -3773788.030 4  -2818883.650 6         7.000          24.000
 90  6 17 22 14 45.1180000  0  5 12 11 09 13 18
  21698151.217   -11969268.722 6  -8029460.666 9        16.000          81.000
  23805832.420    11357839.231 5   8850251.693 7        10.000          29.000
  19651732.149   -24450792.219 7 -18983737.945 9        22.000          96.000
  19928017.259   -23681829.436 7 -18055494.184 9        25.000         138.000
  23482938.758    -3779638.559 4  -2823442.523 6         7.000          23.000
 90  6 17 22 15  0.2220000  0  5 12 11 09 13 18
  21689011.814   -12017305.952 6  -8066892.202 9        17.000          79.000
  23814093.674    11401245.994 5   8884075.102 7        10.000          36.000
  19649755.454   -24461179.521 7 -18991831.947 9        22.000         103.000
  19924617.041   -23699688.232 7 -18069410.099 9        24.000         140.000
  23481853.612    -3785352.775 5  -2827895.165 6         8.000          21.000
 90  6 17 22 15 15.0700000  0  5 12 11 09 13 18
  21680036.723   -12064476.395 6  -8103648.344 9        18.000          76.000
  23822214.817    11443918.122 5   8917326.055 7        10.000          28.000
  19647837.129   -24471249.455 7 -18999678.647 9        22.000          99.000
  19921302.211   -23717121.174 7 -18082994.183 9        25.000         135.000
  23480808.090    -3790843.033 4  -2832173.344 6         7.000          23.000
 90  6 17 22 15 30.1740000  0  5 12 11 09 13 18
  21670913.564   -12112406.731 6  -8140996.603 9        17.000          80.000
  23830473.159    11487326.486 5   8951150.699 8         9.000          40.000
  19645916.311   -24481349.425 7 -19007548.756 9        22.000          98.000
  19917951.127   -23734729.837 7 -18096715.183 9        24.000         144.000
  23479771.272    -3796299.736 5  -2836425.328 6         8.000          21.000
 90  6 17 22 15 45.0220000  0  5 12 11 09 13 18
  21661958.433   -12159473.821 6  -8177672.199 9        17.000          85.000
  23838594.966    11529997.401 5   8984400.709 7         9.000          36.000
  19644052.473   -24491138.735 7 -19015176.793 9        22.000          95.000
  19914680.059   -23751919.442 7 -18110109.652 9        25.000         140.000
  23478776.111    -3801540.533 5  -2840509.115 6         8.000          24.000
 90  6 17 22 16  0.1260000  0  5 12 11 09 13 18
  21652857.185   -12207298.334 6  -8214937.991 9        18.000          79.000
  23846854.513    11573403.942 5   9018223.926 8         9.000          41.000
  19642185.938   -24500952.903 7 -19022824.191 9        23.000          96.000
  19911375.312   -23769280.965 7 -18123638.082 9        25.000         143.000
  23477783.780    -3806744.389 4  -2844564.090 6         7.000          25.000
 90  6 17 22 16 15.2300000  0  5 12 11 09 13 18
  21643766.203   -12255067.390 6  -8252160.581 9        18.000          79.000
  23855115.767    11616810.869 5   9052047.447 7         9.000          29.000
  19640347.363   -24510621.116 7 -19030357.871 9        22.000          94.000
  19908096.429   -23786516.156 7 -18137068.071 9        24.000         139.000
  23476817.753    -3811819.093 4  -2848518.433 7         7.000          29.000
 90  6 17 22 16 30.0780000  0  5 12 11 09 13 18
  21634842.208   -12301971.274 6  -8288709.016 9        18.000          82.000
  23863235.704    11659483.247 5   9085298.605 7         9.000          34.000
  19638565.736   -24519981.901 7 -19037651.990 9        22.000          92.000
  19904893.864   -23803335.204 7 -18150173.789 9        24.000         141.000
  23475892.974    -3816680.576 4  -2852306.637 6         7.000          18.000
 90  6 17 22 16 45.1820000  0  5 12 11 09 13 18
  21625772.852   -12349626.390 6  -8325842.823 9        18.000          82.000
  23871496.242    11702892.954 5   9119124.295 7         9.000          37.000
  19636781.311   -24529357.199 7 -19044957.416 9        23.000          97.000
  19901663.258   -23820317.337 7 -18163406.602 9        24.000         141.000
  23474977.758    -3821497.830 4  -2856060.352 7         7.000          28.000
 90  6 17 22 17  0.0300000  0  5 12 11 09 13 18
  21616867.623   -12396427.459 6  -8362311.131 9        19.000          77.000
  23879615.332    11745557.685 5   9152369.482 7         9.000          38.000
  19635053.029   -24538439.584 7 -19052034.607 9        23.000          91.000
  19898508.153   -23836897.650 7 -18176326.289 9        24.000         136.000
  23474098.907    -3826117.901 4  -2859660.426 7         7.000          35.000
 90  6 17 22 17 15.1340000  0  5 12 11 09 13 18
  21607818.901   -12443971.408 6  -8399358.314 9        18.000          77.000
  23887872.601    11788964.997 5   9186193.310 7         9.000          29.000
  19633323.439   -24547525.531 7 -19059114.569 9        23.000          83.000
  19895324.659   -23853631.356 7 -18189365.517 9        24.000         138.000
  23473231.139    -3830683.011 3  -2863217.691 7         6.000          28.000
 90  6 17 22 17 30.2380000  0  5 12 11 09 13 18
  21598785.625   -12491444.892 6  -8436350.595 9        18.000          82.000
  23896137.450    11832384.799 5   9220026.875 7         9.000          36.000
  19631625.015   -24556451.395 7 -19066069.798 9        23.000          90.000
  19892165.396   -23870225.969 7 -18202296.359 9        24.000         137.000
  23472385.283    -3835107.877 3  -2866665.655 7         6.000          29.000
 90  6 17 22 17 45.0860000  0  5 12 11 09 13 18
  21589915.873   -12538052.136 6  -8472667.878 9        18.000          87.000
  23904261.995    11875073.178 5   9253290.497 7         9.000          36.000
  19629982.805   -24565076.975 7 -19072791.038 9        23.000          94.000
  19889086.761   -23886411.207 7 -18214908.203 9        24.000         133.000
  23471584.496    -3839328.432 4  -2869954.409 6         7.000          23.000
 90  6 17 22 18  0.1900000  0  5 12 11 09 13 18
  21580904.472   -12585403.894 6  -8509565.300 9        18.000          90.000
  23912525.138    11918497.914 5   9287127.895 8         9.000          42.000
  19628341.556   -24573703.572 7 -19079513.068 9        23.000          92.000
  19885978.554   -23902749.268 7 -18227639.130 9        25.000         135.000
  23470785.099    -3843493.495 4  -2873199.937 6         7.000          22.000
 90  6 17 22 18 15.0380000  0  5 12 11 09 13 18
  21572058.112   -12631893.900 6  -8545791.236 9        18.000          85.000
  23920647.169    11961187.373 5   9320392.354 7         9.000          36.000
  19626754.998   -24582038.018 7 -19086007.449 9        23.000          88.000
  19882946.347   -23918685.702 7 -18240057.106 9        25.000         137.000
  23470037.165    -3847461.212 4  -2876291.719 6         7.000          22.000
 90  6 17 22 18 30.1420000  0  5 12 11 09 13 18
  21563070.620   -12679124.375 6  -8582594.156 9        18.000          86.000
  23928911.549    12004614.097 5   9354231.296 7         9.000          35.000
  19625170.147   -24590366.931 7 -19092497.511 9        23.000          93.000
  19879884.067   -23934769.410 7 -18252589.836 9        25.000         133.000
  23469288.833    -3851367.997 4  -2879335.980 7         7.000          26.000
 90  6 17 22 18 45.2460000  0  5 12 11 09 13 18
  21554095.794   -12726292.253 6  -8619348.308 9        18.000          85.000
  23937175.816    12048042.283 5   9388071.383 8         9.000          42.000
  19623614.511   -24598544.585 7 -19098869.720 9        22.000          97.000
  19876848.734   -23950724.233 7 -18265022.139 9        25.000         129.000
  23468576.060    -3855144.270 4  -2882278.556 6         7.000          19.000
 90  6 17 22 19  0.0940000  0  5 12 11 09 13 18
  21545283.512   -12772595.804 6  -8655428.948 9        18.000          87.000
  23945301.259    12090739.064 5   9421341.544 8        10.000          40.000
  19622112.933   -24606432.409 7 -19105016.079 9        22.000          96.000
  19873888.391   -23966279.562 7 -18277143.146 9        25.000         130.000
  23467890.960    -3858725.159 4  -2885068.909 7         7.000          30.000
 90  6 17 22 19 15.1980000  0  5 12 11 09 13 18
  21536333.367   -12819634.901 6  -8692082.727 9        18.000          83.000
  23953566.108    12134173.093 5   9455186.203 7        10.000          38.000
  19620615.524   -24614305.895 7 -19111151.269 9        22.000          98.000
  19870901.469   -23981975.376 7 -18289373.622 9        25.000         133.000
  23467226.229    -3862237.125 4  -2887805.542 6         7.000          21.000
 90  6 17 22 19 30.0460000  0  5 12 11 09 13 18
  21527543.957   -12865813.580 6  -8728066.076 9        19.000          90.000
  23961692.328    12176872.935 5   9488458.766 7        10.000          32.000
  19619171.498   -24621896.712 7 -19117066.198 9        22.000          96.000
  19867987.737   -23997278.462 7 -18301298.076 9        24.000         127.000
  23466587.516    -3865561.091 4  -2890395.667 7         7.000          27.000
 90  6 17 22 19 45.1500000  0  5 12 11 09 13 18
  21518616.877   -12912730.045 6  -8764624.288 9        19.000          96.000
  23969955.348    12220304.326 5   9522301.351 7        10.000          34.000
  19617729.312   -24629472.889 7 -19122969.713 9        22.000          96.000
  19865050.991   -24012723.070 7 -18313332.809 9        25.000         122.000
  23465971.552    -3868816.387 4  -2892932.277 6         7.000          25.000
 90  6 17 22 20  0.2540000  0  5 12 11 09 13 18
  21509700.810   -12959584.999 6  -8801134.603 9        19.000          92.000
  23978219.963    12263733.185 5   9556141.981 7         9.000          30.000
  19616317.852   -24636899.657 7 -19128756.805 9        22.000         102.000
  19862134.094   -24028041.928 7 -18325269.554 9        24.000         133.000
  23465376.478    -3871941.732 4  -2895367.637 6         7.000          22.000
 90  6 17 22 20 15.1020000  0  5 12 11 09 13 18
  21500948.501   -13005582.353 6  -8836976.670 9        18.000          90.000
  23986346.627    12306426.458 5   9589409.407 6         9.000          23.000
  19614956.733   -24644051.618 7 -19134329.771 9        22.000          95.000
  19859292.114   -24042975.525 7 -18336906.095 9        24.000         131.000
  23464816.504    -3874886.244 4  -2897662.112 6         7.000          18.000
 90  6 17 22 20 30.2060000  0  5 12 11 09 13 18
  21492055.714   -13052312.490 6  -8873389.705 9        18.000          97.000
  23994606.308    12349851.448 5   9623247.021 7         9.000          27.000
  19613599.701   -24651179.813 7 -19139884.216 9        22.000          94.000
  19856424.913   -24058043.305 7 -18348647.202 9        25.000         137.000
  23464267.316    -3877757.535 3  -2899899.476 6         6.000          22.000
 90  6 17 22 20 45.0540000  0  5 12 11 09 13 18
  21483324.030   -13098192.570 6  -8909140.365 9        18.000          93.000
  24002731.628    12392534.322 5   9656506.349 6         9.000          23.000
  19612293.406   -24658044.166 7 -19145233.060 9        23.000          94.000
  19853629.177   -24072736.320 7 -18360096.279 9        25.000         134.000
  23463750.490    -3880460.248 3  -2902005.518 6         6.000          17.000
 90  6 17 22 21  0.1580000  0  5 12 11 09 13 18
  21474457.312   -13144800.794 6  -8945458.411 9        19.000          96.000
  24010993.576    12435950.131 5   9690336.788 7         9.000          33.000
  19610991.545   -24664877.628 7 -19150557.843 9        22.000          97.000
  19850811.131   -24087557.898 7 -18371645.534 9        25.000         129.000
  23463256.363    -3883084.030 4  -2904050.075 6         7.000          17.000
 90  6 17 22 21 15.0060000  0  5 12 11 09 13 18
  21465745.487   -13190558.542 6  -8981113.755 9        19.000         102.000
  24019114.341    12478625.365 5   9723590.168 7         9.000          31.000
  19609740.372   -24671449.926 7 -19155679.122 9        23.000          95.000
  19848059.525   -24102007.062 7 -18382904.597 9        25.000         134.000
  23462788.477    -3885541.849 4  -2905965.247 6         7.000          19.000
 90  6 17 22 21 30.1100000  0  5 12 11 09 13 18
  21456903.439   -13237040.616 6  -9017333.503 9        18.000          96.000
  24027372.285    12522034.071 5   9757415.088 6         9.000          25.000
  19608497.677   -24677984.934 7 -19160771.337 9        22.000          92.000
  19845288.010   -24116579.677 7 -18394259.862 9        26.000         129.000
  23462335.445    -3887915.808 4  -2907815.146 6         7.000          14.000
 90  6 17 22 21 45.2140000  0  5 12 11 09 13 18
  21448068.674   -13283456.242 6  -9053501.483 9        19.000          95.000
  24035632.844    12565441.044 5   9791238.683 7         8.000          26.000
  19607284.811   -24684366.993 7 -19165744.375 9        22.000          90.000
  19842537.119   -24131024.751 7 -18405515.739 9        25.000         138.000
  23461910.035    -3890160.777 4  -2909564.494 6         7.000          19.000
 90  6 17 22 22  0.0620000  0  5 12 11 09 13 18
  21439399.293   -13329022.369 6  -9089007.489 9        19.000          95.000
  24043751.668    12608108.202 5   9824485.778 6         8.000          24.000
  19606118.168   -24690494.104 7 -19170518.750 9        22.000          90.000
  19839858.479   -24145103.274 7 -18416485.997 9        26.000         131.000
  23461513.993    -3892244.582 4  -2911188.302 6         7.000          13.000
 90  6 17 22 22 15.1660000  0  5 12 11 09 13 18
  21430589.433   -13375310.347 6  -9125076.009 9        18.000         104.000
  24052013.565    12651506.166 5   9858302.333 7         8.000          26.000
  19604960.126   -24696577.775 7 -19175259.273 9        22.000          91.000
  19837156.733   -24159301.191 7 -18427549.276 9        25.000         136.000
  23461133.345    -3894241.475 4  -2912744.369 6         7.000          14.000
 90  6 17 22 22 30.0140000  0  5 12 11 09 13 18
  21421942.402   -13420750.040 6  -9160483.516 9        18.000         101.000
  24060128.037    12694164.284 5   9891542.373 7         8.000          32.000
  19603849.371   -24702410.754 7 -19179804.455 9        22.000          93.000
  19834525.401   -24173136.545 7 -18438330.051 9        26.000         133.000
  23460785.448    -3896082.119 4  -2914178.650 6         7.000          16.000
 90  6 17 22 22 45.1180000  0  5 12 11 09 13 18
  21413159.858   -13466908.846 6  -9196451.361 9        19.000          98.000
  24068384.949    12737552.403 5   9925351.248 7         9.000          34.000
  19602750.454   -24708195.221 7 -19184311.839 9        22.000          85.000
  19831868.550   -24187087.236 7 -18449200.692 9        26.000         130.000
  23460452.096    -3897829.246 4  -2915540.118 6         7.000          18.000
 90  6 17 22 23  0.2220000  0  5 12 11 09 13 18
  21404387.774   -13513006.060 6  -9232371.220 9        19.000          98.000
  24076641.647    12780931.086 5   9959152.768 7         9.000          27.000
  19601677.321   -24713832.557 7 -19188704.575 9        22.000          82.000
  19829238.893   -24200917.708 7 -18459977.660 9        26.000         133.000
  23460142.638    -3899453.652 4  -2916805.920 6         7.000          17.000
 90  6 17 22 23 15.0700000  0  5 12 11 09 13 18
  21395778.683   -13558253.607 6  -9267629.011 9        19.000          96.000
  24084753.749    12823572.932 5   9992380.141 7         8.000          33.000
  19600649.278   -24719223.009 7 -19192904.928 9        22.000          86.000
  19826674.837   -24214388.681 7 -18470474.500 9        26.000         132.000
  23459865.470    -3900922.913 4  -2917950.798 6         7.000          14.000
 90  6 17 22 23 30.1740000  0  5 12 11 09 13 18
  21387032.279   -13604216.463 6  -9303444.171 9        19.000          97.000
  24093009.864    12866943.144 5  10026175.087 7         8.000          30.000
  19599635.454   -24724557.445 7 -19197061.635 9        22.000          85.000
  19824088.880   -24227969.830 7 -18481057.188 9        26.000         131.000
  23459601.275    -3902292.113 4  -2919017.786 6         7.000          12.000
 90  6 17 22 23 45.0220000  0  5 12 11 09 13 18
  21378445.406   -13649334.079 6  -9338600.724 9        19.000          98.000
  24101118.606    12909573.540 5  10059393.530 7         8.000          31.000
  19598668.272   -24729652.537 7 -19201031.843 9        22.000          86.000
  19821572.539   -24241198.433 7 -18491365.168 9        26.000         128.000
  23459372.261    -3903513.557 4  -2919969.559 5         7.000          11.000
 90  6 17 22 24  0.1260000  0  5 12 11 09 13 18
  21369724.633   -13695159.566 6  -9374308.840 9        19.000         107.000
  24109374.915    12952936.219 4  10093182.597 7         7.000          34.000
  19597708.649   -24734681.531 7 -19204950.543 9        22.000          89.000
  19819037.617   -24254528.739 7 -18501752.394 9        26.000         128.000
  23459157.181    -3904628.425 4  -2920838.333 6         7.000          17.000
 90  6 17 22 24 15.2300000  0  5 12 11 09 13 18
  21361018.345   -13740917.821 7  -9409964.579 9        20.000          98.000
  24117620.611    12996292.312 5  10126966.499 7         8.000          33.000
  19596782.839   -24739558.859 7 -19208751.065 9        22.000          94.000
  19816521.859   -24267735.392 7 -18512043.266 9        26.000         134.000
  23458969.579    -3905620.186 4  -2921611.177 6         7.000          16.000
 90  6 17 22 24 30.0780000  0  5 12 11 09 13 18
  21352469.779   -13785837.893 7  -9444967.187 9        20.000          97.000
  24125731.212    13038903.506 5  10160169.987 7         8.000          34.000
  19595896.337   -24744208.897 7 -19212374.478 9        22.000          91.000
  19814074.236   -24280601.004 7 -18522068.389 9        26.000         134.000
  23458803.909    -3906479.306 4  -2922280.642 6         7.000          18.000
 90  6 17 22 24 45.1820000  0  5 12 11 09 13 18
  21343786.628   -13831466.415 7  -9480521.848 9        20.000          98.000
  24133978.277    13082240.795 5  10193939.238 7         8.000          27.000
  19595023.237   -24748790.057 7 -19215944.220 9        22.000          87.000
  19811606.806   -24293567.573 7 -18532172.192 9        26.000         131.000
  23458662.378    -3907232.799 5  -2922867.842 6         8.000          14.000
 90  6 17 22 25  0.0300000  0  5 12 11 09 13 18
  21335264.285   -13876253.928 7  -9515421.155 9        20.000         105.000
  24142082.656    13124837.424 5  10227131.391 7         8.000          26.000
  19594197.678   -24753144.324 7 -19219337.158 9        22.000          99.000
  19809204.384   -24306192.877 7 -18542010.064 9        26.000         131.000
  23458545.138    -3907854.056 5  -2923351.978 6         8.000          18.000
 90  6 17 22 25 15.1340000  0  5 12 11 09 13 18
  21326607.714   -13921745.111 7  -9550868.786 9        20.000         111.000
  24150326.657    13168161.498 4  10260890.390 6         7.000          23.000
  19593381.119   -24757422.345 7 -19222670.688 9        22.000          95.000
  19806784.598   -24318913.333 7 -18551922.084 9        25.000         129.000
  23458446.929    -3908364.752 5  -2923749.967 6         8.000          20.000
 90  6 17 22 25 30.2380000  0  5 12 11 09 13 18
  21317963.402   -13967165.067 7  -9586260.912 9        20.000         102.000
  24158569.359    13211479.996 4  10294645.028 6         7.000          20.000
  19592598.576   -24761545.874 7 -19225883.835 9        23.000          94.000
  19804385.476   -24331508.452 7 -18561736.433 9        25.000         127.000
  23458377.558    -3908750.674 5  -2924050.713 5         8.000          11.000
 90  6 17 22 25 45.0860000  0  5 12 11 09 13 18
  21309480.121   -14011747.313 7  -9621000.276 9        20.000          98.000
  24166673.239    13254056.613 4  10327821.588 6         7.000          23.000
  19591852.870   -24765450.720 7 -19228926.577 9        23.000          96.000
  19802053.468   -24343769.915 7 -18571290.794 9        25.000         125.000
  23458322.907    -3909010.840 5  -2924253.479 6         8.000          13.000
 90  6 17 22 26  0.1900000  0  5 12 11 09 13 18
  21300864.483   -14057026.271 7  -9656282.544 9        20.000         110.000
  24174914.777    13297361.982 5  10361565.994 6         8.000          22.000
  19591128.032   -24769268.700 7 -19231901.633 9        22.000          92.000
  19799703.226   -24356118.194 7 -18580912.807 9        25.000         130.000
  23458297.930    -3909152.316 5                         8.000
 90  6 17 22 26 15.0380000  0  5 12 11 09 13 18
  21292407.813   -14101471.091 7  -9690914.817 9        20.000         102.000
  24183014.008    13339923.457 5  10394730.746 6         8.000          21.000
  19590439.449   -24772874.883 7 -19234711.651 9        22.000          92.000
  19797417.421   -24368139.104 7 -18590279.729 9        25.000         124.000
  23458293.445    -3909173.792 5                         8.000
 90  6 17 22 26 30.1420000  0  5 12 11 09 13 18
  21283817.362   -14146609.791 7  -9726087.789 9        20.000          99.000
  24191252.298    13383212.691 5  10428462.583 6         8.000          17.000
  19589772.930   -24776389.221 7 -19237450.104 9        22.000          84.000
  19795112.269   -24380242.953 7 -18599711.274 9        25.000         129.000
  23458314.365    -3909070.568 5                         8.000
 90  6 17 22 26 45.2460000  0  5 12 11 09 13 18
  21275240.653   -14191676.939 7  -9761204.998 9        20.000         106.000
  24199488.249    13426493.829 5  10462188.087 7         8.000          28.000
  19589132.429   -24779749.851 7 -19240068.780 9        22.000          91.000
  19792833.360   -24392223.531 7 -18609046.761 9        25.000         127.000
  23458359.087    -3908841.497 5                         8.000
 90  6 17 22 27  0.0940000  0  5 12 11 09 13 18
  21266822.667   -14235914.026 7  -9795675.407 9        20.000         110.000
  24207581.678    13469029.313 5  10495332.599 7         8.000          26.000
  19588532.175   -24782907.511 7 -19242529.305 9        22.000          86.000
  19790614.076   -24403885.003 7 -18618133.603 9        25.000         130.000
  23458422.165    -3908497.945 5                         8.000
 90  6 17 22 27 15.1980000  0  5 12 11 09 13 18
  21258273.702   -14280843.294 7  -9830685.174 9        20.000         105.000
  24215813.063    13512288.541 5  10529041.061 6         8.000          21.000
  19587951.362   -24785968.134 7 -19244914.216 9        22.000          93.000
  19788379.061   -24415626.672 7 -18627282.926 9        25.000         125.000
  23458507.512    -3908024.430 5  -2923484.59816         8.000          12.000
 90  6 17 22 27 30.0460000  0  4 12 11 09 18
  21249881.255   -14324940.561 7  -9865046.655 9        20.000         105.000
  24223902.580    13554805.676 5  10562171.259 6         8.000          22.000
  19587404.809   -24788827.067 7 -19247141.958 9        22.000          93.000
  23458621.983    -3907436.030 5  -2923026.141 6         8.000          12.000
 90  6 17 22 27 45.1500000  0  5 12 11 09 13 18
  21241358.185   -14369724.047 6  -9899942.819 9        19.000         113.000
  24232131.584    13598048.617 4  10595867.030 6         7.000          21.000
  19586882.814   -24791580.672 7 -19249287.629 9        22.000          93.000
  19784018.488   -24438546.315 7 -18645142.342 9        26.000         132.000
  23458762.257    -3906712.059 5  -2922462.089 6         8.000          13.000
 90  6 17 22 28  0.2540000  0  5 12 11 09 13 18
  21232850.337   -14414431.226 6  -9934779.528 9        19.000         113.000
  24240359.087    13641285.379 4  10629557.968 6         7.000          19.000
  19586387.338   -24794177.286 7 -19251310.972 9        22.000          95.000
  19781854.242   -24449917.323 7 -18654002.837 9        26.000         132.000
  23458923.983    -3905860.741 5  -2921798.760 6         8.000          20.000
 90  6 17 22 28 15.1020000  0  5 12 11 09 13 18
  21224500.630   -14458309.174 6  -9968970.101 9        19.000         112.000
  24248450.259    13683779.615 4  10662670.334 6         7.000          20.000
  19585929.668   -24796579.823 7 -19253183.084 9        22.000          87.000
  19779751.512   -24460976.703 7 -18662620.511 9        27.000         133.000
  23459105.843    -3904902.535 4  -2921052.120 6         7.000          14.000
 90  6 17 22 28 30.2060000  0  5 12 11 09 13 18
  21216020.199   -14502872.962 6 -10003695.095 9        19.000         115.000
  24256668.609    13726994.159 4  10696343.975 6         7.000          25.000
  19585495.830   -24798873.405 7 -19254970.298 9        22.000          93.000
  19777630.895   -24472108.327 7 -18671294.479 9        26.000         128.000
  23459316.816    -3903806.562 5  -2920198.159 6         8.000          12.000
 90  6 17 22 28 45.0540000  0  5 12 11 09 13 18
  21207698.532   -14546608.445 6 -10037774.653 9        19.000         113.000
  24264750.954    13769467.215 4  10729439.838 6         7.000          23.000
  19585094.190   -24800976.836 7 -19256609.339 9        22.000          83.000
  19775571.283   -24482931.617 7 -18679728.187 9        26.000         134.000
  23459540.987    -3902605.964 5  -2919262.700 6         8.000          15.000
 90  6 17 22 29  0.1580000  0  5 12 11 09 13 18
  21199247.705   -14591021.023 6 -10072381.810 9        19.000         107.000
  24272973.145    13812665.368 5  10763100.683 6         8.000          13.000
  19584716.167   -24802960.348 7 -19258154.944 9        22.000          91.000
  19773500.190   -24493817.653 7 -18688210.791 9        26.000         135.000
  23459800.349    -3901257.539 4  -2918212.048 6         7.000          16.000
 90  6 17 22 29 15.0060000  0  4 12 09 13 18
  21190951.791   -14634609.435 6 -10106346.772 9        19.000         111.000
  19584374.092   -24804761.313 7 -19259558.300 9        22.000          91.000
  19771486.260   -24504402.246 7 -18696458.497 9        26.000         133.000
  23460075.055    -3899811.595 4  -2917085.394 6         7.000          20.000
 90  6 17 22 29 30.1100000  0  4 12 09 13 18
  21182526.911   -14678876.658 6 -10140840.674 9        19.000         112.000
  19584052.804   -24806441.879 7 -19260867.839 9        22.000          95.000
  19769459.899   -24515050.670 7 -18704755.944 9        26.000         131.000
  23460379.027    -3898218.659 4  -2915844.210 6         7.000          20.000
 90  6 17 22 29 45.2140000  0  4 12 09 13 18
  21174118.947   -14723071.155 6 -10175277.900 9        19.000         111.000
  19583763.797   -24807970.509 7 -19262058.986 9        22.000          88.000
  19767454.621   -24525580.557 7 -18712961.034 9        26.000         133.000
  23460706.299    -3896504.421 4  -2914508.500 6         7.000          20.000
 90  6 17 22 30  0.0620000  0  4 12 09 13 18
  21165866.907   -14766441.072 7 -10209072.602 9        20.000         104.000
  19583505.046   -24809321.117 7 -19263111.414 9        22.000          83.000
  19765508.561   -24535812.331 7 -18720933.822 9        26.000         133.000
  23461044.757    -3894696.500 3  -2913099.771 6         6.000          15.000
 90  6 17 22 30 15.1660000  0  4 12 09 13 18
  21157483.991   -14810484.763 7 -10243392.328 9        20.000         112.000
  19583272.048   -24810543.089 7 -19264063.611 9        21.000          87.000
  19763550.774   -24546101.847 7 -18728951.602 9        26.000         132.000
  23461416.129    -3892735.266 3  -2911571.579 6         6.000          14.000
 90  6 17 22 30 30.0140000  0  4 12 09 13 18
  21149260.431   -14853704.655 7 -10277070.125 9        20.000         114.000
  19583073.302   -24811590.699 7 -19264879.936 9        22.000          92.000
  19761650.539   -24556096.571 7 -18736739.682 9        27.000         131.000
  23461811.873    -3890685.012 4  -2909974.008 6         7.000          16.000
 90  6 17 22 30 45.1180000  0  4 12 09 13 18
  21140909.488   -14897595.960 7 -10311271.100 9        20.000         118.000
  19582900.205   -24812505.267 7 -19265592.597 9        22.000          94.000
  19759735.084   -24566146.460 7 -18744570.739 9        26.000         136.000
  23462224.749    -3888480.469 4  -2908256.259 6         7.000          19.000
 90  6 17 22 31  0.2220000  0  4 12 09 13 18
  21132572.397   -14941401.851 6 -10345405.521 9        19.000         118.000
  19582756.641   -24813256.594 7 -19266178.058 9        22.000          90.000
  19757849.702   -24576067.530 7 -18752301.425 9        27.000         129.000
  23462673.541    -3886147.218 4  -2906438.166 6         7.000          15.000
 90  6 17 22 31 15.0700000  0  4 12 09 13 18
  21124391.036   -14984392.112 6 -10378904.375 9        19.000         108.000
  19582646.582   -24813846.438 7 -19266637.683 9        22.000          89.000
  19756013.588   -24585705.501 7 -18759811.512 9        26.000         131.000
  23463130.618    -3883739.380 3  -2904561.978 6         6.000          17.000
 90  6 17 22 31 30.1740000  0  4 12 09 13 18
  21116085.439   -15028043.925 7 -10412918.745 9        20.000         112.000
  19582559.344   -24814290.232 7 -19266983.503 9        22.000          91.000
  19754172.407   -24595387.977 7 -18767356.279 9        26.000         130.000
  23463624.703    -3881170.709 4  -2902560.438 6         7.000          21.000
 90  6 17 22 31 45.0220000  0  4 12 09 13 18
  21107932.905   -15070880.810 7 -10446298.103 9        20.000         117.000
  19582509.524   -24814576.359 7 -19267206.471 9        22.000          88.000
  19752382.639   -24604790.550 7 -18774682.938 9        26.000         131.000
  23464122.242    -3878532.512 4  -2900504.760 6         7.000          13.000
 90  6 17 22 32  0.1260000  0  4 12 09 13 18
  21099653.561   -15114376.405 7 -10480190.725 9        20.000         117.000
  19582479.307   -24814711.463 7                        22.000
  19750585.271   -24614234.441 7 -18782041.789 9        26.000         130.000
  23464661.397    -3875730.338 4  -2898321.288 6         7.000          14.000
 90  6 17 22 32 15.2300000  0  4 12 09 13 18
  21091394.064   -15157792.346 7 -10514021.283 9        21.000         121.000
  19582485.293   -24814690.463 7                        23.000
  19748811.224   -24623557.983 7 -18789306.869 9        26.000         127.000
  23465212.923    -3872810.134 4  -2896045.863 6         7.000          21.000
 90  6 17 22 32 30.0780000  0  4 12 09 13 18
  21083287.673   -15200394.172 7 -10547217.479 9        21.000         111.000
  19582515.335   -24814517.218 7                        22.000
  19747088.998   -24632605.942 7 -18796357.210 9        26.000         124.000
  23465783.235    -3869825.030 4  -2893719.822 6         7.000          16.000
 90  6 17 22 32 45.1820000  0  4 12 09 13 18
  21075056.534   -15243650.326 7 -10580923.533 9        21.000         115.000
  19582580.701   -24814185.479 7                        22.000
  19745360.818   -24641690.167 7 -18803435.810 9        26.000         123.000
  23466380.555    -3866671.640 4  -2891262.700 6         7.000          20.000
 90  6 17 22 33  0.0300000  0  4 12 09 13 18
  21066979.747   -15286094.313 7 -10613996.733 9        22.000         111.000
  19582670.604   -24813706.782 7 -19266528.91119        22.000          87.000
  19743683.723   -24650503.242 7 -18810303.120 9        26.000         128.000
  23466990.542    -3863455.965 3  -2888757.029 6         6.000          14.000
 90  6 17 22 33 15.1340000  0  4 12 09 13 18
  21058779.090   -15329189.326 7 -10647577.233 9        21.000         109.000
  19582793.134   -24813064.282 7 -19266028.276 9        22.000          93.000
  19742001.612   -24659349.037 7 -18817195.928 9        27.000         128.000
  23467636.966    -3860067.014 3  -2886116.325 6         6.000          18.000
 90  6 17 22 33 30.2380000  0  4 12 09 13 18
  21050592.673   -15372201.984 7 -10681093.537 9        21.000         105.000
  19582945.962   -24812264.309 7 -19265404.925 9        22.000          89.000
  19740338.982   -24668074.199 7 -18823994.732 9        26.000         126.000
  23468306.896    -3856557.182 3  -2883381.432 6         6.000          21.000
 90  6 17 22 33 45.0860000  0  4 12 09 13 18
  21042561.098   -15414410.337 7 -10713983.130 9        21.000         110.000
  19583124.185   -24811329.669 7 -19264676.646 9        22.000          94.000
  19738729.910   -24676539.476 7 -18830591.040 9        27.000         126.000
  23468982.668    -3852994.236 3  -2880605.157 6         6.000          13.000
 90  6 17 22 34  0.1900000  0  4 12 09 13 18
  21034406.236   -15457265.600 7 -10747376.797 9        22.000         109.000
  19583334.218   -24810224.238 7 -19263815.281 9        21.000          94.000
  19737112.881   -24685032.936 7 -18837209.302 9        26.000         122.000
  23469695.369    -3849250.202 4  -2877687.791 6         7.000          16.000
 90  6 17 22 34 15.0380000  0  4 12 09 13 18
  21026404.397   -15499316.782 7 -10780143.913 9        22.000         120.000
  19583570.147   -24808987.279 7 -19262851.427 9        22.000          93.000
  19735546.702   -24693268.931 7 -18843626.948 9        27.000         125.000
  23470421.594    -3845454.867 4  -2874730.415 5         7.000           5.000
 90  6 17 22 34 30.1420000  0  4 12 09 13 18
  21018279.670   -15542011.187 7 -10813412.235 9        22.000         110.000
  19583836.772   -24807573.957 7 -19261750.149 9        21.000          90.000
  19733975.181   -24701529.221 7 -18850063.521 9        26.000         122.000
  23471176.289    -3841476.157 4  -2871630.234 6         7.000          19.000
 90  6 17 22 34 45.2460000  0  4 12 09 13 18
  21010172.370   -15584622.995 7 -10846616.207 9        23.000         111.000
  19584137.076   -24806004.367 7 -19260527.104 9        21.000          91.000
  19732425.316   -24709671.038 7 -18856407.776 9        27.000         118.000
  23471955.357    -3837377.875 4  -2868436.780 5         7.000          11.000
 90  6 17 22 35  0.0940000  0  4 12 09 13 18
  21002216.469   -15626429.572 7 -10879192.725 9        22.000         115.000
  19584460.886   -24804306.939 7 -19259204.443 9        22.000          87.000
  19730923.187   -24717557.474 7 -18862553.042 9        27.000         120.000
  23472744.834    -3833229.775 3  -2865204.571 6         6.000          13.000
 90  6 17 22 35 15.1980000  0  4 12 09 13 18
  20994136.945   -15668874.097 7 -10912266.339 9        22.000         118.000
  19584818.190   -24802424.879 7 -19257737.917 9        21.000          92.000
  19729418.984   -24725462.667 7 -18868712.914 9        26.000         120.000
  23473571.240    -3828891.164 4  -2861823.875 6         7.000          19.000
